<?xml version='1.0' encoding='UTF-8'?><gpx version="1.1" creator="JPX - https://github.com/jenetics/jpx" xmlns="http://www.topografix.com/GPX/1/1"><trk><trkseg><trkpt lat="45.3989326" lon="9.8890685"><ele>69.0</ele><time>2026-05-01T12:29:17.784Z</time></trkpt><trkpt lat="45.3989544" lon="9.8891813"><ele>69.0</ele><time>2026-05-01T12:29:21.823Z</time></trkpt><trkpt lat="45.3989673" lon="9.8892849"><ele>69.0</ele><time>2026-05-01T12:29:24.768Z</time></trkpt><trkpt lat="45.398985" lon="9.8893717"><ele>69.0</ele><time>2026-05-01T12:29:26.733Z</time></trkpt><trkpt lat="45.3990033" lon="9.8894817"><ele>69.0</ele><time>2026-05-01T12:29:29.733Z</time></trkpt><trkpt lat="45.3990317" lon="9.889595"><ele>69.0</ele><time>2026-05-01T12:29:32.733Z</time></trkpt><trkpt lat="45.3990333" lon="9.8897133"><ele>69.0</ele><time>2026-05-01T12:29:35.733Z</time></trkpt><trkpt lat="45.3990517" lon="9.8898083"><ele>69.0</ele><time>2026-05-01T12:29:38.733Z</time></trkpt><trkpt lat="45.399085" lon="9.8898967"><ele>69.0</ele><time>2026-05-01T12:29:42.733Z</time></trkpt><trkpt lat="45.3991167" lon="9.8899833"><ele>69.0</ele><time>2026-05-01T12:29:46.733Z</time></trkpt><trkpt lat="45.399135" lon="9.8900883"><ele>69.0</ele><time>2026-05-01T12:29:49.733Z</time></trkpt><trkpt lat="45.399145" lon="9.8901967"><ele>69.0</ele><time>2026-05-01T12:29:52.733Z</time></trkpt><trkpt lat="45.39917" lon="9.8903117"><ele>69.0</ele><time>2026-05-01T12:29:55.733Z</time></trkpt><trkpt lat="45.3991933" lon="9.8904267"><ele>68.83333333333333</ele><time>2026-05-01T12:29:58.733Z</time></trkpt><trkpt lat="45.3992133" lon="9.89055"><ele>68.66666666666667</ele><time>2026-05-01T12:30:01.733Z</time></trkpt><trkpt lat="45.399245" lon="9.8906683"><ele>68.5</ele><time>2026-05-01T12:30:04.733Z</time></trkpt><trkpt lat="45.3992683" lon="9.8907883"><ele>68.33333333333334</ele><time>2026-05-01T12:30:07.733Z</time></trkpt><trkpt lat="45.3992933" lon="9.8909017"><ele>68.16666666666667</ele><time>2026-05-01T12:30:10.733Z</time></trkpt><trkpt lat="45.3993167" lon="9.8910183"><ele>68.0</ele><time>2026-05-01T12:30:13.733Z</time></trkpt><trkpt lat="45.3993267" lon="9.8911217"><ele>67.99999999999999</ele><time>2026-05-01T12:30:16.733Z</time></trkpt><trkpt lat="45.39934" lon="9.89122"><ele>68.0</ele><time>2026-05-01T12:30:20.733Z</time></trkpt><trkpt lat="45.3993917" lon="9.8912817"><ele>68.0</ele><time>2026-05-01T12:30:25.733Z</time></trkpt><trkpt lat="45.399345" lon="9.89121"><ele>68.0</ele><time>2026-05-01T12:30:35.733Z</time></trkpt><trkpt lat="45.3993167" lon="9.8911267"><ele>68.0</ele><time>2026-05-01T12:30:39.733Z</time></trkpt><trkpt lat="45.3992883" lon="9.89103"><ele>67.99999999999999</ele><time>2026-05-01T12:30:43.733Z</time></trkpt><trkpt lat="45.3992733" lon="9.8909367"><ele>68.0</ele><time>2026-05-01T12:30:46.733Z</time></trkpt><trkpt lat="45.3992567" lon="9.8908383"><ele>67.99999999999999</ele><time>2026-05-01T12:30:49.733Z</time></trkpt><trkpt lat="45.3992367" lon="9.890735"><ele>68.0</ele><time>2026-05-01T12:30:52.733Z</time></trkpt><trkpt lat="45.39922" lon="9.89064"><ele>68.0</ele><time>2026-05-01T12:30:55.733Z</time></trkpt><trkpt lat="45.3992" lon="9.8905317"><ele>68.0</ele><time>2026-05-01T12:30:58.734Z</time></trkpt><trkpt lat="45.3991717" lon="9.8904383"><ele>68.0</ele><time>2026-05-01T12:31:01.733Z</time></trkpt><trkpt lat="45.3991517" lon="9.890345"><ele>67.99999999999999</ele><time>2026-05-01T12:31:04.733Z</time></trkpt><trkpt lat="45.3991283" lon="9.8902467"><ele>68.0</ele><time>2026-05-01T12:31:07.734Z</time></trkpt><trkpt lat="45.3991067" lon="9.890145"><ele>68.14285714285714</ele><time>2026-05-01T12:31:10.733Z</time></trkpt><trkpt lat="45.399085" lon="9.89004"><ele>68.28571428571428</ele><time>2026-05-01T12:31:13.732Z</time></trkpt><trkpt lat="45.3990683" lon="9.8899533"><ele>68.42857142857143</ele><time>2026-05-01T12:31:16.732Z</time></trkpt><trkpt lat="45.3990467" lon="9.889865"><ele>68.57142857142857</ele><time>2026-05-01T12:31:20.732Z</time></trkpt><trkpt lat="45.39902" lon="9.889755"><ele>68.71428571428572</ele><time>2026-05-01T12:31:23.732Z</time></trkpt><trkpt lat="45.3990233" lon="9.889635"><ele>68.85714285714286</ele><time>2026-05-01T12:31:27.732Z</time></trkpt><trkpt lat="45.399" lon="9.88955"><ele>69.0</ele><time>2026-05-01T12:31:29.732Z</time></trkpt><trkpt lat="45.3989767" lon="9.88945"><ele>69.0</ele><time>2026-05-01T12:31:31.732Z</time></trkpt><trkpt lat="45.39896" lon="9.8893617"><ele>69.0</ele><time>2026-05-01T12:31:33.732Z</time></trkpt><trkpt lat="45.39896" lon="9.8892667"><ele>69.0</ele><time>2026-05-01T12:31:37.732Z</time></trkpt><trkpt lat="45.3989183" lon="9.8891967"><ele>69.0</ele><time>2026-05-01T12:31:42.732Z</time></trkpt><trkpt lat="45.398895" lon="9.889315"><ele>69.0</ele><time>2026-05-01T12:32:25.732Z</time></trkpt><trkpt lat="45.3988667" lon="9.8894033"><ele>69.0</ele><time>2026-05-01T12:32:28.732Z</time></trkpt><trkpt lat="45.39888" lon="9.889525"><ele>69.0</ele><time>2026-05-01T12:32:31.732Z</time></trkpt><trkpt lat="45.3988983" lon="9.8896217"><ele>69.0</ele><time>2026-05-01T12:32:34.732Z</time></trkpt><trkpt lat="45.3988917" lon="9.8897383"><ele>69.0</ele><time>2026-05-01T12:32:39.732Z</time></trkpt><trkpt lat="45.3988783" lon="9.8898617"><ele>69.0</ele><time>2026-05-01T12:32:42.732Z</time></trkpt><trkpt lat="45.3989133" lon="9.88995"><ele>69.0</ele><time>2026-05-01T12:32:46.732Z</time></trkpt><trkpt lat="45.3989767" lon="9.8899917"><ele>69.0</ele><time>2026-05-01T12:32:53.732Z</time></trkpt><trkpt lat="45.399035" lon="9.889935"><ele>69.0</ele><time>2026-05-01T12:32:57.732Z</time></trkpt><trkpt lat="45.3990867" lon="9.889875"><ele>69.0</ele><time>2026-05-01T12:33:00.732Z</time></trkpt><trkpt lat="45.3991633" lon="9.889825"><ele>69.0</ele><time>2026-05-01T12:33:04.732Z</time></trkpt><trkpt lat="45.3992417" lon="9.889785"><ele>69.0</ele><time>2026-05-01T12:33:07.732Z</time></trkpt><trkpt lat="45.3993217" lon="9.8897467"><ele>69.0</ele><time>2026-05-01T12:33:10.732Z</time></trkpt><trkpt lat="45.399385" lon="9.8897183"><ele>69.0</ele><time>2026-05-01T12:33:12.732Z</time></trkpt><trkpt lat="45.3994717" lon="9.8896733"><ele>69.0</ele><time>2026-05-01T12:33:15.732Z</time></trkpt><trkpt lat="45.399535" lon="9.8896467"><ele>69.0</ele><time>2026-05-01T12:33:17.732Z</time></trkpt><trkpt lat="45.3995967" lon="9.88962"><ele>69.0</ele><time>2026-05-01T12:33:19.732Z</time></trkpt><trkpt lat="45.3996583" lon="9.88959"><ele>69.0</ele><time>2026-05-01T12:33:21.733Z</time></trkpt><trkpt lat="45.3997467" lon="9.889545"><ele>69.0</ele><time>2026-05-01T12:33:24.732Z</time></trkpt><trkpt lat="45.3998233" lon="9.889515"><ele>69.0</ele><time>2026-05-01T12:33:27.732Z</time></trkpt><trkpt lat="45.3998983" lon="9.8894967"><ele>69.0</ele><time>2026-05-01T12:33:30.732Z</time></trkpt><trkpt lat="45.4000283" lon="9.889475"><ele>69.0</ele><time>2026-05-01T12:33:56.732Z</time></trkpt><trkpt lat="45.4000967" lon="9.8894583"><ele>69.0</ele><time>2026-05-01T12:34:03.732Z</time></trkpt><trkpt lat="45.40016" lon="9.889435"><ele>69.0</ele><time>2026-05-01T12:34:07.732Z</time></trkpt><trkpt lat="45.4002267" lon="9.88942"><ele>69.0</ele><time>2026-05-01T12:34:11.732Z</time></trkpt><trkpt lat="45.4003033" lon="9.8894033"><ele>69.0</ele><time>2026-05-01T12:34:18.732Z</time></trkpt><trkpt lat="45.4003683" lon="9.8894033"><ele>69.0</ele><time>2026-05-01T12:34:26.732Z</time></trkpt><trkpt lat="45.4004467" lon="9.8893817"><ele>69.0</ele><time>2026-05-01T12:34:30.732Z</time></trkpt><trkpt lat="45.40052" lon="9.8893717"><ele>69.0</ele><time>2026-05-01T12:34:33.732Z</time></trkpt><trkpt lat="45.4005867" lon="9.8893617"><ele>69.0</ele><time>2026-05-01T12:34:36.732Z</time></trkpt><trkpt lat="45.4006233" lon="9.8892817"><ele>69.0</ele><time>2026-05-01T12:34:40.732Z</time></trkpt><trkpt lat="45.4006133" lon="9.889185"><ele>69.0</ele><time>2026-05-01T12:34:43.732Z</time></trkpt><trkpt lat="45.4006167" lon="9.8890583"><ele>69.0</ele><time>2026-05-01T12:34:46.732Z</time></trkpt><trkpt lat="45.4006483" lon="9.8889367"><ele>69.0</ele><time>2026-05-01T12:34:49.732Z</time></trkpt><trkpt lat="45.4007" lon="9.888885"><ele>69.0</ele><time>2026-05-01T12:34:51.733Z</time></trkpt><trkpt lat="45.4007683" lon="9.8888617"><ele>69.0</ele><time>2026-05-01T12:34:53.732Z</time></trkpt><trkpt lat="45.4008417" lon="9.8888433"><ele>69.33333333333333</ele><time>2026-05-01T12:34:55.733Z</time></trkpt><trkpt lat="45.4009183" lon="9.8888283"><ele>69.66666666666667</ele><time>2026-05-01T12:34:57.732Z</time></trkpt><trkpt lat="45.4009983" lon="9.888805"><ele>70.0</ele><time>2026-05-01T12:34:59.731Z</time></trkpt><trkpt lat="45.40108" lon="9.8887733"><ele>70.33333333333334</ele><time>2026-05-01T12:35:01.731Z</time></trkpt><trkpt lat="45.4011617" lon="9.88874"><ele>70.66666666666667</ele><time>2026-05-01T12:35:03.731Z</time></trkpt><trkpt lat="45.401245" lon="9.8887067"><ele>71.0</ele><time>2026-05-01T12:35:05.731Z</time></trkpt><trkpt lat="45.40133" lon="9.8886617"><ele>70.83333333333334</ele><time>2026-05-01T12:35:07.731Z</time></trkpt><trkpt lat="45.401415" lon="9.8886217"><ele>70.66666666666667</ele><time>2026-05-01T12:35:09.731Z</time></trkpt><trkpt lat="45.4014983" lon="9.8885817"><ele>70.5</ele><time>2026-05-01T12:35:11.731Z</time></trkpt><trkpt lat="45.4015783" lon="9.8885533"><ele>70.33333333333333</ele><time>2026-05-01T12:35:13.731Z</time></trkpt><trkpt lat="45.4016683" lon="9.8885883"><ele>70.16666666666666</ele><time>2026-05-01T12:35:16.731Z</time></trkpt><trkpt lat="45.40175" lon="9.88866"><ele>70.0</ele><time>2026-05-01T12:35:19.731Z</time></trkpt><trkpt lat="45.401815" lon="9.88871"><ele>70.0</ele><time>2026-05-01T12:35:21.731Z</time></trkpt><trkpt lat="45.4018817" lon="9.8887517"><ele>70.0</ele><time>2026-05-01T12:35:23.731Z</time></trkpt><trkpt lat="45.4019617" lon="9.8887867"><ele>70.0</ele><time>2026-05-01T12:35:25.731Z</time></trkpt><trkpt lat="45.40205" lon="9.88882"><ele>70.0</ele><time>2026-05-01T12:35:27.731Z</time></trkpt><trkpt lat="45.40214" lon="9.888835"><ele>70.0</ele><time>2026-05-01T12:35:29.731Z</time></trkpt><trkpt lat="45.4022283" lon="9.8888383"><ele>70.0</ele><time>2026-05-01T12:35:31.731Z</time></trkpt><trkpt lat="45.4023033" lon="9.8888417"><ele>70.16666666666666</ele><time>2026-05-01T12:35:33.731Z</time></trkpt><trkpt lat="45.402365" lon="9.888885"><ele>70.33333333333333</ele><time>2026-05-01T12:35:35.731Z</time></trkpt><trkpt lat="45.4024017" lon="9.8889767"><ele>70.5</ele><time>2026-05-01T12:35:37.731Z</time></trkpt><trkpt lat="45.402405" lon="9.889085"><ele>70.66666666666667</ele><time>2026-05-01T12:35:39.731Z</time></trkpt><trkpt lat="45.402405" lon="9.8891967"><ele>70.83333333333334</ele><time>2026-05-01T12:35:41.731Z</time></trkpt><trkpt lat="45.4023983" lon="9.88931"><ele>71.0</ele><time>2026-05-01T12:35:43.731Z</time></trkpt><trkpt lat="45.4023867" lon="9.8894217"><ele>70.5</ele><time>2026-05-01T12:35:45.731Z</time></trkpt><trkpt lat="45.4023567" lon="9.8895333"><ele>70.0</ele><time>2026-05-01T12:35:47.731Z</time></trkpt><trkpt lat="45.4023517" lon="9.8896567"><ele>69.5</ele><time>2026-05-01T12:35:50.731Z</time></trkpt><trkpt lat="45.4024217" lon="9.88968"><ele>69.0</ele><time>2026-05-01T12:35:53.731Z</time></trkpt><trkpt lat="45.40249" lon="9.88968"><ele>68.5</ele><time>2026-05-01T12:35:55.731Z</time></trkpt><trkpt lat="45.40256" lon="9.8896733"><ele>68.0</ele><time>2026-05-01T12:35:57.731Z</time></trkpt><trkpt lat="45.4026333" lon="9.889665"><ele>68.0</ele><time>2026-05-01T12:35:59.731Z</time></trkpt><trkpt lat="45.4027217" lon="9.88967"><ele>68.0</ele><time>2026-05-01T12:36:01.731Z</time></trkpt><trkpt lat="45.4028017" lon="9.88967"><ele>68.0</ele><time>2026-05-01T12:36:03.731Z</time></trkpt><trkpt lat="45.4028883" lon="9.8896733"><ele>68.0</ele><time>2026-05-01T12:36:05.731Z</time></trkpt><trkpt lat="45.402985" lon="9.8896683"><ele>68.0</ele><time>2026-05-01T12:36:07.731Z</time></trkpt><trkpt lat="45.403085" lon="9.8896733"><ele>68.4</ele><time>2026-05-01T12:36:09.731Z</time></trkpt><trkpt lat="45.4031817" lon="9.8896833"><ele>68.8</ele><time>2026-05-01T12:36:11.731Z</time></trkpt><trkpt lat="45.4032817" lon="9.8896883"><ele>69.2</ele><time>2026-05-01T12:36:13.731Z</time></trkpt><trkpt lat="45.4033867" lon="9.8896933"><ele>69.6</ele><time>2026-05-01T12:36:15.731Z</time></trkpt><trkpt lat="45.4034933" lon="9.8896967"><ele>70.0</ele><time>2026-05-01T12:36:17.731Z</time></trkpt><trkpt lat="45.403605" lon="9.8896983"><ele>70.0</ele><time>2026-05-01T12:36:19.731Z</time></trkpt><trkpt lat="45.403705" lon="9.8897"><ele>70.0</ele><time>2026-05-01T12:36:21.731Z</time></trkpt><trkpt lat="45.40379" lon="9.8897067"><ele>70.0</ele><time>2026-05-01T12:36:23.731Z</time></trkpt><trkpt lat="45.403855" lon="9.8897083"><ele>70.0</ele><time>2026-05-01T12:36:25.731Z</time></trkpt><trkpt lat="45.4039333" lon="9.8897067"><ele>70.0</ele><time>2026-05-01T12:36:28.731Z</time></trkpt><trkpt lat="45.404005" lon="9.8897283"><ele>70.0</ele><time>2026-05-01T12:36:30.731Z</time></trkpt><trkpt lat="45.4040817" lon="9.889765"><ele>69.8</ele><time>2026-05-01T12:36:32.731Z</time></trkpt><trkpt lat="45.4041733" lon="9.8897833"><ele>69.6</ele><time>2026-05-01T12:36:34.731Z</time></trkpt><trkpt lat="45.40427" lon="9.8897817"><ele>69.4</ele><time>2026-05-01T12:36:36.731Z</time></trkpt><trkpt lat="45.4043617" lon="9.8898083"><ele>69.2</ele><time>2026-05-01T12:36:38.731Z</time></trkpt><trkpt lat="45.404455" lon="9.8898117"><ele>69.0</ele><time>2026-05-01T12:36:40.731Z</time></trkpt><trkpt lat="45.4045433" lon="9.88983"><ele>69.0</ele><time>2026-05-01T12:36:42.731Z</time></trkpt><trkpt lat="45.40464" lon="9.88983"><ele>69.0</ele><time>2026-05-01T12:36:44.731Z</time></trkpt><trkpt lat="45.40474" lon="9.889835"><ele>69.0</ele><time>2026-05-01T12:36:46.731Z</time></trkpt><trkpt lat="45.4048183" lon="9.889845"><ele>69.0</ele><time>2026-05-01T12:36:48.731Z</time></trkpt><trkpt lat="45.404885" lon="9.8898567"><ele>69.0</ele><time>2026-05-01T12:36:53.731Z</time></trkpt><trkpt lat="45.4049567" lon="9.88988"><ele>69.0</ele><time>2026-05-01T12:36:57.731Z</time></trkpt><trkpt lat="45.4050217" lon="9.8899067"><ele>68.8</ele><time>2026-05-01T12:36:59.731Z</time></trkpt><trkpt lat="45.4050983" lon="9.889915"><ele>68.60000000000001</ele><time>2026-05-01T12:37:01.731Z</time></trkpt><trkpt lat="45.4051833" lon="9.8899167"><ele>68.4</ele><time>2026-05-01T12:37:03.731Z</time></trkpt><trkpt lat="45.4052833" lon="9.88994"><ele>68.2</ele><time>2026-05-01T12:37:05.731Z</time></trkpt><trkpt lat="45.40539" lon="9.8899533"><ele>68.0</ele><time>2026-05-01T12:37:07.731Z</time></trkpt><trkpt lat="45.40549" lon="9.889965"><ele>68.2</ele><time>2026-05-01T12:37:09.731Z</time></trkpt><trkpt lat="45.4055933" lon="9.8899617"><ele>68.4</ele><time>2026-05-01T12:37:11.731Z</time></trkpt><trkpt lat="45.405695" lon="9.8899583"><ele>68.60000000000001</ele><time>2026-05-01T12:37:13.731Z</time></trkpt><trkpt lat="45.4057983" lon="9.8899467"><ele>68.8</ele><time>2026-05-01T12:37:15.731Z</time></trkpt><trkpt lat="45.405895" lon="9.8899383"><ele>69.0</ele><time>2026-05-01T12:37:17.731Z</time></trkpt><trkpt lat="45.405975" lon="9.8899517"><ele>69.0</ele><time>2026-05-01T12:37:19.731Z</time></trkpt><trkpt lat="45.4060417" lon="9.8899967"><ele>69.0</ele><time>2026-05-01T12:37:22.731Z</time></trkpt><trkpt lat="45.4061067" lon="9.8900167"><ele>69.0</ele><time>2026-05-01T12:37:26.731Z</time></trkpt><trkpt lat="45.40619" lon="9.889975"><ele>69.0</ele><time>2026-05-01T12:37:29.731Z</time></trkpt><trkpt lat="45.4062467" lon="9.88993"><ele>69.0</ele><time>2026-05-01T12:37:31.732Z</time></trkpt><trkpt lat="45.406335" lon="9.8898983"><ele>69.0</ele><time>2026-05-01T12:37:34.731Z</time></trkpt><trkpt lat="45.4064083" lon="9.8899483"><ele>69.0</ele><time>2026-05-01T12:37:37.731Z</time></trkpt><trkpt lat="45.4064683" lon="9.88999"><ele>69.0</ele><time>2026-05-01T12:37:40.731Z</time></trkpt><trkpt lat="45.4065367" lon="9.8900183"><ele>69.0</ele><time>2026-05-01T12:37:42.731Z</time></trkpt><trkpt lat="45.4066017" lon="9.89003"><ele>69.0</ele><time>2026-05-01T12:37:44.732Z</time></trkpt><trkpt lat="45.4066783" lon="9.8900333"><ele>69.0</ele><time>2026-05-01T12:37:46.731Z</time></trkpt><trkpt lat="45.40679" lon="9.8900783"><ele>69.0</ele><time>2026-05-01T12:37:48.731Z</time></trkpt><trkpt lat="45.406895" lon="9.8901133"><ele>69.0</ele><time>2026-05-01T12:37:50.731Z</time></trkpt><trkpt lat="45.40699" lon="9.89017"><ele>69.0</ele><time>2026-05-01T12:37:52.731Z</time></trkpt><trkpt lat="45.40708" lon="9.8902317"><ele>69.0</ele><time>2026-05-01T12:37:54.731Z</time></trkpt><trkpt lat="45.4071717" lon="9.890285"><ele>69.0</ele><time>2026-05-01T12:37:56.731Z</time></trkpt><trkpt lat="45.4072417" lon="9.8903467"><ele>69.0</ele><time>2026-05-01T12:37:58.731Z</time></trkpt><trkpt lat="45.4073083" lon="9.890425"><ele>69.2</ele><time>2026-05-01T12:38:00.731Z</time></trkpt><trkpt lat="45.4073917" lon="9.8904917"><ele>69.4</ele><time>2026-05-01T12:38:02.731Z</time></trkpt><trkpt lat="45.4074433" lon="9.8906033"><ele>69.6</ele><time>2026-05-01T12:38:04.731Z</time></trkpt><trkpt lat="45.40749" lon="9.89074"><ele>69.8</ele><time>2026-05-01T12:38:06.731Z</time></trkpt><trkpt lat="45.4075483" lon="9.8908767"><ele>70.0</ele><time>2026-05-01T12:38:08.731Z</time></trkpt><trkpt lat="45.40761" lon="9.8910067"><ele>70.0</ele><time>2026-05-01T12:38:10.731Z</time></trkpt><trkpt lat="45.4076783" lon="9.8911033"><ele>70.0</ele><time>2026-05-01T12:38:12.731Z</time></trkpt><trkpt lat="45.4077333" lon="9.8912067"><ele>70.0</ele><time>2026-05-01T12:38:14.731Z</time></trkpt><trkpt lat="45.4077733" lon="9.8913233"><ele>70.0</ele><time>2026-05-01T12:38:16.731Z</time></trkpt><trkpt lat="45.40781" lon="9.89144"><ele>70.0</ele><time>2026-05-01T12:38:18.731Z</time></trkpt><trkpt lat="45.40786" lon="9.8915633"><ele>70.0</ele><time>2026-05-01T12:38:20.731Z</time></trkpt><trkpt lat="45.4079233" lon="9.8917033"><ele>70.0</ele><time>2026-05-01T12:38:22.731Z</time></trkpt><trkpt lat="45.4079567" lon="9.8918383"><ele>70.0</ele><time>2026-05-01T12:38:24.731Z</time></trkpt><trkpt lat="45.4079867" lon="9.89197"><ele>70.0</ele><time>2026-05-01T12:38:26.731Z</time></trkpt><trkpt lat="45.4080333" lon="9.8921133"><ele>70.0</ele><time>2026-05-01T12:38:28.731Z</time></trkpt><trkpt lat="45.4080817" lon="9.892255"><ele>69.6</ele><time>2026-05-01T12:38:30.731Z</time></trkpt><trkpt lat="45.40812" lon="9.8924167"><ele>69.2</ele><time>2026-05-01T12:38:32.731Z</time></trkpt><trkpt lat="45.408125" lon="9.8925083"><ele>68.8</ele><time>2026-05-01T12:38:33.731Z</time></trkpt><trkpt lat="45.4081317" lon="9.8925983"><ele>68.4</ele><time>2026-05-01T12:38:34.731Z</time></trkpt><trkpt lat="45.4081817" lon="9.89276"><ele>68.0</ele><time>2026-05-01T12:38:36.731Z</time></trkpt><trkpt lat="45.4082633" lon="9.8928717"><ele>68.0</ele><time>2026-05-01T12:38:38.731Z</time></trkpt><trkpt lat="45.4083717" lon="9.8929033"><ele>68.0</ele><time>2026-05-01T12:38:40.731Z</time></trkpt><trkpt lat="45.4084833" lon="9.8929267"><ele>68.0</ele><time>2026-05-01T12:38:42.731Z</time></trkpt><trkpt lat="45.4085867" lon="9.8929517"><ele>68.0</ele><time>2026-05-01T12:38:44.731Z</time></trkpt><trkpt lat="45.40869" lon="9.8929433"><ele>68.0</ele><time>2026-05-01T12:38:46.73Z</time></trkpt><trkpt lat="45.4088017" lon="9.8929317"><ele>68.8</ele><time>2026-05-01T12:38:48.73Z</time></trkpt><trkpt lat="45.4089217" lon="9.8928967"><ele>69.6</ele><time>2026-05-01T12:38:50.73Z</time></trkpt><trkpt lat="45.40905" lon="9.8928333"><ele>70.4</ele><time>2026-05-01T12:38:52.73Z</time></trkpt><trkpt lat="45.4091117" lon="9.8927983"><ele>71.2</ele><time>2026-05-01T12:38:53.73Z</time></trkpt><trkpt lat="45.4092267" lon="9.89275"><ele>72.0</ele><time>2026-05-01T12:38:55.73Z</time></trkpt><trkpt lat="45.40934" lon="9.8927117"><ele>72.0</ele><time>2026-05-01T12:38:57.73Z</time></trkpt><trkpt lat="45.409445" lon="9.8926767"><ele>72.0</ele><time>2026-05-01T12:38:59.73Z</time></trkpt><trkpt lat="45.4095383" lon="9.8926183"><ele>72.0</ele><time>2026-05-01T12:39:01.73Z</time></trkpt><trkpt lat="45.4096183" lon="9.8925483"><ele>72.0</ele><time>2026-05-01T12:39:03.73Z</time></trkpt><trkpt lat="45.4096767" lon="9.8924383"><ele>72.0</ele><time>2026-05-01T12:39:05.73Z</time></trkpt><trkpt lat="45.4097233" lon="9.8923133"><ele>71.6</ele><time>2026-05-01T12:39:07.73Z</time></trkpt><trkpt lat="45.4097733" lon="9.892195"><ele>71.2</ele><time>2026-05-01T12:39:09.73Z</time></trkpt><trkpt lat="45.4098217" lon="9.8920517"><ele>70.8</ele><time>2026-05-01T12:39:11.731Z</time></trkpt><trkpt lat="45.4098683" lon="9.89192"><ele>70.4</ele><time>2026-05-01T12:39:13.73Z</time></trkpt><trkpt lat="45.4099267" lon="9.8917933"><ele>70.0</ele><time>2026-05-01T12:39:15.73Z</time></trkpt><trkpt lat="45.4099833" lon="9.89166"><ele>69.8</ele><time>2026-05-01T12:39:17.73Z</time></trkpt><trkpt lat="45.4100417" lon="9.8915317"><ele>69.6</ele><time>2026-05-01T12:39:19.73Z</time></trkpt><trkpt lat="45.4100983" lon="9.89141"><ele>69.4</ele><time>2026-05-01T12:39:21.73Z</time></trkpt><trkpt lat="45.4101633" lon="9.8912917"><ele>69.2</ele><time>2026-05-01T12:39:23.73Z</time></trkpt><trkpt lat="45.41023" lon="9.8911633"><ele>69.0</ele><time>2026-05-01T12:39:25.73Z</time></trkpt><trkpt lat="45.4103033" lon="9.8910383"><ele>69.0</ele><time>2026-05-01T12:39:27.73Z</time></trkpt><trkpt lat="45.4103917" lon="9.890935"><ele>69.0</ele><time>2026-05-01T12:39:29.73Z</time></trkpt><trkpt lat="45.410445" lon="9.89088"><ele>69.0</ele><time>2026-05-01T12:39:30.73Z</time></trkpt><trkpt lat="45.4105483" lon="9.89077"><ele>69.0</ele><time>2026-05-01T12:39:32.73Z</time></trkpt><trkpt lat="45.410605" lon="9.89073"><ele>69.0</ele><time>2026-05-01T12:39:33.73Z</time></trkpt><trkpt lat="45.41066" lon="9.8906767"><ele>69.0</ele><time>2026-05-01T12:39:34.73Z</time></trkpt><trkpt lat="45.410715" lon="9.89062"><ele>69.28571428571429</ele><time>2026-05-01T12:39:35.73Z</time></trkpt><trkpt lat="45.4107717" lon="9.89057"><ele>69.57142857142858</ele><time>2026-05-01T12:39:36.731Z</time></trkpt><trkpt lat="45.41083" lon="9.8905283"><ele>69.85714285714286</ele><time>2026-05-01T12:39:37.73Z</time></trkpt><trkpt lat="45.4108883" lon="9.89049"><ele>70.14285714285714</ele><time>2026-05-01T12:39:38.73Z</time></trkpt><trkpt lat="45.4109467" lon="9.8904517"><ele>70.42857142857142</ele><time>2026-05-01T12:39:39.73Z</time></trkpt><trkpt lat="45.4110117" lon="9.8904183"><ele>70.71428571428571</ele><time>2026-05-01T12:39:40.73Z</time></trkpt><trkpt lat="45.411075" lon="9.8904"><ele>71.0</ele><time>2026-05-01T12:39:41.73Z</time></trkpt><trkpt lat="45.4111367" lon="9.89038"><ele>71.0</ele><time>2026-05-01T12:39:42.73Z</time></trkpt><trkpt lat="45.4112033" lon="9.8903683"><ele>71.0</ele><time>2026-05-01T12:39:43.73Z</time></trkpt><trkpt lat="45.4112667" lon="9.890345"><ele>71.0</ele><time>2026-05-01T12:39:44.73Z</time></trkpt><trkpt lat="45.4113333" lon="9.89033"><ele>71.0</ele><time>2026-05-01T12:39:45.73Z</time></trkpt><trkpt lat="45.4114033" lon="9.890335"><ele>71.0</ele><time>2026-05-01T12:39:46.73Z</time></trkpt><trkpt lat="45.4114733" lon="9.8903183"><ele>71.0</ele><time>2026-05-01T12:39:47.73Z</time></trkpt><trkpt lat="45.4115417" lon="9.8903"><ele>71.0</ele><time>2026-05-01T12:39:48.73Z</time></trkpt><trkpt lat="45.4116133" lon="9.8902833"><ele>71.0</ele><time>2026-05-01T12:39:49.73Z</time></trkpt><trkpt lat="45.411685" lon="9.8902767"><ele>71.0</ele><time>2026-05-01T12:39:50.73Z</time></trkpt><trkpt lat="45.4117533" lon="9.8902633"><ele>71.0</ele><time>2026-05-01T12:39:51.73Z</time></trkpt><trkpt lat="45.4118283" lon="9.8902583"><ele>71.0</ele><time>2026-05-01T12:39:52.73Z</time></trkpt><trkpt lat="45.4119" lon="9.890225"><ele>71.0</ele><time>2026-05-01T12:39:53.73Z</time></trkpt><trkpt lat="45.411955" lon="9.8901683"><ele>71.0</ele><time>2026-05-01T12:39:54.731Z</time></trkpt><trkpt lat="45.4120067" lon="9.8901"><ele>71.0</ele><time>2026-05-01T12:39:55.73Z</time></trkpt><trkpt lat="45.41206" lon="9.89003"><ele>71.0</ele><time>2026-05-01T12:39:56.73Z</time></trkpt><trkpt lat="45.4121133" lon="9.88996"><ele>71.0</ele><time>2026-05-01T12:39:57.731Z</time></trkpt><trkpt lat="45.4121683" lon="9.8899033"><ele>71.0</ele><time>2026-05-01T12:39:58.73Z</time></trkpt><trkpt lat="45.4122233" lon="9.889845"><ele>71.0</ele><time>2026-05-01T12:39:59.73Z</time></trkpt><trkpt lat="45.4122817" lon="9.889785"><ele>71.0</ele><time>2026-05-01T12:40:00.73Z</time></trkpt><trkpt lat="45.4123417" lon="9.889725"><ele>71.0</ele><time>2026-05-01T12:40:01.73Z</time></trkpt><trkpt lat="45.4124017" lon="9.88967"><ele>71.0</ele><time>2026-05-01T12:40:02.73Z</time></trkpt><trkpt lat="45.4124633" lon="9.88961"><ele>71.0</ele><time>2026-05-01T12:40:03.73Z</time></trkpt><trkpt lat="45.4125217" lon="9.88955"><ele>71.0</ele><time>2026-05-01T12:40:04.73Z</time></trkpt><trkpt lat="45.41258" lon="9.889495"><ele>71.0</ele><time>2026-05-01T12:40:05.73Z</time></trkpt><trkpt lat="45.41264" lon="9.8894483"><ele>71.0</ele><time>2026-05-01T12:40:06.73Z</time></trkpt><trkpt lat="45.4127017" lon="9.889405"><ele>71.0</ele><time>2026-05-01T12:40:07.73Z</time></trkpt><trkpt lat="45.4127633" lon="9.8893633"><ele>71.0</ele><time>2026-05-01T12:40:08.73Z</time></trkpt><trkpt lat="45.41283" lon="9.8893417"><ele>71.0</ele><time>2026-05-01T12:40:09.73Z</time></trkpt><trkpt lat="45.412895" lon="9.889305"><ele>71.16666666666667</ele><time>2026-05-01T12:40:10.73Z</time></trkpt><trkpt lat="45.412965" lon="9.889255"><ele>71.33333333333334</ele><time>2026-05-01T12:40:11.73Z</time></trkpt><trkpt lat="45.413035" lon="9.8892083"><ele>71.5</ele><time>2026-05-01T12:40:12.73Z</time></trkpt><trkpt lat="45.413105" lon="9.8891733"><ele>71.66666666666667</ele><time>2026-05-01T12:40:13.73Z</time></trkpt><trkpt lat="45.413175" lon="9.8891567"><ele>71.83333333333333</ele><time>2026-05-01T12:40:14.731Z</time></trkpt><trkpt lat="45.4132567" lon="9.8891567"><ele>72.0</ele><time>2026-05-01T12:40:15.73Z</time></trkpt><trkpt lat="45.4133283" lon="9.8891517"><ele>72.0</ele><time>2026-05-01T12:40:16.73Z</time></trkpt><trkpt lat="45.4133983" lon="9.88914"><ele>72.0</ele><time>2026-05-01T12:40:17.73Z</time></trkpt><trkpt lat="45.4134633" lon="9.8891233"><ele>72.0</ele><time>2026-05-01T12:40:18.73Z</time></trkpt><trkpt lat="45.4135267" lon="9.8890817"><ele>72.0</ele><time>2026-05-01T12:40:19.731Z</time></trkpt><trkpt lat="45.4135733" lon="9.8890183"><ele>72.0</ele><time>2026-05-01T12:40:20.73Z</time></trkpt><trkpt lat="45.4136517" lon="9.8889033"><ele>72.0</ele><time>2026-05-01T12:40:22.73Z</time></trkpt><trkpt lat="45.4137367" lon="9.88883"><ele>72.4</ele><time>2026-05-01T12:40:24.73Z</time></trkpt><trkpt lat="45.4138367" lon="9.8888033"><ele>72.80000000000001</ele><time>2026-05-01T12:40:26.73Z</time></trkpt><trkpt lat="45.4139517" lon="9.8888067"><ele>73.2</ele><time>2026-05-01T12:40:28.73Z</time></trkpt><trkpt lat="45.4140683" lon="9.88879"><ele>73.60000000000001</ele><time>2026-05-01T12:40:30.731Z</time></trkpt><trkpt lat="45.4141833" lon="9.88879"><ele>74.0</ele><time>2026-05-01T12:40:32.73Z</time></trkpt><trkpt lat="45.4142933" lon="9.8887733"><ele>74.0</ele><time>2026-05-01T12:40:34.731Z</time></trkpt><trkpt lat="45.4143567" lon="9.888765"><ele>74.0</ele><time>2026-05-01T12:40:35.73Z</time></trkpt><trkpt lat="45.4144783" lon="9.88877"><ele>74.0</ele><time>2026-05-01T12:40:37.73Z</time></trkpt><trkpt lat="45.4145983" lon="9.8888"><ele>74.0</ele><time>2026-05-01T12:40:39.73Z</time></trkpt><trkpt lat="45.4147133" lon="9.8888317"><ele>74.0</ele><time>2026-05-01T12:40:41.73Z</time></trkpt><trkpt lat="45.41483" lon="9.8888667"><ele>73.60000000000001</ele><time>2026-05-01T12:40:43.73Z</time></trkpt><trkpt lat="45.4148933" lon="9.8888783"><ele>73.2</ele><time>2026-05-01T12:40:44.73Z</time></trkpt><trkpt lat="45.4150183" lon="9.8889083"><ele>72.80000000000001</ele><time>2026-05-01T12:40:46.731Z</time></trkpt><trkpt lat="45.4150833" lon="9.8889233"><ele>72.4</ele><time>2026-05-01T12:40:47.73Z</time></trkpt><trkpt lat="45.4152033" lon="9.888955"><ele>72.0</ele><time>2026-05-01T12:40:49.73Z</time></trkpt><trkpt lat="45.4153167" lon="9.888985"><ele>72.0</ele><time>2026-05-01T12:40:51.73Z</time></trkpt><trkpt lat="45.4154283" lon="9.8890317"><ele>72.0</ele><time>2026-05-01T12:40:53.73Z</time></trkpt><trkpt lat="45.41553" lon="9.8890783"><ele>72.0</ele><time>2026-05-01T12:40:55.731Z</time></trkpt><trkpt lat="45.4156433" lon="9.8891017"><ele>72.0</ele><time>2026-05-01T12:40:57.73Z</time></trkpt><trkpt lat="45.4157517" lon="9.8891333"><ele>72.0</ele><time>2026-05-01T12:40:59.731Z</time></trkpt><trkpt lat="45.4158767" lon="9.889185"><ele>72.0</ele><time>2026-05-01T12:41:01.73Z</time></trkpt><trkpt lat="45.4159417" lon="9.8892117"><ele>72.0</ele><time>2026-05-01T12:41:02.73Z</time></trkpt><trkpt lat="45.4160517" lon="9.88926"><ele>72.0</ele><time>2026-05-01T12:41:04.73Z</time></trkpt><trkpt lat="45.41616" lon="9.8893217"><ele>72.0</ele><time>2026-05-01T12:41:06.73Z</time></trkpt><trkpt lat="45.41627" lon="9.8893833"><ele>72.0</ele><time>2026-05-01T12:41:08.73Z</time></trkpt><trkpt lat="45.4163333" lon="9.88942"><ele>72.42857142857143</ele><time>2026-05-01T12:41:09.73Z</time></trkpt><trkpt lat="45.416395" lon="9.8894433"><ele>72.85714285714286</ele><time>2026-05-01T12:41:10.73Z</time></trkpt><trkpt lat="45.4164533" lon="9.8894833"><ele>73.28571428571428</ele><time>2026-05-01T12:41:11.73Z</time></trkpt><trkpt lat="45.4165183" lon="9.88952"><ele>73.71428571428572</ele><time>2026-05-01T12:41:12.73Z</time></trkpt><trkpt lat="45.4165783" lon="9.889555"><ele>74.14285714285714</ele><time>2026-05-01T12:41:13.73Z</time></trkpt><trkpt lat="45.4166383" lon="9.8895933"><ele>74.57142857142857</ele><time>2026-05-01T12:41:14.731Z</time></trkpt><trkpt lat="45.4166967" lon="9.8896317"><ele>75.0</ele><time>2026-05-01T12:41:15.73Z</time></trkpt><trkpt lat="45.4168067" lon="9.88971"><ele>75.0</ele><time>2026-05-01T12:41:17.73Z</time></trkpt><trkpt lat="45.4168667" lon="9.889755"><ele>75.0</ele><time>2026-05-01T12:41:18.73Z</time></trkpt><trkpt lat="45.4169283" lon="9.8898017"><ele>75.0</ele><time>2026-05-01T12:41:19.73Z</time></trkpt><trkpt lat="45.41699" lon="9.8898467"><ele>75.0</ele><time>2026-05-01T12:41:20.73Z</time></trkpt><trkpt lat="45.4170467" lon="9.8898917"><ele>75.0</ele><time>2026-05-01T12:41:21.73Z</time></trkpt><trkpt lat="45.4171517" lon="9.8899817"><ele>75.0</ele><time>2026-05-01T12:41:23.73Z</time></trkpt><trkpt lat="45.4172483" lon="9.8901067"><ele>74.75</ele><time>2026-05-01T12:41:25.73Z</time></trkpt><trkpt lat="45.4173433" lon="9.89021"><ele>74.5</ele><time>2026-05-01T12:41:27.73Z</time></trkpt><trkpt lat="45.4174517" lon="9.8902517"><ele>74.25</ele><time>2026-05-01T12:41:29.73Z</time></trkpt><trkpt lat="45.4175583" lon="9.8902917"><ele>74.0</ele><time>2026-05-01T12:41:31.73Z</time></trkpt><trkpt lat="45.417605" lon="9.89044"><ele>74.0</ele><time>2026-05-01T12:41:33.73Z</time></trkpt><trkpt lat="45.4176678" lon="9.8905827"><ele>74.0</ele><time>2026-05-01T12:41:35.73Z</time></trkpt><trkpt lat="45.4177264" lon="9.8906262"><ele>74.0</ele><time>2026-05-01T12:41:36.73Z</time></trkpt><trkpt lat="45.4177983" lon="9.890657"><ele>74.0</ele><time>2026-05-01T12:41:37.73Z</time></trkpt><trkpt lat="45.4178746" lon="9.890684"><ele>74.0</ele><time>2026-05-01T12:41:38.73Z</time></trkpt><trkpt lat="45.417947" lon="9.8907301"><ele>74.0</ele><time>2026-05-01T12:41:39.73Z</time></trkpt><trkpt lat="45.4180124" lon="9.8907765"><ele>74.0</ele><time>2026-05-01T12:41:40.73Z</time></trkpt><trkpt lat="45.4180714" lon="9.8908263"><ele>74.0</ele><time>2026-05-01T12:41:41.73Z</time></trkpt><trkpt lat="45.4181296" lon="9.8908757"><ele>74.0</ele><time>2026-05-01T12:41:42.73Z</time></trkpt><trkpt lat="45.4181881" lon="9.8909198"><ele>74.0</ele><time>2026-05-01T12:41:43.73Z</time></trkpt><trkpt lat="45.4182918" lon="9.8910061"><ele>74.0</ele><time>2026-05-01T12:41:45.73Z</time></trkpt><trkpt lat="45.4183851" lon="9.8911101"><ele>74.0</ele><time>2026-05-01T12:41:47.73Z</time></trkpt><trkpt lat="45.4184711" lon="9.8912204"><ele>74.0</ele><time>2026-05-01T12:41:49.73Z</time></trkpt><trkpt lat="45.4185392" lon="9.8913146"><ele>74.0</ele><time>2026-05-01T12:41:51.73Z</time></trkpt><trkpt lat="45.418603" lon="9.8914074"><ele>74.0</ele><time>2026-05-01T12:41:53.73Z</time></trkpt><trkpt lat="45.4186593" lon="9.8915132"><ele>74.0</ele><time>2026-05-01T12:41:55.73Z</time></trkpt><trkpt lat="45.4187211" lon="9.891614"><ele>74.0</ele><time>2026-05-01T12:41:57.73Z</time></trkpt><trkpt lat="45.4187678" lon="9.8917377"><ele>73.60000000000001</ele><time>2026-05-01T12:41:59.73Z</time></trkpt><trkpt lat="45.4188201" lon="9.8919009"><ele>73.2</ele><time>2026-05-01T12:42:01.73Z</time></trkpt><trkpt lat="45.4188706" lon="9.8919804"><ele>72.80000000000001</ele><time>2026-05-01T12:42:02.73Z</time></trkpt><trkpt lat="45.4189268" lon="9.8920403"><ele>72.4</ele><time>2026-05-01T12:42:03.73Z</time></trkpt><trkpt lat="45.4189864" lon="9.8920833"><ele>72.0</ele><time>2026-05-01T12:42:04.73Z</time></trkpt><trkpt lat="45.4191003" lon="9.8921151"><ele>72.0</ele><time>2026-05-01T12:42:06.73Z</time></trkpt><trkpt lat="45.4192" lon="9.8920517"><ele>72.0</ele><time>2026-05-01T12:42:08.73Z</time></trkpt><trkpt lat="45.41925" lon="9.8919917"><ele>72.0</ele><time>2026-05-01T12:42:09.73Z</time></trkpt><trkpt lat="45.4193567" lon="9.8919217"><ele>72.0</ele><time>2026-05-01T12:42:11.73Z</time></trkpt><trkpt lat="45.4194567" lon="9.8919583"><ele>72.0</ele><time>2026-05-01T12:42:13.73Z</time></trkpt><trkpt lat="45.4195417" lon="9.8919083"><ele>72.0</ele><time>2026-05-01T12:42:15.73Z</time></trkpt><trkpt lat="45.4196033" lon="9.8917967"><ele>72.0</ele><time>2026-05-01T12:42:17.73Z</time></trkpt><trkpt lat="45.4196533" lon="9.891715"><ele>72.0</ele><time>2026-05-01T12:42:19.73Z</time></trkpt><trkpt lat="45.41971" lon="9.8916283"><ele>72.0</ele><time>2026-05-01T12:42:21.73Z</time></trkpt><trkpt lat="45.419805" lon="9.8916017"><ele>72.0</ele><time>2026-05-01T12:42:24.73Z</time></trkpt><trkpt lat="45.4198817" lon="9.8915867"><ele>72.0</ele><time>2026-05-01T12:42:26.73Z</time></trkpt><trkpt lat="45.41997" lon="9.8915917"><ele>72.4</ele><time>2026-05-01T12:42:28.73Z</time></trkpt><trkpt lat="45.420075" lon="9.891595"><ele>72.80000000000001</ele><time>2026-05-01T12:42:30.73Z</time></trkpt><trkpt lat="45.420175" lon="9.89152"><ele>73.2</ele><time>2026-05-01T12:42:32.729Z</time></trkpt><trkpt lat="45.4202633" lon="9.8914483"><ele>73.60000000000001</ele><time>2026-05-01T12:42:34.729Z</time></trkpt><trkpt lat="45.4203617" lon="9.891375"><ele>74.0</ele><time>2026-05-01T12:42:36.729Z</time></trkpt><trkpt lat="45.4204317" lon="9.8912917"><ele>74.0</ele><time>2026-05-01T12:42:38.729Z</time></trkpt><trkpt lat="45.4204817" lon="9.8911917"><ele>74.0</ele><time>2026-05-01T12:43:00.729Z</time></trkpt><trkpt lat="45.420525" lon="9.89108"><ele>74.0</ele><time>2026-05-01T12:43:04.729Z</time></trkpt><trkpt lat="45.4205767" lon="9.8909883"><ele>74.0</ele><time>2026-05-01T12:43:07.729Z</time></trkpt><trkpt lat="45.420625" lon="9.890895"><ele>74.0</ele><time>2026-05-01T12:43:09.729Z</time></trkpt><trkpt lat="45.4206833" lon="9.890805"><ele>74.0</ele><time>2026-05-01T12:43:11.729Z</time></trkpt><trkpt lat="45.42076" lon="9.89078"><ele>73.83333333333334</ele><time>2026-05-01T12:43:13.729Z</time></trkpt><trkpt lat="45.420825" lon="9.890745"><ele>73.66666666666667</ele><time>2026-05-01T12:43:15.729Z</time></trkpt><trkpt lat="45.4208783" lon="9.8906767"><ele>73.5</ele><time>2026-05-01T12:43:18.729Z</time></trkpt><trkpt lat="45.420825" lon="9.8907733"><ele>73.33333333333333</ele><time>2026-05-01T12:43:57.729Z</time></trkpt><trkpt lat="45.4207367" lon="9.8908"><ele>73.16666666666666</ele><time>2026-05-01T12:44:00.729Z</time></trkpt><trkpt lat="45.42082" lon="9.8907567"><ele>73.0</ele><time>2026-05-01T12:44:11.729Z</time></trkpt><trkpt lat="45.42088" lon="9.8907083"><ele>73.0</ele><time>2026-05-01T12:44:13.729Z</time></trkpt><trkpt lat="45.4209217" lon="9.8906117"><ele>73.0</ele><time>2026-05-01T12:44:15.729Z</time></trkpt><trkpt lat="45.4209717" lon="9.890515"><ele>73.0</ele><time>2026-05-01T12:44:17.729Z</time></trkpt><trkpt lat="45.4210383" lon="9.8904317"><ele>73.0</ele><time>2026-05-01T12:44:19.73Z</time></trkpt><trkpt lat="45.42113" lon="9.8903567"><ele>73.0</ele><time>2026-05-01T12:44:21.73Z</time></trkpt><trkpt lat="45.4212133" lon="9.8902667"><ele>73.0</ele><time>2026-05-01T12:44:23.729Z</time></trkpt><trkpt lat="45.4212667" lon="9.8901483"><ele>73.0</ele><time>2026-05-01T12:44:25.729Z</time></trkpt><trkpt lat="45.4213" lon="9.8900317"><ele>73.0</ele><time>2026-05-01T12:44:27.73Z</time></trkpt><trkpt lat="45.4213467" lon="9.8899083"><ele>73.0</ele><time>2026-05-01T12:44:29.729Z</time></trkpt><trkpt lat="45.421385" lon="9.88977"><ele>73.0</ele><time>2026-05-01T12:44:31.729Z</time></trkpt><trkpt lat="45.4214117" lon="9.889615"><ele>73.0</ele><time>2026-05-01T12:44:33.729Z</time></trkpt><trkpt lat="45.4214267" lon="9.8894583"><ele>73.0</ele><time>2026-05-01T12:44:35.73Z</time></trkpt><trkpt lat="45.4214417" lon="9.8892967"><ele>73.0</ele><time>2026-05-01T12:44:37.729Z</time></trkpt><trkpt lat="45.4214783" lon="9.8891267"><ele>73.0</ele><time>2026-05-01T12:44:39.729Z</time></trkpt><trkpt lat="45.4215217" lon="9.8889583"><ele>73.6</ele><time>2026-05-01T12:44:41.729Z</time></trkpt><trkpt lat="45.4215683" lon="9.88879"><ele>74.19999999999999</ele><time>2026-05-01T12:44:43.729Z</time></trkpt><trkpt lat="45.4215917" lon="9.888705"><ele>74.8</ele><time>2026-05-01T12:44:44.729Z</time></trkpt><trkpt lat="45.421635" lon="9.88856"><ele>75.39999999999999</ele><time>2026-05-01T12:44:46.729Z</time></trkpt><trkpt lat="45.421695" lon="9.8884617"><ele>76.0</ele><time>2026-05-01T12:44:48.729Z</time></trkpt><trkpt lat="45.4217567" lon="9.88836"><ele>76.0</ele><time>2026-05-01T12:44:50.729Z</time></trkpt><trkpt lat="45.4218117" lon="9.8882333"><ele>76.0</ele><time>2026-05-01T12:44:52.729Z</time></trkpt><trkpt lat="45.4218583" lon="9.888075"><ele>76.0</ele><time>2026-05-01T12:44:54.729Z</time></trkpt><trkpt lat="45.4218967" lon="9.887925"><ele>76.0</ele><time>2026-05-01T12:44:56.729Z</time></trkpt><trkpt lat="45.4219283" lon="9.8877733"><ele>76.0</ele><time>2026-05-01T12:44:58.729Z</time></trkpt><trkpt lat="45.4219617" lon="9.8876183"><ele>76.39999999999999</ele><time>2026-05-01T12:45:00.729Z</time></trkpt><trkpt lat="45.4220017" lon="9.887465"><ele>76.8</ele><time>2026-05-01T12:45:02.729Z</time></trkpt><trkpt lat="45.422045" lon="9.8873083"><ele>77.19999999999999</ele><time>2026-05-01T12:45:04.729Z</time></trkpt><trkpt lat="45.4220867" lon="9.8871433"><ele>77.6</ele><time>2026-05-01T12:45:06.729Z</time></trkpt><trkpt lat="45.4221067" lon="9.8870567"><ele>78.0</ele><time>2026-05-01T12:45:07.729Z</time></trkpt><trkpt lat="45.422125" lon="9.8869667"><ele>77.0</ele><time>2026-05-01T12:45:08.729Z</time></trkpt><trkpt lat="45.422165" lon="9.8867933"><ele>76.0</ele><time>2026-05-01T12:45:10.729Z</time></trkpt><trkpt lat="45.42222" lon="9.8866417"><ele>75.0</ele><time>2026-05-01T12:45:12.729Z</time></trkpt><trkpt lat="45.4222933" lon="9.88652"><ele>74.0</ele><time>2026-05-01T12:45:14.729Z</time></trkpt><trkpt lat="45.42235" lon="9.8863817"><ele>74.0</ele><time>2026-05-01T12:45:16.729Z</time></trkpt><trkpt lat="45.4223817" lon="9.8862317"><ele>74.0</ele><time>2026-05-01T12:45:18.729Z</time></trkpt><trkpt lat="45.4223733" lon="9.886075"><ele>74.0</ele><time>2026-05-01T12:45:20.729Z</time></trkpt><trkpt lat="45.4223717" lon="9.885935"><ele>74.0</ele><time>2026-05-01T12:45:22.729Z</time></trkpt><trkpt lat="45.422365" lon="9.8858017"><ele>74.0</ele><time>2026-05-01T12:45:24.729Z</time></trkpt><trkpt lat="45.42236" lon="9.8856767"><ele>74.14285714285714</ele><time>2026-05-01T12:45:26.729Z</time></trkpt><trkpt lat="45.4223583" lon="9.885565"><ele>74.28571428571428</ele><time>2026-05-01T12:45:28.729Z</time></trkpt><trkpt lat="45.422355" lon="9.88546"><ele>74.42857142857142</ele><time>2026-05-01T12:45:30.729Z</time></trkpt><trkpt lat="45.4223533" lon="9.8853583"><ele>74.57142857142857</ele><time>2026-05-01T12:45:32.729Z</time></trkpt><trkpt lat="45.4223567" lon="9.885255"><ele>74.71428571428571</ele><time>2026-05-01T12:45:34.73Z</time></trkpt><trkpt lat="45.422355" lon="9.8851483"><ele>74.85714285714285</ele><time>2026-05-01T12:45:36.729Z</time></trkpt><trkpt lat="45.422355" lon="9.8850433"><ele>75.0</ele><time>2026-05-01T12:45:38.729Z</time></trkpt><trkpt lat="45.4223533" lon="9.88494"><ele>75.28571428571428</ele><time>2026-05-01T12:45:40.729Z</time></trkpt><trkpt lat="45.4223483" lon="9.8848383"><ele>75.57142857142857</ele><time>2026-05-01T12:45:42.729Z</time></trkpt><trkpt lat="45.4223533" lon="9.8847483"><ele>75.85714285714286</ele><time>2026-05-01T12:45:44.729Z</time></trkpt><trkpt lat="45.4223483" lon="9.8846533"><ele>76.14285714285714</ele><time>2026-05-01T12:45:46.729Z</time></trkpt><trkpt lat="45.4223467" lon="9.88456"><ele>76.42857142857143</ele><time>2026-05-01T12:45:48.729Z</time></trkpt><trkpt lat="45.422345" lon="9.8844583"><ele>76.71428571428571</ele><time>2026-05-01T12:45:50.729Z</time></trkpt><trkpt lat="45.42234" lon="9.8843467"><ele>77.0</ele><time>2026-05-01T12:45:52.729Z</time></trkpt><trkpt lat="45.4223317" lon="9.88424"><ele>77.0</ele><time>2026-05-01T12:45:54.729Z</time></trkpt><trkpt lat="45.4223317" lon="9.8841233"><ele>77.0</ele><time>2026-05-01T12:45:56.729Z</time></trkpt><trkpt lat="45.4223267" lon="9.8840167"><ele>77.0</ele><time>2026-05-01T12:45:58.729Z</time></trkpt><trkpt lat="45.422325" lon="9.8839267"><ele>77.0</ele><time>2026-05-01T12:46:00.729Z</time></trkpt><trkpt lat="45.422325" lon="9.8838183"><ele>77.0</ele><time>2026-05-01T12:46:03.729Z</time></trkpt><trkpt lat="45.422315" lon="9.883705"><ele>77.0</ele><time>2026-05-01T12:46:07.729Z</time></trkpt><trkpt lat="45.4223733" lon="9.883605"><ele>77.0</ele><time>2026-05-01T12:46:12.729Z</time></trkpt><trkpt lat="45.4224517" lon="9.8835133"><ele>77.0</ele><time>2026-05-01T12:46:14.729Z</time></trkpt><trkpt lat="45.4225467" lon="9.883455"><ele>77.0</ele><time>2026-05-01T12:46:16.729Z</time></trkpt><trkpt lat="45.4226517" lon="9.8834267"><ele>77.0</ele><time>2026-05-01T12:46:18.729Z</time></trkpt><trkpt lat="45.4227667" lon="9.8834167"><ele>77.0</ele><time>2026-05-01T12:46:20.729Z</time></trkpt><trkpt lat="45.4228833" lon="9.8833767"><ele>77.66666666666667</ele><time>2026-05-01T12:46:22.729Z</time></trkpt><trkpt lat="45.4229883" lon="9.88332"><ele>78.33333333333334</ele><time>2026-05-01T12:46:24.729Z</time></trkpt><trkpt lat="45.423105" lon="9.88326"><ele>79.0</ele><time>2026-05-01T12:46:26.729Z</time></trkpt><trkpt lat="45.4231617" lon="9.88322"><ele>79.66666666666667</ele><time>2026-05-01T12:46:27.729Z</time></trkpt><trkpt lat="45.423225" lon="9.8831883"><ele>80.33333333333333</ele><time>2026-05-01T12:46:28.729Z</time></trkpt><trkpt lat="45.423285" lon="9.8831517"><ele>81.0</ele><time>2026-05-01T12:46:29.729Z</time></trkpt><trkpt lat="45.4233467" lon="9.8831117"><ele>81.0</ele><time>2026-05-01T12:46:30.729Z</time></trkpt><trkpt lat="45.423415" lon="9.8830767"><ele>81.0</ele><time>2026-05-01T12:46:31.728Z</time></trkpt><trkpt lat="45.42348" lon="9.8830367"><ele>81.0</ele><time>2026-05-01T12:46:32.728Z</time></trkpt><trkpt lat="45.4235417" lon="9.8829917"><ele>81.0</ele><time>2026-05-01T12:46:33.728Z</time></trkpt><trkpt lat="45.4236017" lon="9.8829433"><ele>81.0</ele><time>2026-05-01T12:46:34.728Z</time></trkpt><trkpt lat="45.42366" lon="9.8828967"><ele>81.0</ele><time>2026-05-01T12:46:35.728Z</time></trkpt><trkpt lat="45.4237617" lon="9.8828483"><ele>81.19999999999999</ele><time>2026-05-01T12:46:37.728Z</time></trkpt><trkpt lat="45.4238333" lon="9.88289"><ele>81.39999999999999</ele><time>2026-05-01T12:46:39.728Z</time></trkpt><trkpt lat="45.4239267" lon="9.8829133"><ele>81.6</ele><time>2026-05-01T12:46:41.728Z</time></trkpt><trkpt lat="45.4240267" lon="9.8829"><ele>81.8</ele><time>2026-05-01T12:46:43.728Z</time></trkpt><trkpt lat="45.4241217" lon="9.8828433"><ele>82.0</ele><time>2026-05-01T12:46:45.728Z</time></trkpt><trkpt lat="45.4241967" lon="9.882835"><ele>82.0</ele><time>2026-05-01T12:46:47.728Z</time></trkpt><trkpt lat="45.4242683" lon="9.8828467"><ele>82.0</ele><time>2026-05-01T12:46:49.728Z</time></trkpt><trkpt lat="45.42436" lon="9.8828317"><ele>82.0</ele><time>2026-05-01T12:46:51.728Z</time></trkpt><trkpt lat="45.424455" lon="9.8828067"><ele>82.0</ele><time>2026-05-01T12:46:53.728Z</time></trkpt><trkpt lat="45.4245683" lon="9.88281"><ele>82.0</ele><time>2026-05-01T12:46:55.728Z</time></trkpt><trkpt lat="45.4246317" lon="9.8828183"><ele>82.0</ele><time>2026-05-01T12:46:56.728Z</time></trkpt><trkpt lat="45.424695" lon="9.8828367"><ele>81.33333333333333</ele><time>2026-05-01T12:46:57.728Z</time></trkpt><trkpt lat="45.424805" lon="9.8828967"><ele>80.66666666666666</ele><time>2026-05-01T12:46:59.728Z</time></trkpt><trkpt lat="45.4249017" lon="9.88296"><ele>80.0</ele><time>2026-05-01T12:47:01.728Z</time></trkpt><trkpt lat="45.4249533" lon="9.8830267"><ele>79.33333333333333</ele><time>2026-05-01T12:47:02.728Z</time></trkpt><trkpt lat="45.4250083" lon="9.88311"><ele>78.66666666666667</ele><time>2026-05-01T12:47:03.728Z</time></trkpt><trkpt lat="45.4250483" lon="9.8831867"><ele>78.0</ele><time>2026-05-01T12:47:04.728Z</time></trkpt><trkpt lat="45.425115" lon="9.8833333"><ele>78.0</ele><time>2026-05-01T12:47:06.728Z</time></trkpt><trkpt lat="45.42516" lon="9.8834867"><ele>78.0</ele><time>2026-05-01T12:47:08.728Z</time></trkpt><trkpt lat="45.4252" lon="9.88359"><ele>78.0</ele><time>2026-05-01T12:47:10.728Z</time></trkpt><trkpt lat="45.4252767" lon="9.8835317"><ele>78.0</ele><time>2026-05-01T12:47:12.728Z</time></trkpt><trkpt lat="45.42538" lon="9.8834617"><ele>78.0</ele><time>2026-05-01T12:47:14.728Z</time></trkpt><trkpt lat="45.425475" lon="9.8833883"><ele>78.0</ele><time>2026-05-01T12:47:16.728Z</time></trkpt><trkpt lat="45.4255633" lon="9.8833083"><ele>78.0</ele><time>2026-05-01T12:47:18.728Z</time></trkpt><trkpt lat="45.4256683" lon="9.88325"><ele>78.0</ele><time>2026-05-01T12:47:20.728Z</time></trkpt><trkpt lat="45.4257833" lon="9.8832217"><ele>78.0</ele><time>2026-05-01T12:47:22.728Z</time></trkpt><trkpt lat="45.42587" lon="9.8832133"><ele>78.0</ele><time>2026-05-01T12:47:24.728Z</time></trkpt><trkpt lat="45.4259517" lon="9.8832583"><ele>78.0</ele><time>2026-05-01T12:47:26.728Z</time></trkpt><trkpt lat="45.4260317" lon="9.8832983"><ele>78.0</ele><time>2026-05-01T12:47:28.728Z</time></trkpt><trkpt lat="45.42612" lon="9.883315"><ele>78.0</ele><time>2026-05-01T12:47:30.728Z</time></trkpt><trkpt lat="45.4262217" lon="9.8833183"><ele>78.0</ele><time>2026-05-01T12:47:32.728Z</time></trkpt><trkpt lat="45.426315" lon="9.88335"><ele>78.0</ele><time>2026-05-01T12:47:34.728Z</time></trkpt><trkpt lat="45.4264133" lon="9.88338"><ele>77.6</ele><time>2026-05-01T12:47:36.729Z</time></trkpt><trkpt lat="45.42651" lon="9.8834267"><ele>77.19999999999999</ele><time>2026-05-01T12:47:38.728Z</time></trkpt><trkpt lat="45.4266117" lon="9.88348"><ele>76.8</ele><time>2026-05-01T12:47:40.728Z</time></trkpt><trkpt lat="45.426705" lon="9.8835417"><ele>76.39999999999999</ele><time>2026-05-01T12:47:42.728Z</time></trkpt><trkpt lat="45.4268033" lon="9.8835917"><ele>76.0</ele><time>2026-05-01T12:47:44.728Z</time></trkpt><trkpt lat="45.4269017" lon="9.8835883"><ele>76.0</ele><time>2026-05-01T12:47:46.728Z</time></trkpt><trkpt lat="45.4269983" lon="9.8835267"><ele>76.0</ele><time>2026-05-01T12:47:48.728Z</time></trkpt><trkpt lat="45.4271" lon="9.8835333"><ele>76.0</ele><time>2026-05-01T12:47:50.728Z</time></trkpt><trkpt lat="45.4271633" lon="9.88365"><ele>76.0</ele><time>2026-05-01T12:47:52.728Z</time></trkpt><trkpt lat="45.4272317" lon="9.88374"><ele>76.0</ele><time>2026-05-01T12:47:54.729Z</time></trkpt><trkpt lat="45.4273267" lon="9.883785"><ele>76.2</ele><time>2026-05-01T12:47:56.728Z</time></trkpt><trkpt lat="45.4274133" lon="9.88383"><ele>76.39999999999999</ele><time>2026-05-01T12:47:58.728Z</time></trkpt><trkpt lat="45.4275167" lon="9.8838817"><ele>76.6</ele><time>2026-05-01T12:48:00.728Z</time></trkpt><trkpt lat="45.4276283" lon="9.8838967"><ele>76.8</ele><time>2026-05-01T12:48:02.728Z</time></trkpt><trkpt lat="45.4277333" lon="9.883895"><ele>77.0</ele><time>2026-05-01T12:48:04.728Z</time></trkpt><trkpt lat="45.427825" lon="9.8839383"><ele>77.0</ele><time>2026-05-01T12:48:06.728Z</time></trkpt><trkpt lat="45.4279267" lon="9.8840183"><ele>77.0</ele><time>2026-05-01T12:48:08.728Z</time></trkpt><trkpt lat="45.4280317" lon="9.88408"><ele>77.0</ele><time>2026-05-01T12:48:10.728Z</time></trkpt><trkpt lat="45.428155" lon="9.8841167"><ele>77.0</ele><time>2026-05-01T12:48:12.728Z</time></trkpt><trkpt lat="45.4282767" lon="9.8841467"><ele>77.0</ele><time>2026-05-01T12:48:14.728Z</time></trkpt><trkpt lat="45.4283417" lon="9.8841417"><ele>77.0</ele><time>2026-05-01T12:48:15.728Z</time></trkpt><trkpt lat="45.428405" lon="9.88413"><ele>77.0</ele><time>2026-05-01T12:48:16.728Z</time></trkpt><trkpt lat="45.4284733" lon="9.8841217"><ele>77.0</ele><time>2026-05-01T12:48:17.728Z</time></trkpt><trkpt lat="45.4285367" lon="9.8841233"><ele>77.0</ele><time>2026-05-01T12:48:18.728Z</time></trkpt><trkpt lat="45.4286517" lon="9.884165"><ele>77.0</ele><time>2026-05-01T12:48:20.728Z</time></trkpt><trkpt lat="45.4287567" lon="9.8842067"><ele>77.2</ele><time>2026-05-01T12:48:22.728Z</time></trkpt><trkpt lat="45.4288567" lon="9.8842417"><ele>77.4</ele><time>2026-05-01T12:48:24.728Z</time></trkpt><trkpt lat="45.428945" lon="9.88426"><ele>77.6</ele><time>2026-05-01T12:48:26.728Z</time></trkpt><trkpt lat="45.4290367" lon="9.8842683"><ele>77.8</ele><time>2026-05-01T12:48:28.728Z</time></trkpt><trkpt lat="45.4291433" lon="9.8842767"><ele>78.0</ele><time>2026-05-01T12:48:30.728Z</time></trkpt><trkpt lat="45.4292417" lon="9.8842933"><ele>77.8</ele><time>2026-05-01T12:48:32.728Z</time></trkpt><trkpt lat="45.4293367" lon="9.88431"><ele>77.6</ele><time>2026-05-01T12:48:34.728Z</time></trkpt><trkpt lat="45.4294317" lon="9.8843183"><ele>77.4</ele><time>2026-05-01T12:48:36.728Z</time></trkpt><trkpt lat="45.4295217" lon="9.88433"><ele>77.2</ele><time>2026-05-01T12:48:38.728Z</time></trkpt><trkpt lat="45.4296117" lon="9.8843417"><ele>77.0</ele><time>2026-05-01T12:48:40.728Z</time></trkpt><trkpt lat="45.4297017" lon="9.8843683"><ele>77.0</ele><time>2026-05-01T12:48:42.728Z</time></trkpt><trkpt lat="45.4297933" lon="9.884405"><ele>77.0</ele><time>2026-05-01T12:48:44.728Z</time></trkpt><trkpt lat="45.4298917" lon="9.8844517"><ele>77.0</ele><time>2026-05-01T12:48:46.728Z</time></trkpt><trkpt lat="45.4299933" lon="9.8845"><ele>77.0</ele><time>2026-05-01T12:48:48.728Z</time></trkpt><trkpt lat="45.43009" lon="9.8845417"><ele>77.0</ele><time>2026-05-01T12:48:50.728Z</time></trkpt><trkpt lat="45.4301967" lon="9.8845767"><ele>77.0</ele><time>2026-05-01T12:48:52.728Z</time></trkpt><trkpt lat="45.430295" lon="9.8846067"><ele>77.0</ele><time>2026-05-01T12:48:54.728Z</time></trkpt><trkpt lat="45.4303867" lon="9.8846767"><ele>77.0</ele><time>2026-05-01T12:48:56.728Z</time></trkpt><trkpt lat="45.4304767" lon="9.8847983"><ele>77.0</ele><time>2026-05-01T12:48:58.728Z</time></trkpt><trkpt lat="45.4305367" lon="9.884925"><ele>77.0</ele><time>2026-05-01T12:49:00.728Z</time></trkpt><trkpt lat="45.4306083" lon="9.8850383"><ele>77.16666666666667</ele><time>2026-05-01T12:49:02.728Z</time></trkpt><trkpt lat="45.43068" lon="9.8850767"><ele>77.33333333333334</ele><time>2026-05-01T12:49:04.728Z</time></trkpt><trkpt lat="45.430765" lon="9.8850517"><ele>77.5</ele><time>2026-05-01T12:49:06.728Z</time></trkpt><trkpt lat="45.4308533" lon="9.8850267"><ele>77.66666666666667</ele><time>2026-05-01T12:49:08.728Z</time></trkpt><trkpt lat="45.4309333" lon="9.8850133"><ele>77.83333333333333</ele><time>2026-05-01T12:49:10.729Z</time></trkpt><trkpt lat="45.4310367" lon="9.8849917"><ele>78.0</ele><time>2026-05-01T12:49:12.728Z</time></trkpt><trkpt lat="45.4311317" lon="9.8849767"><ele>78.0</ele><time>2026-05-01T12:49:14.728Z</time></trkpt><trkpt lat="45.4312383" lon="9.88493"><ele>78.0</ele><time>2026-05-01T12:49:16.728Z</time></trkpt><trkpt lat="45.43135" lon="9.8848917"><ele>78.0</ele><time>2026-05-01T12:49:18.728Z</time></trkpt><trkpt lat="45.4314217" lon="9.884875"><ele>78.0</ele><time>2026-05-01T12:49:20.728Z</time></trkpt><trkpt lat="45.43149" lon="9.884905"><ele>78.0</ele><time>2026-05-01T12:49:55.728Z</time></trkpt><trkpt lat="45.4315733" lon="9.8849767"><ele>78.0</ele><time>2026-05-01T12:49:58.728Z</time></trkpt><trkpt lat="45.4316383" lon="9.8850767"><ele>78.0</ele><time>2026-05-01T12:50:00.728Z</time></trkpt><trkpt lat="45.43172" lon="9.8851833"><ele>78.0</ele><time>2026-05-01T12:50:02.728Z</time></trkpt><trkpt lat="45.4318067" lon="9.8852783"><ele>78.0</ele><time>2026-05-01T12:50:04.728Z</time></trkpt><trkpt lat="45.4319083" lon="9.8853333"><ele>78.0</ele><time>2026-05-01T12:50:06.728Z</time></trkpt><trkpt lat="45.4320133" lon="9.88537"><ele>78.0</ele><time>2026-05-01T12:50:08.729Z</time></trkpt><trkpt lat="45.4321183" lon="9.8854183"><ele>78.0</ele><time>2026-05-01T12:50:10.728Z</time></trkpt><trkpt lat="45.4322283" lon="9.8854433"><ele>78.0</ele><time>2026-05-01T12:50:12.728Z</time></trkpt><trkpt lat="45.432345" lon="9.8854517"><ele>78.0</ele><time>2026-05-01T12:50:14.728Z</time></trkpt><trkpt lat="45.4324633" lon="9.8854367"><ele>78.0</ele><time>2026-05-01T12:50:16.728Z</time></trkpt><trkpt lat="45.432575" lon="9.8854417"><ele>78.0</ele><time>2026-05-01T12:50:18.728Z</time></trkpt><trkpt lat="45.4326783" lon="9.8854517"><ele>78.0</ele><time>2026-05-01T12:50:20.728Z</time></trkpt><trkpt lat="45.432785" lon="9.8854567"><ele>78.0</ele><time>2026-05-01T12:50:22.728Z</time></trkpt><trkpt lat="45.4329017" lon="9.88544"><ele>78.0</ele><time>2026-05-01T12:50:24.728Z</time></trkpt><trkpt lat="45.4330183" lon="9.885405"><ele>78.0</ele><time>2026-05-01T12:50:26.728Z</time></trkpt><trkpt lat="45.433135" lon="9.8853667"><ele>78.0</ele><time>2026-05-01T12:50:28.728Z</time></trkpt><trkpt lat="45.4332533" lon="9.8853017"><ele>78.0</ele><time>2026-05-01T12:50:30.728Z</time></trkpt><trkpt lat="45.4333667" lon="9.8852467"><ele>78.0</ele><time>2026-05-01T12:50:32.728Z</time></trkpt><trkpt lat="45.433475" lon="9.8852167"><ele>78.0</ele><time>2026-05-01T12:50:34.728Z</time></trkpt><trkpt lat="45.43359" lon="9.8851617"><ele>78.0</ele><time>2026-05-01T12:50:36.727Z</time></trkpt><trkpt lat="45.4337117" lon="9.8851017"><ele>78.0</ele><time>2026-05-01T12:50:38.727Z</time></trkpt><trkpt lat="45.433835" lon="9.8850567"><ele>78.0</ele><time>2026-05-01T12:50:40.727Z</time></trkpt><trkpt lat="45.433905" lon="9.88504"><ele>78.0</ele><time>2026-05-01T12:50:41.727Z</time></trkpt><trkpt lat="45.43397" lon="9.8850167"><ele>78.33333333333333</ele><time>2026-05-01T12:50:42.727Z</time></trkpt><trkpt lat="45.4340317" lon="9.8849783"><ele>78.66666666666667</ele><time>2026-05-01T12:50:43.727Z</time></trkpt><trkpt lat="45.4340967" lon="9.884955"><ele>79.0</ele><time>2026-05-01T12:50:44.727Z</time></trkpt><trkpt lat="45.4341567" lon="9.88492"><ele>79.33333333333334</ele><time>2026-05-01T12:50:45.727Z</time></trkpt><trkpt lat="45.4342617" lon="9.8848517"><ele>79.66666666666667</ele><time>2026-05-01T12:50:47.727Z</time></trkpt><trkpt lat="45.4343617" lon="9.884775"><ele>80.0</ele><time>2026-05-01T12:50:49.727Z</time></trkpt><trkpt lat="45.434465" lon="9.8847"><ele>80.0</ele><time>2026-05-01T12:50:51.727Z</time></trkpt><trkpt lat="45.4345633" lon="9.8846083"><ele>80.0</ele><time>2026-05-01T12:50:53.727Z</time></trkpt><trkpt lat="45.4346633" lon="9.8845217"><ele>80.0</ele><time>2026-05-01T12:50:55.727Z</time></trkpt><trkpt lat="45.434745" lon="9.8844067"><ele>80.0</ele><time>2026-05-01T12:50:57.727Z</time></trkpt><trkpt lat="45.434805" lon="9.8842583"><ele>79.8</ele><time>2026-05-01T12:50:59.727Z</time></trkpt><trkpt lat="45.4348317" lon="9.88417"><ele>79.6</ele><time>2026-05-01T12:51:00.727Z</time></trkpt><trkpt lat="45.434885" lon="9.8840117"><ele>79.4</ele><time>2026-05-01T12:51:02.727Z</time></trkpt><trkpt lat="45.4349367" lon="9.8838533"><ele>79.2</ele><time>2026-05-01T12:51:04.728Z</time></trkpt><trkpt lat="45.434955" lon="9.8837617"><ele>79.0</ele><time>2026-05-01T12:51:05.727Z</time></trkpt><trkpt lat="45.4350033" lon="9.883605"><ele>79.0</ele><time>2026-05-01T12:51:07.727Z</time></trkpt><trkpt lat="45.4350483" lon="9.88344"><ele>79.0</ele><time>2026-05-01T12:51:09.727Z</time></trkpt><trkpt lat="45.43508" lon="9.8833583"><ele>79.0</ele><time>2026-05-01T12:51:10.727Z</time></trkpt><trkpt lat="45.4351033" lon="9.8832733"><ele>79.0</ele><time>2026-05-01T12:51:11.727Z</time></trkpt><trkpt lat="45.4351533" lon="9.8831167"><ele>79.0</ele><time>2026-05-01T12:51:13.728Z</time></trkpt><trkpt lat="45.435205" lon="9.8829633"><ele>79.16666666666666</ele><time>2026-05-01T12:51:15.727Z</time></trkpt><trkpt lat="45.4352533" lon="9.88283"><ele>79.33333333333333</ele><time>2026-05-01T12:51:17.727Z</time></trkpt><trkpt lat="45.4352983" lon="9.8826967"><ele>79.5</ele><time>2026-05-01T12:51:19.727Z</time></trkpt><trkpt lat="45.4353317" lon="9.8825917"><ele>79.66666666666667</ele><time>2026-05-01T12:51:21.727Z</time></trkpt><trkpt lat="45.4353983" lon="9.882545"><ele>79.83333333333334</ele><time>2026-05-01T12:51:24.727Z</time></trkpt><trkpt lat="45.4354717" lon="9.88255"><ele>80.0</ele><time>2026-05-01T12:51:26.727Z</time></trkpt><trkpt lat="45.435555" lon="9.8825867"><ele>80.4</ele><time>2026-05-01T12:51:28.727Z</time></trkpt><trkpt lat="45.43564" lon="9.8826533"><ele>80.8</ele><time>2026-05-01T12:51:30.727Z</time></trkpt><trkpt lat="45.4357183" lon="9.88275"><ele>81.19999999999999</ele><time>2026-05-01T12:51:32.727Z</time></trkpt><trkpt lat="45.4358067" lon="9.8828333"><ele>81.6</ele><time>2026-05-01T12:51:34.727Z</time></trkpt><trkpt lat="45.435895" lon="9.882905"><ele>82.0</ele><time>2026-05-01T12:51:36.727Z</time></trkpt><trkpt lat="45.4359833" lon="9.8829983"><ele>82.0</ele><time>2026-05-01T12:51:38.727Z</time></trkpt><trkpt lat="45.436075" lon="9.883095"><ele>82.0</ele><time>2026-05-01T12:51:40.727Z</time></trkpt><trkpt lat="45.4361717" lon="9.88315"><ele>82.0</ele><time>2026-05-01T12:51:42.727Z</time></trkpt><trkpt lat="45.4362817" lon="9.8831617"><ele>82.0</ele><time>2026-05-01T12:51:44.727Z</time></trkpt><trkpt lat="45.4363967" lon="9.883125"><ele>82.0</ele><time>2026-05-01T12:51:46.727Z</time></trkpt><trkpt lat="45.436505" lon="9.8830667"><ele>81.75</ele><time>2026-05-01T12:51:48.727Z</time></trkpt><trkpt lat="45.43661" lon="9.8830267"><ele>81.5</ele><time>2026-05-01T12:51:50.728Z</time></trkpt><trkpt lat="45.4367217" lon="9.88298"><ele>81.25</ele><time>2026-05-01T12:51:52.728Z</time></trkpt><trkpt lat="45.43684" lon="9.8829333"><ele>81.0</ele><time>2026-05-01T12:51:54.727Z</time></trkpt><trkpt lat="45.43695" lon="9.882895"><ele>81.0</ele><time>2026-05-01T12:51:56.727Z</time></trkpt><trkpt lat="45.43701" lon="9.8828667"><ele>81.0</ele><time>2026-05-01T12:51:57.727Z</time></trkpt><trkpt lat="45.4371333" lon="9.882835"><ele>81.0</ele><time>2026-05-01T12:51:59.727Z</time></trkpt><trkpt lat="45.4371983" lon="9.8828233"><ele>81.0</ele><time>2026-05-01T12:52:00.727Z</time></trkpt><trkpt lat="45.4372633" lon="9.882815"><ele>81.0</ele><time>2026-05-01T12:52:01.728Z</time></trkpt><trkpt lat="45.43733" lon="9.8828167"><ele>81.0</ele><time>2026-05-01T12:52:02.728Z</time></trkpt><trkpt lat="45.4373933" lon="9.8828233"><ele>81.0</ele><time>2026-05-01T12:52:03.727Z</time></trkpt><trkpt lat="45.43746" lon="9.8828433"><ele>81.0</ele><time>2026-05-01T12:52:04.728Z</time></trkpt><trkpt lat="45.4375267" lon="9.8828667"><ele>81.0</ele><time>2026-05-01T12:52:05.727Z</time></trkpt><trkpt lat="45.4375883" lon="9.882895"><ele>81.0</ele><time>2026-05-01T12:52:06.727Z</time></trkpt><trkpt lat="45.4376517" lon="9.882925"><ele>81.0</ele><time>2026-05-01T12:52:07.727Z</time></trkpt><trkpt lat="45.4377183" lon="9.8829583"><ele>81.0</ele><time>2026-05-01T12:52:08.728Z</time></trkpt><trkpt lat="45.4378267" lon="9.88303"><ele>81.0</ele><time>2026-05-01T12:52:10.727Z</time></trkpt><trkpt lat="45.4378883" lon="9.8830667"><ele>82.0</ele><time>2026-05-01T12:52:11.727Z</time></trkpt><trkpt lat="45.4379983" lon="9.8831233"><ele>83.0</ele><time>2026-05-01T12:52:13.727Z</time></trkpt><trkpt lat="45.4381067" lon="9.88318"><ele>84.0</ele><time>2026-05-01T12:52:15.727Z</time></trkpt><trkpt lat="45.4382167" lon="9.883245"><ele>85.0</ele><time>2026-05-01T12:52:17.727Z</time></trkpt><trkpt lat="45.4382783" lon="9.8832717"><ele>86.0</ele><time>2026-05-01T12:52:18.727Z</time></trkpt><trkpt lat="45.4383933" lon="9.8833383"><ele>86.00000000000001</ele><time>2026-05-01T12:52:20.727Z</time></trkpt><trkpt lat="45.4384533" lon="9.8833733"><ele>86.0</ele><time>2026-05-01T12:52:21.728Z</time></trkpt><trkpt lat="45.4385167" lon="9.8834117"><ele>86.0</ele><time>2026-05-01T12:52:22.727Z</time></trkpt><trkpt lat="45.4385783" lon="9.8834433"><ele>86.0</ele><time>2026-05-01T12:52:23.728Z</time></trkpt><trkpt lat="45.4386417" lon="9.88348"><ele>86.0</ele><time>2026-05-01T12:52:24.727Z</time></trkpt><trkpt lat="45.4387" lon="9.8835167"><ele>86.00000000000001</ele><time>2026-05-01T12:52:25.727Z</time></trkpt><trkpt lat="45.4387617" lon="9.883545"><ele>86.0</ele><time>2026-05-01T12:52:26.727Z</time></trkpt><trkpt lat="45.4388817" lon="9.883605"><ele>85.5</ele><time>2026-05-01T12:52:28.727Z</time></trkpt><trkpt lat="45.4389433" lon="9.88364"><ele>85.0</ele><time>2026-05-01T12:52:29.727Z</time></trkpt><trkpt lat="45.4390583" lon="9.883715"><ele>84.5</ele><time>2026-05-01T12:52:31.727Z</time></trkpt><trkpt lat="45.4391217" lon="9.8837483"><ele>84.0</ele><time>2026-05-01T12:52:32.727Z</time></trkpt><trkpt lat="45.4391867" lon="9.8837717"><ele>83.5</ele><time>2026-05-01T12:52:33.727Z</time></trkpt><trkpt lat="45.4392533" lon="9.8837967"><ele>83.0</ele><time>2026-05-01T12:52:34.727Z</time></trkpt><trkpt lat="45.4393133" lon="9.8838267"><ele>83.0</ele><time>2026-05-01T12:52:35.727Z</time></trkpt><trkpt lat="45.4393833" lon="9.8838617"><ele>83.0</ele><time>2026-05-01T12:52:36.728Z</time></trkpt><trkpt lat="45.4394933" lon="9.88393"><ele>83.0</ele><time>2026-05-01T12:52:38.727Z</time></trkpt><trkpt lat="45.4396067" lon="9.8839933"><ele>83.0</ele><time>2026-05-01T12:52:40.727Z</time></trkpt><trkpt lat="45.4397117" lon="9.88407"><ele>83.0</ele><time>2026-05-01T12:52:42.727Z</time></trkpt><trkpt lat="45.439825" lon="9.8841267"><ele>83.5</ele><time>2026-05-01T12:52:44.727Z</time></trkpt><trkpt lat="45.43994" lon="9.8841617"><ele>84.0</ele><time>2026-05-01T12:52:46.727Z</time></trkpt><trkpt lat="45.4400567" lon="9.884185"><ele>84.5</ele><time>2026-05-01T12:52:48.727Z</time></trkpt><trkpt lat="45.44017" lon="9.88418"><ele>85.0</ele><time>2026-05-01T12:52:50.727Z</time></trkpt><trkpt lat="45.4402783" lon="9.88413"><ele>85.0</ele><time>2026-05-01T12:52:52.727Z</time></trkpt><trkpt lat="45.4403767" lon="9.88405"><ele>85.0</ele><time>2026-05-01T12:52:54.727Z</time></trkpt><trkpt lat="45.4404717" lon="9.8839467"><ele>85.0</ele><time>2026-05-01T12:52:56.727Z</time></trkpt><trkpt lat="45.4405533" lon="9.8838567"><ele>85.0</ele><time>2026-05-01T12:52:58.727Z</time></trkpt><trkpt lat="45.4406117" lon="9.8837883"><ele>85.0</ele><time>2026-05-01T12:53:01.727Z</time></trkpt><trkpt lat="45.4406617" lon="9.8838633"><ele>85.16666666666666</ele><time>2026-05-01T12:53:06.727Z</time></trkpt><trkpt lat="45.4407533" lon="9.8838633"><ele>85.33333333333333</ele><time>2026-05-01T12:53:09.727Z</time></trkpt><trkpt lat="45.4408233" lon="9.8838633"><ele>85.5</ele><time>2026-05-01T12:53:11.727Z</time></trkpt><trkpt lat="45.4408917" lon="9.8839333"><ele>85.66666666666667</ele><time>2026-05-01T12:53:13.727Z</time></trkpt><trkpt lat="45.4409617" lon="9.8840383"><ele>85.83333333333334</ele><time>2026-05-01T12:53:15.727Z</time></trkpt><trkpt lat="45.440955" lon="9.8841817"><ele>86.0</ele><time>2026-05-01T12:53:17.727Z</time></trkpt><trkpt lat="45.4408917" lon="9.884265"><ele>86.0</ele><time>2026-05-01T12:53:19.727Z</time></trkpt><trkpt lat="45.440835" lon="9.8843667"><ele>86.0</ele><time>2026-05-01T12:53:21.727Z</time></trkpt><trkpt lat="45.4407917" lon="9.8844767"><ele>86.0</ele><time>2026-05-01T12:53:23.727Z</time></trkpt><trkpt lat="45.440755" lon="9.8845633"><ele>86.0</ele><time>2026-05-01T12:53:25.727Z</time></trkpt><trkpt lat="45.4407617" lon="9.8846917"><ele>86.0</ele><time>2026-05-01T12:53:28.727Z</time></trkpt><trkpt lat="45.4408267" lon="9.8847533"><ele>86.0</ele><time>2026-05-01T12:53:31.727Z</time></trkpt><trkpt lat="45.4408917" lon="9.8847783"><ele>86.0</ele><time>2026-05-01T12:53:33.727Z</time></trkpt><trkpt lat="45.4409517" lon="9.8848317"><ele>86.0</ele><time>2026-05-01T12:53:35.727Z</time></trkpt><trkpt lat="45.44102" lon="9.88483"><ele>86.0</ele><time>2026-05-01T12:53:37.727Z</time></trkpt><trkpt lat="45.441105" lon="9.88487"><ele>86.0</ele><time>2026-05-01T12:53:39.727Z</time></trkpt><trkpt lat="45.44119" lon="9.884945"><ele>86.0</ele><time>2026-05-01T12:53:41.727Z</time></trkpt><trkpt lat="45.441285" lon="9.8850033"><ele>86.0</ele><time>2026-05-01T12:53:43.727Z</time></trkpt><trkpt lat="45.441385" lon="9.8850067"><ele>86.4</ele><time>2026-05-01T12:53:45.727Z</time></trkpt><trkpt lat="45.441495" lon="9.8850033"><ele>86.8</ele><time>2026-05-01T12:53:47.727Z</time></trkpt><trkpt lat="45.4416033" lon="9.88501"><ele>87.2</ele><time>2026-05-01T12:53:49.727Z</time></trkpt><trkpt lat="45.4417183" lon="9.8849567"><ele>87.60000000000001</ele><time>2026-05-01T12:53:51.727Z</time></trkpt><trkpt lat="45.4417783" lon="9.8849283"><ele>88.0</ele><time>2026-05-01T12:53:52.727Z</time></trkpt><trkpt lat="45.4418933" lon="9.8849"><ele>88.0</ele><time>2026-05-01T12:53:54.727Z</time></trkpt><trkpt lat="45.4419967" lon="9.8849667"><ele>88.0</ele><time>2026-05-01T12:53:56.727Z</time></trkpt><trkpt lat="45.44209" lon="9.8850083"><ele>88.0</ele><time>2026-05-01T12:53:58.727Z</time></trkpt><trkpt lat="45.4421733" lon="9.884965"><ele>88.0</ele><time>2026-05-01T12:54:00.727Z</time></trkpt><trkpt lat="45.44227" lon="9.8848683"><ele>88.0</ele><time>2026-05-01T12:54:02.727Z</time></trkpt><trkpt lat="45.4423667" lon="9.8848217"><ele>88.0</ele><time>2026-05-01T12:54:04.727Z</time></trkpt><trkpt lat="45.44247" lon="9.8848483"><ele>88.0</ele><time>2026-05-01T12:54:06.727Z</time></trkpt><trkpt lat="45.4425467" lon="9.884885"><ele>88.0</ele><time>2026-05-01T12:54:08.727Z</time></trkpt><trkpt lat="45.4426183" lon="9.8849233"><ele>88.0</ele><time>2026-05-01T12:54:10.727Z</time></trkpt><trkpt lat="45.4426833" lon="9.8848933"><ele>88.0</ele><time>2026-05-01T12:54:12.727Z</time></trkpt><trkpt lat="45.4427617" lon="9.8848933"><ele>88.0</ele><time>2026-05-01T12:54:14.727Z</time></trkpt><trkpt lat="45.4428483" lon="9.8849717"><ele>88.0</ele><time>2026-05-01T12:54:16.727Z</time></trkpt><trkpt lat="45.442905" lon="9.8850433"><ele>88.0</ele><time>2026-05-01T12:54:19.727Z</time></trkpt><trkpt lat="45.4429467" lon="9.8851167"><ele>88.0</ele><time>2026-05-01T12:54:25.727Z</time></trkpt><trkpt lat="45.4429317" lon="9.8852183"><ele>88.0</ele><time>2026-05-01T12:54:27.727Z</time></trkpt><trkpt lat="45.4428933" lon="9.88531"><ele>88.0</ele><time>2026-05-01T12:54:30.727Z</time></trkpt><trkpt lat="45.4428667" lon="9.8854167"><ele>88.0</ele><time>2026-05-01T12:54:33.727Z</time></trkpt><trkpt lat="45.4428833" lon="9.8855067"><ele>88.0</ele><time>2026-05-01T12:54:35.727Z</time></trkpt><trkpt lat="45.4428817" lon="9.8856217"><ele>87.5</ele><time>2026-05-01T12:54:37.727Z</time></trkpt><trkpt lat="45.4428933" lon="9.88573"><ele>87.0</ele><time>2026-05-01T12:54:39.727Z</time></trkpt><trkpt lat="45.4428817" lon="9.885835"><ele>86.5</ele><time>2026-05-01T12:54:41.727Z</time></trkpt><trkpt lat="45.44285" lon="9.885965"><ele>86.0</ele><time>2026-05-01T12:54:43.727Z</time></trkpt><trkpt lat="45.4427733" lon="9.8860533"><ele>85.5</ele><time>2026-05-01T12:54:45.727Z</time></trkpt><trkpt lat="45.44274" lon="9.8861717"><ele>85.0</ele><time>2026-05-01T12:54:47.726Z</time></trkpt><trkpt lat="45.4427617" lon="9.886305"><ele>85.0</ele><time>2026-05-01T12:54:49.726Z</time></trkpt><trkpt lat="45.4427633" lon="9.88646"><ele>85.0</ele><time>2026-05-01T12:54:51.726Z</time></trkpt><trkpt lat="45.4427933" lon="9.88662"><ele>85.0</ele><time>2026-05-01T12:54:53.726Z</time></trkpt><trkpt lat="45.442865" lon="9.8867383"><ele>85.0</ele><time>2026-05-01T12:54:55.726Z</time></trkpt><trkpt lat="45.442965" lon="9.8867917"><ele>85.0</ele><time>2026-05-01T12:54:57.726Z</time></trkpt><trkpt lat="45.4430367" lon="9.886865"><ele>85.0</ele><time>2026-05-01T12:54:59.726Z</time></trkpt><trkpt lat="45.4430833" lon="9.88696"><ele>85.0</ele><time>2026-05-01T12:55:01.726Z</time></trkpt><trkpt lat="45.4430917" lon="9.8870883"><ele>85.0</ele><time>2026-05-01T12:55:03.726Z</time></trkpt><trkpt lat="45.4430567" lon="9.88722"><ele>85.0</ele><time>2026-05-01T12:55:05.726Z</time></trkpt><trkpt lat="45.4430483" lon="9.88737"><ele>85.0</ele><time>2026-05-01T12:55:07.726Z</time></trkpt><trkpt lat="45.4430567" lon="9.88746"><ele>85.0</ele><time>2026-05-01T12:55:08.726Z</time></trkpt><trkpt lat="45.4430767" lon="9.8875983"><ele>84.83333333333333</ele><time>2026-05-01T12:55:10.726Z</time></trkpt><trkpt lat="45.4431233" lon="9.8877117"><ele>84.66666666666666</ele><time>2026-05-01T12:55:12.726Z</time></trkpt><trkpt lat="45.4431817" lon="9.8877967"><ele>84.5</ele><time>2026-05-01T12:55:14.727Z</time></trkpt><trkpt lat="45.4431733" lon="9.88793"><ele>84.33333333333333</ele><time>2026-05-01T12:55:17.726Z</time></trkpt><trkpt lat="45.443245" lon="9.8879533"><ele>84.16666666666667</ele><time>2026-05-01T12:55:20.726Z</time></trkpt><trkpt lat="45.4433283" lon="9.8879917"><ele>84.0</ele><time>2026-05-01T12:55:22.726Z</time></trkpt><trkpt lat="45.4433917" lon="9.8880867"><ele>84.0</ele><time>2026-05-01T12:55:24.726Z</time></trkpt><trkpt lat="45.4434533" lon="9.8881883"><ele>84.0</ele><time>2026-05-01T12:55:26.726Z</time></trkpt><trkpt lat="45.443555" lon="9.8882483"><ele>84.0</ele><time>2026-05-01T12:55:28.726Z</time></trkpt><trkpt lat="45.443615" lon="9.8882767"><ele>84.0</ele><time>2026-05-01T12:55:29.726Z</time></trkpt><trkpt lat="45.4437183" lon="9.8883267"><ele>84.0</ele><time>2026-05-01T12:55:31.726Z</time></trkpt><trkpt lat="45.4438233" lon="9.8883467"><ele>83.80000000000001</ele><time>2026-05-01T12:55:33.726Z</time></trkpt><trkpt lat="45.4439133" lon="9.8884167"><ele>83.60000000000001</ele><time>2026-05-01T12:55:35.726Z</time></trkpt><trkpt lat="45.4439733" lon="9.8885533"><ele>83.4</ele><time>2026-05-01T12:55:37.726Z</time></trkpt><trkpt lat="45.4440017" lon="9.88869"><ele>83.2</ele><time>2026-05-01T12:55:39.726Z</time></trkpt><trkpt lat="45.4440633" lon="9.8887217"><ele>83.0</ele><time>2026-05-01T12:55:41.726Z</time></trkpt><trkpt lat="45.444135" lon="9.8886383"><ele>83.0</ele><time>2026-05-01T12:55:43.726Z</time></trkpt><trkpt lat="45.4442117" lon="9.88858"><ele>83.0</ele><time>2026-05-01T12:55:45.726Z</time></trkpt><trkpt lat="45.44431" lon="9.888545"><ele>83.0</ele><time>2026-05-01T12:55:47.726Z</time></trkpt><trkpt lat="45.44441" lon="9.88855"><ele>83.0</ele><time>2026-05-01T12:55:49.727Z</time></trkpt><trkpt lat="45.44451" lon="9.8885383"><ele>83.0</ele><time>2026-05-01T12:55:51.726Z</time></trkpt><trkpt lat="45.4445883" lon="9.8886033"><ele>82.80000000000001</ele><time>2026-05-01T12:55:53.726Z</time></trkpt><trkpt lat="45.4446817" lon="9.88868"><ele>82.6</ele><time>2026-05-01T12:55:55.726Z</time></trkpt><trkpt lat="45.4447917" lon="9.8887283"><ele>82.4</ele><time>2026-05-01T12:55:57.726Z</time></trkpt><trkpt lat="45.44489" lon="9.888805"><ele>82.19999999999999</ele><time>2026-05-01T12:55:59.726Z</time></trkpt><trkpt lat="45.4449867" lon="9.8888117"><ele>82.0</ele><time>2026-05-01T12:56:01.726Z</time></trkpt><trkpt lat="45.4450783" lon="9.8888283"><ele>82.0</ele><time>2026-05-01T12:56:03.726Z</time></trkpt><trkpt lat="45.44518" lon="9.888805"><ele>82.0</ele><time>2026-05-01T12:56:05.726Z</time></trkpt><trkpt lat="45.44525" lon="9.888755"><ele>82.0</ele><time>2026-05-01T12:56:08.726Z</time></trkpt><trkpt lat="45.44533" lon="9.8887283"><ele>82.0</ele><time>2026-05-01T12:56:11.726Z</time></trkpt><trkpt lat="45.4454133" lon="9.88869"><ele>82.0</ele><time>2026-05-01T12:56:14.726Z</time></trkpt><trkpt lat="45.4455067" lon="9.888655"><ele>82.0</ele><time>2026-05-01T12:56:17.726Z</time></trkpt><trkpt lat="45.445575" lon="9.8886583"><ele>81.6</ele><time>2026-05-01T12:56:19.727Z</time></trkpt><trkpt lat="45.44565" lon="9.8886667"><ele>81.19999999999999</ele><time>2026-05-01T12:56:21.726Z</time></trkpt><trkpt lat="45.4457467" lon="9.8886733"><ele>80.8</ele><time>2026-05-01T12:56:23.726Z</time></trkpt><trkpt lat="45.4458533" lon="9.888675"><ele>80.4</ele><time>2026-05-01T12:56:25.726Z</time></trkpt><trkpt lat="45.4459467" lon="9.8886833"><ele>80.0</ele><time>2026-05-01T12:56:27.726Z</time></trkpt><trkpt lat="45.4460383" lon="9.8886883"><ele>80.0</ele><time>2026-05-01T12:56:29.726Z</time></trkpt><trkpt lat="45.4461367" lon="9.8886833"><ele>80.0</ele><time>2026-05-01T12:56:31.726Z</time></trkpt><trkpt lat="45.4462283" lon="9.8886433"><ele>80.0</ele><time>2026-05-01T12:56:33.726Z</time></trkpt><trkpt lat="45.4463267" lon="9.8885983"><ele>80.0</ele><time>2026-05-01T12:56:35.726Z</time></trkpt><trkpt lat="45.4464283" lon="9.8885867"><ele>80.0</ele><time>2026-05-01T12:56:37.726Z</time></trkpt><trkpt lat="45.4465333" lon="9.88859"><ele>80.2</ele><time>2026-05-01T12:56:39.726Z</time></trkpt><trkpt lat="45.4466267" lon="9.8885817"><ele>80.4</ele><time>2026-05-01T12:56:41.727Z</time></trkpt><trkpt lat="45.4467017" lon="9.888535"><ele>80.6</ele><time>2026-05-01T12:56:43.726Z</time></trkpt><trkpt lat="45.446785" lon="9.8884833"><ele>80.8</ele><time>2026-05-01T12:56:45.726Z</time></trkpt><trkpt lat="45.4468817" lon="9.88845"><ele>81.0</ele><time>2026-05-01T12:56:47.726Z</time></trkpt><trkpt lat="45.4469717" lon="9.8884383"><ele>81.6</ele><time>2026-05-01T12:56:49.726Z</time></trkpt><trkpt lat="45.4470567" lon="9.8883833"><ele>82.19999999999999</ele><time>2026-05-01T12:56:51.726Z</time></trkpt><trkpt lat="45.4471483" lon="9.8883317"><ele>82.80000000000001</ele><time>2026-05-01T12:56:53.726Z</time></trkpt><trkpt lat="45.44723" lon="9.888245"><ele>83.4</ele><time>2026-05-01T12:56:55.726Z</time></trkpt><trkpt lat="45.4473083" lon="9.888155"><ele>84.0</ele><time>2026-05-01T12:56:57.726Z</time></trkpt><trkpt lat="45.44741" lon="9.8881283"><ele>84.0</ele><time>2026-05-01T12:56:59.726Z</time></trkpt><trkpt lat="45.4475133" lon="9.8881467"><ele>84.0</ele><time>2026-05-01T12:57:01.726Z</time></trkpt><trkpt lat="45.44761" lon="9.8881917"><ele>84.0</ele><time>2026-05-01T12:57:03.726Z</time></trkpt><trkpt lat="45.447715" lon="9.8882283"><ele>84.0</ele><time>2026-05-01T12:57:05.726Z</time></trkpt><trkpt lat="45.447825" lon="9.8882433"><ele>84.0</ele><time>2026-05-01T12:57:07.726Z</time></trkpt><trkpt lat="45.447925" lon="9.8882683"><ele>84.0</ele><time>2026-05-01T12:57:09.726Z</time></trkpt><trkpt lat="45.4480233" lon="9.8882867"><ele>84.0</ele><time>2026-05-01T12:57:11.726Z</time></trkpt><trkpt lat="45.4481167" lon="9.8883"><ele>84.0</ele><time>2026-05-01T12:57:13.726Z</time></trkpt><trkpt lat="45.448225" lon="9.8883133"><ele>84.0</ele><time>2026-05-01T12:57:15.726Z</time></trkpt><trkpt lat="45.44833" lon="9.8883333"><ele>84.0</ele><time>2026-05-01T12:57:17.726Z</time></trkpt><trkpt lat="45.4484417" lon="9.88836"><ele>84.0</ele><time>2026-05-01T12:57:19.726Z</time></trkpt><trkpt lat="45.4485467" lon="9.8883883"><ele>84.0</ele><time>2026-05-01T12:57:21.726Z</time></trkpt><trkpt lat="45.44865" lon="9.8884217"><ele>84.0</ele><time>2026-05-01T12:57:23.726Z</time></trkpt><trkpt lat="45.4487467" lon="9.88847"><ele>84.0</ele><time>2026-05-01T12:57:25.726Z</time></trkpt><trkpt lat="45.4488483" lon="9.888505"><ele>84.0</ele><time>2026-05-01T12:57:27.726Z</time></trkpt><trkpt lat="45.44896" lon="9.8885333"><ele>84.0</ele><time>2026-05-01T12:57:29.726Z</time></trkpt><trkpt lat="45.449075" lon="9.88858"><ele>84.0</ele><time>2026-05-01T12:57:31.726Z</time></trkpt><trkpt lat="45.44916" lon="9.8886217"><ele>84.0</ele><time>2026-05-01T12:57:33.726Z</time></trkpt><trkpt lat="45.449255" lon="9.88866"><ele>84.0</ele><time>2026-05-01T12:57:35.726Z</time></trkpt><trkpt lat="45.4493583" lon="9.888695"><ele>84.0</ele><time>2026-05-01T12:57:37.727Z</time></trkpt><trkpt lat="45.4494533" lon="9.8887583"><ele>84.0</ele><time>2026-05-01T12:57:39.726Z</time></trkpt><trkpt lat="45.4495433" lon="9.888815"><ele>84.0</ele><time>2026-05-01T12:57:41.726Z</time></trkpt><trkpt lat="45.44964" lon="9.8888567"><ele>84.0</ele><time>2026-05-01T12:57:43.726Z</time></trkpt><trkpt lat="45.4497417" lon="9.8889033"><ele>84.0</ele><time>2026-05-01T12:57:45.726Z</time></trkpt><trkpt lat="45.4498367" lon="9.888945"><ele>84.0</ele><time>2026-05-01T12:57:47.726Z</time></trkpt><trkpt lat="45.4499267" lon="9.88898"><ele>84.0</ele><time>2026-05-01T12:57:49.727Z</time></trkpt><trkpt lat="45.4500067" lon="9.8890633"><ele>84.0</ele><time>2026-05-01T12:57:51.726Z</time></trkpt><trkpt lat="45.4500733" lon="9.889175"><ele>84.0</ele><time>2026-05-01T12:57:53.726Z</time></trkpt><trkpt lat="45.45014" lon="9.8893067"><ele>84.0</ele><time>2026-05-01T12:57:55.726Z</time></trkpt><trkpt lat="45.450195" lon="9.88945"><ele>84.0</ele><time>2026-05-01T12:57:57.726Z</time></trkpt><trkpt lat="45.4502483" lon="9.8895983"><ele>84.0</ele><time>2026-05-01T12:57:59.726Z</time></trkpt><trkpt lat="45.4502933" lon="9.889735"><ele>84.0</ele><time>2026-05-01T12:58:01.726Z</time></trkpt><trkpt lat="45.4503233" lon="9.8898783"><ele>84.0</ele><time>2026-05-01T12:58:03.726Z</time></trkpt><trkpt lat="45.45036" lon="9.890015"><ele>84.0</ele><time>2026-05-01T12:58:05.726Z</time></trkpt><trkpt lat="45.450415" lon="9.890145"><ele>84.0</ele><time>2026-05-01T12:58:07.726Z</time></trkpt><trkpt lat="45.4504817" lon="9.89026"><ele>84.5</ele><time>2026-05-01T12:58:09.726Z</time></trkpt><trkpt lat="45.450565" lon="9.8903633"><ele>85.0</ele><time>2026-05-01T12:58:11.726Z</time></trkpt><trkpt lat="45.4506517" lon="9.89048"><ele>85.5</ele><time>2026-05-01T12:58:13.726Z</time></trkpt><trkpt lat="45.4507417" lon="9.8905767"><ele>86.0</ele><time>2026-05-01T12:58:15.726Z</time></trkpt><trkpt lat="45.45083" lon="9.8906667"><ele>86.0</ele><time>2026-05-01T12:58:17.726Z</time></trkpt><trkpt lat="45.45093" lon="9.89075"><ele>86.0</ele><time>2026-05-01T12:58:19.726Z</time></trkpt><trkpt lat="45.45102" lon="9.8908283"><ele>86.0</ele><time>2026-05-01T12:58:21.726Z</time></trkpt><trkpt lat="45.45111" lon="9.8909067"><ele>86.0</ele><time>2026-05-01T12:58:23.726Z</time></trkpt><trkpt lat="45.4512033" lon="9.8909817"><ele>86.0</ele><time>2026-05-01T12:58:25.726Z</time></trkpt><trkpt lat="45.4513117" lon="9.8910383"><ele>86.19999999999999</ele><time>2026-05-01T12:58:27.726Z</time></trkpt><trkpt lat="45.4514167" lon="9.8910733"><ele>86.39999999999999</ele><time>2026-05-01T12:58:29.726Z</time></trkpt><trkpt lat="45.4515267" lon="9.891075"><ele>86.6</ele><time>2026-05-01T12:58:31.726Z</time></trkpt><trkpt lat="45.45164" lon="9.8910917"><ele>86.8</ele><time>2026-05-01T12:58:33.726Z</time></trkpt><trkpt lat="45.451755" lon="9.8911167"><ele>87.0</ele><time>2026-05-01T12:58:35.726Z</time></trkpt><trkpt lat="45.45187" lon="9.8911433"><ele>87.0</ele><time>2026-05-01T12:58:37.726Z</time></trkpt><trkpt lat="45.4519683" lon="9.8911333"><ele>87.0</ele><time>2026-05-01T12:58:39.726Z</time></trkpt><trkpt lat="45.4520733" lon="9.8911183"><ele>87.0</ele><time>2026-05-01T12:58:41.726Z</time></trkpt><trkpt lat="45.4521833" lon="9.8911067"><ele>87.0</ele><time>2026-05-01T12:58:43.726Z</time></trkpt><trkpt lat="45.4522733" lon="9.8910983"><ele>87.0</ele><time>2026-05-01T12:58:45.726Z</time></trkpt><trkpt lat="45.4523783" lon="9.8910617"><ele>86.8</ele><time>2026-05-01T12:58:47.726Z</time></trkpt><trkpt lat="45.4524817" lon="9.891025"><ele>86.6</ele><time>2026-05-01T12:58:49.726Z</time></trkpt><trkpt lat="45.4525683" lon="9.8909733"><ele>86.39999999999999</ele><time>2026-05-01T12:58:51.726Z</time></trkpt><trkpt lat="45.4526717" lon="9.8908983"><ele>86.19999999999999</ele><time>2026-05-01T12:58:53.726Z</time></trkpt><trkpt lat="45.45278" lon="9.8908417"><ele>86.0</ele><time>2026-05-01T12:58:55.726Z</time></trkpt><trkpt lat="45.4528833" lon="9.8907633"><ele>86.0</ele><time>2026-05-01T12:58:57.726Z</time></trkpt><trkpt lat="45.4529833" lon="9.890695"><ele>86.0</ele><time>2026-05-01T12:58:59.726Z</time></trkpt><trkpt lat="45.453075" lon="9.890605"><ele>86.0</ele><time>2026-05-01T12:59:01.726Z</time></trkpt><trkpt lat="45.45317" lon="9.8905283"><ele>86.0</ele><time>2026-05-01T12:59:03.726Z</time></trkpt><trkpt lat="45.4532733" lon="9.8904417"><ele>86.0</ele><time>2026-05-01T12:59:05.726Z</time></trkpt><trkpt lat="45.453375" lon="9.8903733"><ele>86.0</ele><time>2026-05-01T12:59:07.726Z</time></trkpt><trkpt lat="45.4534717" lon="9.8903033"><ele>86.0</ele><time>2026-05-01T12:59:09.725Z</time></trkpt><trkpt lat="45.45357" lon="9.8902467"><ele>86.0</ele><time>2026-05-01T12:59:11.725Z</time></trkpt><trkpt lat="45.4536733" lon="9.8902033"><ele>86.0</ele><time>2026-05-01T12:59:13.725Z</time></trkpt><trkpt lat="45.4537783" lon="9.8901867"><ele>85.83333333333334</ele><time>2026-05-01T12:59:15.725Z</time></trkpt><trkpt lat="45.45387" lon="9.8901717"><ele>85.66666666666667</ele><time>2026-05-01T12:59:17.725Z</time></trkpt><trkpt lat="45.4539483" lon="9.8901533"><ele>85.5</ele><time>2026-05-01T12:59:19.725Z</time></trkpt><trkpt lat="45.4540267" lon="9.89014"><ele>85.33333333333333</ele><time>2026-05-01T12:59:21.725Z</time></trkpt><trkpt lat="45.4540967" lon="9.8901333"><ele>85.16666666666666</ele><time>2026-05-01T12:59:23.725Z</time></trkpt><trkpt lat="45.4541817" lon="9.8900917"><ele>85.0</ele><time>2026-05-01T12:59:26.725Z</time></trkpt><trkpt lat="45.4542583" lon="9.890085"><ele>85.0</ele><time>2026-05-01T12:59:41.725Z</time></trkpt><trkpt lat="45.45433" lon="9.8900717"><ele>85.0</ele><time>2026-05-01T12:59:46.725Z</time></trkpt><trkpt lat="45.454405" lon="9.890075"><ele>85.0</ele><time>2026-05-01T12:59:50.725Z</time></trkpt><trkpt lat="45.4544683" lon="9.890055"><ele>85.0</ele><time>2026-05-01T12:59:54.725Z</time></trkpt><trkpt lat="45.454545" lon="9.890005"><ele>85.0</ele><time>2026-05-01T12:59:57.725Z</time></trkpt><trkpt lat="45.4546033" lon="9.8899667"><ele>85.0</ele><time>2026-05-01T12:59:59.725Z</time></trkpt><trkpt lat="45.4546833" lon="9.8899133"><ele>85.0</ele><time>2026-05-01T13:00:02.725Z</time></trkpt><trkpt lat="45.454745" lon="9.8898767"><ele>85.16666666666666</ele><time>2026-05-01T13:00:05.725Z</time></trkpt><trkpt lat="45.454805" lon="9.8898317"><ele>85.33333333333333</ele><time>2026-05-01T13:00:09.725Z</time></trkpt><trkpt lat="45.4548667" lon="9.8897767"><ele>85.5</ele><time>2026-05-01T13:00:11.725Z</time></trkpt><trkpt lat="45.454945" lon="9.8897267"><ele>85.66666666666667</ele><time>2026-05-01T13:00:13.725Z</time></trkpt><trkpt lat="45.4550267" lon="9.8896817"><ele>85.83333333333334</ele><time>2026-05-01T13:00:15.725Z</time></trkpt><trkpt lat="45.455115" lon="9.8896317"><ele>86.0</ele><time>2026-05-01T13:00:17.725Z</time></trkpt><trkpt lat="45.4552117" lon="9.889585"><ele>86.0</ele><time>2026-05-01T13:00:19.725Z</time></trkpt><trkpt lat="45.4553083" lon="9.889545"><ele>86.0</ele><time>2026-05-01T13:00:21.725Z</time></trkpt><trkpt lat="45.4554" lon="9.8895133"><ele>86.0</ele><time>2026-05-01T13:00:23.725Z</time></trkpt><trkpt lat="45.4555033" lon="9.8894833"><ele>86.0</ele><time>2026-05-01T13:00:25.725Z</time></trkpt><trkpt lat="45.4556133" lon="9.8894583"><ele>86.0</ele><time>2026-05-01T13:00:27.725Z</time></trkpt><trkpt lat="45.4557183" lon="9.8894567"><ele>86.0</ele><time>2026-05-01T13:00:29.725Z</time></trkpt><trkpt lat="45.455815" lon="9.8894317"><ele>86.0</ele><time>2026-05-01T13:00:31.725Z</time></trkpt><trkpt lat="45.45592" lon="9.8894367"><ele>86.0</ele><time>2026-05-01T13:00:33.725Z</time></trkpt><trkpt lat="45.4560317" lon="9.889445"><ele>86.0</ele><time>2026-05-01T13:00:35.726Z</time></trkpt><trkpt lat="45.456095" lon="9.88945"><ele>86.0</ele><time>2026-05-01T13:00:36.725Z</time></trkpt><trkpt lat="45.4561583" lon="9.88946"><ele>86.0</ele><time>2026-05-01T13:00:37.725Z</time></trkpt><trkpt lat="45.4562767" lon="9.8894833"><ele>86.0</ele><time>2026-05-01T13:00:39.725Z</time></trkpt><trkpt lat="45.4563867" lon="9.8895067"><ele>86.0</ele><time>2026-05-01T13:00:41.725Z</time></trkpt><trkpt lat="45.4565017" lon="9.8895533"><ele>86.0</ele><time>2026-05-01T13:00:43.725Z</time></trkpt><trkpt lat="45.4566133" lon="9.889605"><ele>86.0</ele><time>2026-05-01T13:00:45.725Z</time></trkpt><trkpt lat="45.4566733" lon="9.88964"><ele>86.0</ele><time>2026-05-01T13:00:46.725Z</time></trkpt><trkpt lat="45.4567767" lon="9.889725"><ele>86.0</ele><time>2026-05-01T13:00:48.725Z</time></trkpt><trkpt lat="45.4568867" lon="9.8897933"><ele>86.0</ele><time>2026-05-01T13:00:50.725Z</time></trkpt><trkpt lat="45.45699" lon="9.889855"><ele>86.0</ele><time>2026-05-01T13:00:52.725Z</time></trkpt><trkpt lat="45.4570867" lon="9.8899183"><ele>86.0</ele><time>2026-05-01T13:00:54.725Z</time></trkpt><trkpt lat="45.4571917" lon="9.8899917"><ele>86.25</ele><time>2026-05-01T13:00:56.725Z</time></trkpt><trkpt lat="45.4572867" lon="9.8900767"><ele>86.5</ele><time>2026-05-01T13:00:58.725Z</time></trkpt><trkpt lat="45.4573817" lon="9.890165"><ele>86.75</ele><time>2026-05-01T13:01:00.725Z</time></trkpt><trkpt lat="45.4574625" lon="9.8902737"><ele>87.0</ele><time>2026-05-01T13:01:02.725Z</time></trkpt><trkpt lat="45.457541" lon="9.8904022"><ele>87.33333333333333</ele><time>2026-05-01T13:01:04.725Z</time></trkpt><trkpt lat="45.4576055" lon="9.8905225"><ele>87.66666666666667</ele><time>2026-05-01T13:01:06.725Z</time></trkpt><trkpt lat="45.457709" lon="9.8905829"><ele>88.0</ele><time>2026-05-01T13:01:08.725Z</time></trkpt><trkpt lat="45.4577722" lon="9.8905962"><ele>88.33333333333334</ele><time>2026-05-01T13:01:09.725Z</time></trkpt><trkpt lat="45.4578367" lon="9.8906098"><ele>88.66666666666667</ele><time>2026-05-01T13:01:10.725Z</time></trkpt><trkpt lat="45.4579011" lon="9.8906219"><ele>89.0</ele><time>2026-05-01T13:01:11.725Z</time></trkpt><trkpt lat="45.4579647" lon="9.8906224"><ele>89.4</ele><time>2026-05-01T13:01:12.725Z</time></trkpt><trkpt lat="45.4580816" lon="9.8906338"><ele>89.80000000000001</ele><time>2026-05-01T13:01:14.725Z</time></trkpt><trkpt lat="45.4582055" lon="9.8906402"><ele>90.19999999999999</ele><time>2026-05-01T13:01:16.725Z</time></trkpt><trkpt lat="45.4582699" lon="9.890661"><ele>90.6</ele><time>2026-05-01T13:01:17.725Z</time></trkpt><trkpt lat="45.4583807" lon="9.8907145"><ele>91.0</ele><time>2026-05-01T13:01:19.725Z</time></trkpt><trkpt lat="45.4584745" lon="9.8907893"><ele>91.0</ele><time>2026-05-01T13:01:21.725Z</time></trkpt><trkpt lat="45.4585787" lon="9.8908661"><ele>91.0</ele><time>2026-05-01T13:01:23.725Z</time></trkpt><trkpt lat="45.4586923" lon="9.8909059"><ele>91.0</ele><time>2026-05-01T13:01:25.725Z</time></trkpt><trkpt lat="45.4588008" lon="9.890904"><ele>91.0</ele><time>2026-05-01T13:01:27.725Z</time></trkpt><trkpt lat="45.4588981" lon="9.8908526"><ele>91.0</ele><time>2026-05-01T13:01:29.725Z</time></trkpt><trkpt lat="45.4589984" lon="9.8907885"><ele>91.5</ele><time>2026-05-01T13:01:31.725Z</time></trkpt><trkpt lat="45.4591048" lon="9.890763"><ele>92.0</ele><time>2026-05-01T13:01:33.726Z</time></trkpt><trkpt lat="45.4591967" lon="9.8906833"><ele>92.5</ele><time>2026-05-01T13:01:35.725Z</time></trkpt><trkpt lat="45.45925" lon="9.890635"><ele>93.0</ele><time>2026-05-01T13:01:36.725Z</time></trkpt><trkpt lat="45.4593" lon="9.89058"><ele>93.5</ele><time>2026-05-01T13:01:37.725Z</time></trkpt><trkpt lat="45.4593483" lon="9.8905183"><ele>94.0</ele><time>2026-05-01T13:01:38.725Z</time></trkpt><trkpt lat="45.4593933" lon="9.8904533"><ele>94.0</ele><time>2026-05-01T13:01:39.725Z</time></trkpt><trkpt lat="45.4594717" lon="9.890325"><ele>94.0</ele><time>2026-05-01T13:01:41.726Z</time></trkpt><trkpt lat="45.4595183" lon="9.8902633"><ele>94.0</ele><time>2026-05-01T13:01:42.725Z</time></trkpt><trkpt lat="45.4596167" lon="9.8901733"><ele>94.0</ele><time>2026-05-01T13:01:44.725Z</time></trkpt><trkpt lat="45.459735" lon="9.8900983"><ele>94.0</ele><time>2026-05-01T13:01:46.725Z</time></trkpt><trkpt lat="45.4598" lon="9.8900817"><ele>93.4</ele><time>2026-05-01T13:01:47.725Z</time></trkpt><trkpt lat="45.4598633" lon="9.8900733"><ele>92.80000000000001</ele><time>2026-05-01T13:01:48.725Z</time></trkpt><trkpt lat="45.4599283" lon="9.89007"><ele>92.19999999999999</ele><time>2026-05-01T13:01:49.725Z</time></trkpt><trkpt lat="45.4600333" lon="9.89007"><ele>91.6</ele><time>2026-05-01T13:01:51.725Z</time></trkpt><trkpt lat="45.460145" lon="9.8900683"><ele>91.0</ele><time>2026-05-01T13:01:53.726Z</time></trkpt><trkpt lat="45.46026" lon="9.890075"><ele>91.6</ele><time>2026-05-01T13:01:55.725Z</time></trkpt><trkpt lat="45.4603533" lon="9.890095"><ele>92.19999999999999</ele><time>2026-05-01T13:01:57.725Z</time></trkpt><trkpt lat="45.460435" lon="9.8901517"><ele>92.80000000000001</ele><time>2026-05-01T13:01:59.725Z</time></trkpt><trkpt lat="45.4605117" lon="9.8902667"><ele>93.4</ele><time>2026-05-01T13:02:01.725Z</time></trkpt><trkpt lat="45.46058" lon="9.89037"><ele>94.0</ele><time>2026-05-01T13:02:03.725Z</time></trkpt><trkpt lat="45.4606483" lon="9.890485"><ele>94.0</ele><time>2026-05-01T13:02:05.725Z</time></trkpt><trkpt lat="45.4607183" lon="9.8906"><ele>94.0</ele><time>2026-05-01T13:02:07.725Z</time></trkpt><trkpt lat="45.4607967" lon="9.8907217"><ele>94.0</ele><time>2026-05-01T13:02:09.725Z</time></trkpt><trkpt lat="45.460875" lon="9.8908233"><ele>94.0</ele><time>2026-05-01T13:02:11.725Z</time></trkpt><trkpt lat="45.4609467" lon="9.890905"><ele>94.0</ele><time>2026-05-01T13:02:13.725Z</time></trkpt><trkpt lat="45.46102" lon="9.8909367"><ele>94.0</ele><time>2026-05-01T13:02:15.725Z</time></trkpt><trkpt lat="45.4610883" lon="9.890895"><ele>94.0</ele><time>2026-05-01T13:02:19.725Z</time></trkpt><trkpt lat="45.4611617" lon="9.8908217"><ele>94.0</ele><time>2026-05-01T13:02:23.725Z</time></trkpt><trkpt lat="45.46125" lon="9.890745"><ele>94.0</ele><time>2026-05-01T13:02:26.725Z</time></trkpt><trkpt lat="45.4613317" lon="9.8906817"><ele>94.0</ele><time>2026-05-01T13:02:28.725Z</time></trkpt><trkpt lat="45.461395" lon="9.8906117"><ele>94.0</ele><time>2026-05-01T13:02:30.725Z</time></trkpt><trkpt lat="45.4614567" lon="9.8905267"><ele>93.66666666666666</ele><time>2026-05-01T13:02:32.725Z</time></trkpt><trkpt lat="45.4615117" lon="9.8904317"><ele>93.33333333333333</ele><time>2026-05-01T13:02:34.725Z</time></trkpt><trkpt lat="45.4615717" lon="9.8903467"><ele>93.0</ele><time>2026-05-01T13:02:36.725Z</time></trkpt><trkpt lat="45.4616383" lon="9.8902383"><ele>92.66666666666667</ele><time>2026-05-01T13:02:38.725Z</time></trkpt><trkpt lat="45.4617033" lon="9.8901533"><ele>92.33333333333334</ele><time>2026-05-01T13:02:40.725Z</time></trkpt><trkpt lat="45.4617733" lon="9.8900817"><ele>92.0</ele><time>2026-05-01T13:02:42.725Z</time></trkpt><trkpt lat="45.4618567" lon="9.8900533"><ele>92.0</ele><time>2026-05-01T13:02:44.725Z</time></trkpt><trkpt lat="45.4619483" lon="9.8900467"><ele>92.0</ele><time>2026-05-01T13:02:46.725Z</time></trkpt><trkpt lat="45.4620317" lon="9.8900367"><ele>92.0</ele><time>2026-05-01T13:02:48.725Z</time></trkpt><trkpt lat="45.462115" lon="9.8899833"><ele>92.0</ele><time>2026-05-01T13:02:50.725Z</time></trkpt><trkpt lat="45.4621933" lon="9.889915"><ele>92.0</ele><time>2026-05-01T13:02:52.725Z</time></trkpt><trkpt lat="45.46227" lon="9.8898683"><ele>92.0</ele><time>2026-05-01T13:02:54.725Z</time></trkpt><trkpt lat="45.4623683" lon="9.8898383"><ele>92.39999999999999</ele><time>2026-05-01T13:02:56.725Z</time></trkpt><trkpt lat="45.462465" lon="9.8898117"><ele>92.8</ele><time>2026-05-01T13:02:58.725Z</time></trkpt><trkpt lat="45.462565" lon="9.8897917"><ele>93.2</ele><time>2026-05-01T13:03:00.725Z</time></trkpt><trkpt lat="45.4626633" lon="9.8897817"><ele>93.6</ele><time>2026-05-01T13:03:02.725Z</time></trkpt><trkpt lat="45.4627633" lon="9.8897783"><ele>94.0</ele><time>2026-05-01T13:03:04.725Z</time></trkpt><trkpt lat="45.462855" lon="9.88979"><ele>94.0</ele><time>2026-05-01T13:03:06.725Z</time></trkpt><trkpt lat="45.4629367" lon="9.88979"><ele>94.0</ele><time>2026-05-01T13:03:08.725Z</time></trkpt><trkpt lat="45.46301" lon="9.8897967"><ele>94.0</ele><time>2026-05-01T13:03:10.725Z</time></trkpt><trkpt lat="45.4630817" lon="9.8898"><ele>94.0</ele><time>2026-05-01T13:03:12.725Z</time></trkpt><trkpt lat="45.4631533" lon="9.8898417"><ele>94.0</ele><time>2026-05-01T13:03:15.725Z</time></trkpt><trkpt lat="45.4631717" lon="9.88993"><ele>94.0</ele><time>2026-05-01T13:03:18.725Z</time></trkpt><trkpt lat="45.4632167" lon="9.8900183"><ele>94.0</ele><time>2026-05-01T13:03:21.725Z</time></trkpt><trkpt lat="45.4632517" lon="9.8901317"><ele>93.83333333333333</ele><time>2026-05-01T13:03:24.725Z</time></trkpt><trkpt lat="45.4632967" lon="9.8902067"><ele>93.66666666666666</ele><time>2026-05-01T13:03:26.725Z</time></trkpt><trkpt lat="45.463345" lon="9.89029"><ele>93.5</ele><time>2026-05-01T13:03:28.725Z</time></trkpt><trkpt lat="45.463395" lon="9.89037"><ele>93.33333333333333</ele><time>2026-05-01T13:03:30.725Z</time></trkpt><trkpt lat="45.4634567" lon="9.8904383"><ele>93.16666666666667</ele><time>2026-05-01T13:03:33.724Z</time></trkpt><trkpt lat="45.4635483" lon="9.8904583"><ele>93.0</ele><time>2026-05-01T13:03:37.724Z</time></trkpt><trkpt lat="45.46362" lon="9.8904283"><ele>93.0</ele><time>2026-05-01T13:03:40.724Z</time></trkpt><trkpt lat="45.4636983" lon="9.8903683"><ele>93.0</ele><time>2026-05-01T13:03:48.724Z</time></trkpt><trkpt lat="45.4637767" lon="9.890335"><ele>93.0</ele><time>2026-05-01T13:03:53.724Z</time></trkpt><trkpt lat="45.4638417" lon="9.8903267"><ele>93.0</ele><time>2026-05-01T13:03:56.724Z</time></trkpt><trkpt lat="45.4639233" lon="9.890325"><ele>93.0</ele><time>2026-05-01T13:04:00.724Z</time></trkpt><trkpt lat="45.4639933" lon="9.8903217"><ele>93.0</ele><time>2026-05-01T13:04:03.725Z</time></trkpt><trkpt lat="45.4640567" lon="9.89034"><ele>93.33333333333333</ele><time>2026-05-01T13:04:06.724Z</time></trkpt><trkpt lat="45.4641217" lon="9.8903267"><ele>93.66666666666667</ele><time>2026-05-01T13:04:10.724Z</time></trkpt><trkpt lat="45.4641517" lon="9.890485"><ele>94.0</ele><time>2026-05-01T13:04:52.724Z</time></trkpt><trkpt lat="45.4642483" lon="9.8903933"><ele>94.33333333333334</ele><time>2026-05-01T13:05:06.724Z</time></trkpt><trkpt lat="45.4642967" lon="9.89032"><ele>94.66666666666667</ele><time>2026-05-01T13:05:09.724Z</time></trkpt><trkpt lat="45.4643467" lon="9.8902317"><ele>95.0</ele><time>2026-05-01T13:05:12.724Z</time></trkpt><trkpt lat="45.464405" lon="9.8901383"><ele>95.16666666666667</ele><time>2026-05-01T13:05:15.724Z</time></trkpt><trkpt lat="45.4644517" lon="9.8900517"><ele>95.33333333333334</ele><time>2026-05-01T13:05:18.724Z</time></trkpt><trkpt lat="45.4645017" lon="9.8899733"><ele>95.5</ele><time>2026-05-01T13:05:21.725Z</time></trkpt><trkpt lat="45.464565" lon="9.889915"><ele>95.66666666666667</ele><time>2026-05-01T13:05:24.724Z</time></trkpt><trkpt lat="45.4646183" lon="9.8898383"><ele>95.83333333333333</ele><time>2026-05-01T13:05:27.724Z</time></trkpt><trkpt lat="45.4645617" lon="9.8899283"><ele>96.0</ele><time>2026-05-01T13:06:01.724Z</time></trkpt><trkpt lat="45.4645133" lon="9.889995"><ele>95.99999999999999</ele><time>2026-05-01T13:06:06.724Z</time></trkpt><trkpt lat="45.4644633" lon="9.8900617"><ele>96.0</ele><time>2026-05-01T13:06:10.724Z</time></trkpt><trkpt lat="45.4644167" lon="9.8901317"><ele>96.0</ele><time>2026-05-01T13:06:14.724Z</time></trkpt><trkpt lat="45.464375" lon="9.8902333"><ele>96.0</ele><time>2026-05-01T13:06:18.724Z</time></trkpt><trkpt lat="45.4643417" lon="9.8903167"><ele>96.0</ele><time>2026-05-01T13:06:21.724Z</time></trkpt><trkpt lat="45.4642983" lon="9.8903833"><ele>95.99999999999999</ele><time>2026-05-01T13:06:24.724Z</time></trkpt><trkpt lat="45.464235" lon="9.8904433"><ele>96.0</ele><time>2026-05-01T13:06:27.724Z</time></trkpt><trkpt lat="45.4641683" lon="9.8904783"><ele>95.83333333333333</ele><time>2026-05-01T13:06:30.724Z</time></trkpt><trkpt lat="45.4641" lon="9.8904817"><ele>95.66666666666667</ele><time>2026-05-01T13:06:33.724Z</time></trkpt><trkpt lat="45.4639983" lon="9.890365"><ele>95.5</ele><time>2026-05-01T13:06:54.724Z</time></trkpt><trkpt lat="45.463905" lon="9.8903583"><ele>95.33333333333334</ele><time>2026-05-01T13:07:07.724Z</time></trkpt><trkpt lat="45.4638567" lon="9.8902767"><ele>95.16666666666667</ele><time>2026-05-01T13:07:22.724Z</time></trkpt><trkpt lat="45.4638617" lon="9.8901833"><ele>95.0</ele><time>2026-05-01T13:07:25.724Z</time></trkpt><trkpt lat="45.4639367" lon="9.8901717"><ele>95.0</ele><time>2026-05-01T13:07:30.724Z</time></trkpt><trkpt lat="45.4640117" lon="9.8901633"><ele>95.0</ele><time>2026-05-01T13:07:34.724Z</time></trkpt><trkpt lat="45.46409" lon="9.89011"><ele>95.0</ele><time>2026-05-01T13:07:37.724Z</time></trkpt><trkpt lat="45.464155" lon="9.890025"><ele>95.0</ele><time>2026-05-01T13:07:40.724Z</time></trkpt><trkpt lat="45.4642017" lon="9.8899533"><ele>95.0</ele><time>2026-05-01T13:07:42.725Z</time></trkpt><trkpt lat="45.4642617" lon="9.889855"><ele>95.0</ele><time>2026-05-01T13:07:45.724Z</time></trkpt><trkpt lat="45.4643167" lon="9.8897967"><ele>95.16666666666667</ele><time>2026-05-01T13:07:47.724Z</time></trkpt><trkpt lat="45.4643883" lon="9.889725"><ele>95.33333333333334</ele><time>2026-05-01T13:07:50.724Z</time></trkpt><trkpt lat="45.46444" lon="9.8896667"><ele>95.5</ele><time>2026-05-01T13:07:52.724Z</time></trkpt><trkpt lat="45.4645" lon="9.8895983"><ele>95.66666666666667</ele><time>2026-05-01T13:07:54.724Z</time></trkpt><trkpt lat="45.464555" lon="9.8895367"><ele>95.83333333333333</ele><time>2026-05-01T13:07:56.724Z</time></trkpt><trkpt lat="45.4646133" lon="9.8894783"><ele>96.0</ele><time>2026-05-01T13:07:58.724Z</time></trkpt><trkpt lat="45.4646833" lon="9.8894233"><ele>96.0</ele><time>2026-05-01T13:08:01.724Z</time></trkpt><trkpt lat="45.4647483" lon="9.8893667"><ele>96.0</ele><time>2026-05-01T13:08:04.724Z</time></trkpt><trkpt lat="45.46479" lon="9.8892583"><ele>96.0</ele><time>2026-05-01T13:08:07.724Z</time></trkpt><trkpt lat="45.4647967" lon="9.8891583"><ele>96.0</ele><time>2026-05-01T13:08:09.724Z</time></trkpt><trkpt lat="45.4647967" lon="9.8890667"><ele>96.0</ele><time>2026-05-01T13:08:11.724Z</time></trkpt><trkpt lat="45.464805" lon="9.8889483"><ele>96.0</ele><time>2026-05-01T13:08:14.723Z</time></trkpt><trkpt lat="45.4648133" lon="9.888835"><ele>96.0</ele><time>2026-05-01T13:08:37.723Z</time></trkpt><trkpt lat="45.4648483" lon="9.8887183"><ele>96.0</ele><time>2026-05-01T13:08:40.723Z</time></trkpt><trkpt lat="45.4648867" lon="9.8886183"><ele>96.0</ele><time>2026-05-01T13:08:43.723Z</time></trkpt><trkpt lat="45.46489" lon="9.8885083"><ele>96.0</ele><time>2026-05-01T13:08:46.723Z</time></trkpt><trkpt lat="45.46487" lon="9.8884217"><ele>96.0</ele><time>2026-05-01T13:08:49.723Z</time></trkpt><trkpt lat="45.4648367" lon="9.8883367"><ele>96.0</ele><time>2026-05-01T13:08:52.723Z</time></trkpt><trkpt lat="45.464805" lon="9.8882217"><ele>96.28571428571428</ele><time>2026-05-01T13:08:55.723Z</time></trkpt><trkpt lat="45.46481" lon="9.8881183"><ele>96.57142857142857</ele><time>2026-05-01T13:08:58.723Z</time></trkpt><trkpt lat="45.464855" lon="9.8880467"><ele>96.85714285714286</ele><time>2026-05-01T13:09:04.724Z</time></trkpt><trkpt lat="45.4649283" lon="9.888055"><ele>97.14285714285714</ele><time>2026-05-01T13:09:08.723Z</time></trkpt><trkpt lat="45.4649817" lon="9.8880017"><ele>97.42857142857143</ele><time>2026-05-01T13:09:12.723Z</time></trkpt><trkpt lat="45.4650333" lon="9.887945"><ele>97.71428571428571</ele><time>2026-05-01T13:09:16.723Z</time></trkpt><trkpt lat="45.4650233" lon="9.8878517"><ele>98.0</ele><time>2026-05-01T13:09:21.723Z</time></trkpt><trkpt lat="45.46505" lon="9.8877667"><ele>97.99999999999999</ele><time>2026-05-01T13:09:24.723Z</time></trkpt><trkpt lat="45.4651117" lon="9.88771"><ele>98.0</ele><time>2026-05-01T13:09:27.723Z</time></trkpt><trkpt lat="45.4651667" lon="9.8876567"><ele>98.0</ele><time>2026-05-01T13:09:30.723Z</time></trkpt><trkpt lat="45.4652333" lon="9.88757"><ele>98.0</ele><time>2026-05-01T13:09:33.723Z</time></trkpt><trkpt lat="45.4653033" lon="9.8874917"><ele>97.99999999999999</ele><time>2026-05-01T13:09:36.723Z</time></trkpt><trkpt lat="45.4653667" lon="9.887415"><ele>98.0</ele><time>2026-05-01T13:09:39.723Z</time></trkpt><trkpt lat="45.4654383" lon="9.8873633"><ele>98.16666666666666</ele><time>2026-05-01T13:09:41.723Z</time></trkpt><trkpt lat="45.46551" lon="9.8873367"><ele>98.33333333333333</ele><time>2026-05-01T13:09:43.723Z</time></trkpt><trkpt lat="45.4655917" lon="9.8873383"><ele>98.5</ele><time>2026-05-01T13:09:45.724Z</time></trkpt><trkpt lat="45.46567" lon="9.8873467"><ele>98.66666666666666</ele><time>2026-05-01T13:09:47.723Z</time></trkpt><trkpt lat="45.465745" lon="9.8873317"><ele>98.83333333333333</ele><time>2026-05-01T13:09:49.723Z</time></trkpt><trkpt lat="45.4658283" lon="9.8872817"><ele>99.0</ele><time>2026-05-01T13:09:51.723Z</time></trkpt><trkpt lat="45.4659033" lon="9.8872433"><ele>99.0</ele><time>2026-05-01T13:09:53.723Z</time></trkpt><trkpt lat="45.4659917" lon="9.8872467"><ele>99.0</ele><time>2026-05-01T13:09:55.723Z</time></trkpt><trkpt lat="45.466055" lon="9.887315"><ele>99.0</ele><time>2026-05-01T13:09:57.723Z</time></trkpt><trkpt lat="45.4661133" lon="9.8873733"><ele>99.0</ele><time>2026-05-01T13:09:59.723Z</time></trkpt><trkpt lat="45.4661583" lon="9.88744"><ele>99.0</ele><time>2026-05-01T13:10:01.723Z</time></trkpt><trkpt lat="45.4662233" lon="9.8874767"><ele>99.0</ele><time>2026-05-01T13:10:03.723Z</time></trkpt><trkpt lat="45.4662983" lon="9.8874817"><ele>99.0</ele><time>2026-05-01T13:10:06.724Z</time></trkpt><trkpt lat="45.4663783" lon="9.8874933"><ele>99.0</ele><time>2026-05-01T13:10:09.723Z</time></trkpt><trkpt lat="45.4664533" lon="9.8874883"><ele>99.0</ele><time>2026-05-01T13:10:12.723Z</time></trkpt><trkpt lat="45.4665483" lon="9.8874533"><ele>99.0</ele><time>2026-05-01T13:10:17.723Z</time></trkpt><trkpt lat="45.4666133" lon="9.8874467"><ele>99.0</ele><time>2026-05-01T13:10:20.723Z</time></trkpt><trkpt lat="45.4666667" lon="9.8873783"><ele>99.0</ele><time>2026-05-01T13:10:25.723Z</time></trkpt><trkpt lat="45.4666933" lon="9.88729"><ele>99.0</ele><time>2026-05-01T13:10:29.723Z</time></trkpt><trkpt lat="45.4667867" lon="9.8872667"><ele>99.0</ele><time>2026-05-01T13:11:53.723Z</time></trkpt><trkpt lat="45.4668483" lon="9.887305"><ele>99.0</ele><time>2026-05-01T13:11:57.724Z</time></trkpt><trkpt lat="45.4669183" lon="9.8873517"><ele>99.0</ele><time>2026-05-01T13:12:01.723Z</time></trkpt><trkpt lat="45.4669767" lon="9.8873933"><ele>99.0</ele><time>2026-05-01T13:12:04.723Z</time></trkpt><trkpt lat="45.4670467" lon="9.887425"><ele>99.0</ele><time>2026-05-01T13:12:08.723Z</time></trkpt><trkpt lat="45.467115" lon="9.8874467"><ele>99.0</ele><time>2026-05-01T13:12:12.723Z</time></trkpt><trkpt lat="45.46718" lon="9.8875733"><ele>99.0</ele><time>2026-05-01T13:12:33.723Z</time></trkpt><trkpt lat="45.467235" lon="9.887715"><ele>99.0</ele><time>2026-05-01T13:12:54.722Z</time></trkpt><trkpt lat="45.46718" lon="9.887625"><ele>99.0</ele><time>2026-05-01T13:13:22.722Z</time></trkpt><trkpt lat="45.467175" lon="9.8874317"><ele>99.0</ele><time>2026-05-01T13:14:23.722Z</time></trkpt><trkpt lat="45.4671117" lon="9.88741"><ele>99.0</ele><time>2026-05-01T13:14:28.722Z</time></trkpt><trkpt lat="45.467035" lon="9.8873883"><ele>99.0</ele><time>2026-05-01T13:14:36.722Z</time></trkpt><trkpt lat="45.4669633" lon="9.8873583"><ele>99.0</ele><time>2026-05-01T13:14:43.723Z</time></trkpt><trkpt lat="45.4669033" lon="9.8873167"><ele>99.0</ele><time>2026-05-01T13:16:07.722Z</time></trkpt><trkpt lat="45.4668167" lon="9.8872667"><ele>99.0</ele><time>2026-05-01T13:16:19.722Z</time></trkpt><trkpt lat="45.4668883" lon="9.8873117"><ele>99.0</ele><time>2026-05-01T13:17:13.722Z</time></trkpt><trkpt lat="45.46695" lon="9.887355"><ele>99.0</ele><time>2026-05-01T13:17:17.721Z</time></trkpt><trkpt lat="45.46701" lon="9.887385"><ele>99.0</ele><time>2026-05-01T13:17:20.721Z</time></trkpt><trkpt lat="45.4670867" lon="9.88741"><ele>98.42857142857143</ele><time>2026-05-01T13:17:24.721Z</time></trkpt><trkpt lat="45.467155" lon="9.8874233"><ele>97.85714285714285</ele><time>2026-05-01T13:17:28.721Z</time></trkpt><trkpt lat="45.4672317" lon="9.88739"><ele>97.28571428571428</ele><time>2026-05-01T13:17:32.721Z</time></trkpt><trkpt lat="45.4672783" lon="9.8873167"><ele>96.71428571428572</ele><time>2026-05-01T13:17:35.721Z</time></trkpt><trkpt lat="45.4673233" lon="9.8872367"><ele>96.14285714285714</ele><time>2026-05-01T13:17:39.721Z</time></trkpt><trkpt lat="45.46733" lon="9.8871433"><ele>95.57142857142857</ele><time>2026-05-01T13:17:43.721Z</time></trkpt><trkpt lat="45.4673133" lon="9.8870283"><ele>95.0</ele><time>2026-05-01T13:17:47.721Z</time></trkpt><trkpt lat="45.4673033" lon="9.8869383"><ele>95.0</ele><time>2026-05-01T13:17:50.721Z</time></trkpt><trkpt lat="45.467305" lon="9.886825"><ele>95.0</ele><time>2026-05-01T13:17:54.721Z</time></trkpt><trkpt lat="45.4673233" lon="9.8866883"><ele>95.0</ele><time>2026-05-01T13:18:10.721Z</time></trkpt><trkpt lat="45.467345" lon="9.8866"><ele>95.0</ele><time>2026-05-01T13:18:14.721Z</time></trkpt><trkpt lat="45.4673633" lon="9.8865133"><ele>95.0</ele><time>2026-05-01T13:18:18.721Z</time></trkpt><trkpt lat="45.467385" lon="9.8864"><ele>95.0</ele><time>2026-05-01T13:18:22.721Z</time></trkpt><trkpt lat="45.467405" lon="9.8863133"><ele>94.71428571428572</ele><time>2026-05-01T13:18:25.721Z</time></trkpt><trkpt lat="45.467455" lon="9.88623"><ele>94.42857142857143</ele><time>2026-05-01T13:18:29.721Z</time></trkpt><trkpt lat="45.46748" lon="9.8861433"><ele>94.14285714285714</ele><time>2026-05-01T13:18:33.721Z</time></trkpt><trkpt lat="45.467455" lon="9.8862433"><ele>93.85714285714286</ele><time>2026-05-01T13:19:49.721Z</time></trkpt><trkpt lat="45.467425" lon="9.8863233"><ele>93.57142857142857</ele><time>2026-05-01T13:19:52.721Z</time></trkpt><trkpt lat="45.467395" lon="9.886405"><ele>93.28571428571429</ele><time>2026-05-01T13:19:55.721Z</time></trkpt><trkpt lat="45.4673733" lon="9.8865133"><ele>93.0</ele><time>2026-05-01T13:19:59.722Z</time></trkpt><trkpt lat="45.4673667" lon="9.8866133"><ele>93.0</ele><time>2026-05-01T13:20:03.721Z</time></trkpt><trkpt lat="45.467335" lon="9.886725"><ele>93.0</ele><time>2026-05-01T13:20:07.721Z</time></trkpt><trkpt lat="45.4673233" lon="9.88682"><ele>93.0</ele><time>2026-05-01T13:20:10.721Z</time></trkpt><trkpt lat="45.46732" lon="9.8869233"><ele>93.0</ele><time>2026-05-01T13:20:14.721Z</time></trkpt><trkpt lat="45.4673317" lon="9.8870383"><ele>93.0</ele><time>2026-05-01T13:20:18.722Z</time></trkpt><trkpt lat="45.467345" lon="9.8871517"><ele>93.0</ele><time>2026-05-01T13:20:22.721Z</time></trkpt><trkpt lat="45.4673333" lon="9.8872467"><ele>93.2</ele><time>2026-05-01T13:20:25.721Z</time></trkpt><trkpt lat="45.4672983" lon="9.887335"><ele>93.4</ele><time>2026-05-01T13:20:29.721Z</time></trkpt><trkpt lat="45.46725" lon="9.8873933"><ele>93.60000000000001</ele><time>2026-05-01T13:20:33.721Z</time></trkpt><trkpt lat="45.467205" lon="9.887545"><ele>93.80000000000001</ele><time>2026-05-01T13:21:04.721Z</time></trkpt><trkpt lat="45.4672333" lon="9.8877033"><ele>94.0</ele><time>2026-05-01T13:21:30.72Z</time></trkpt><trkpt lat="45.4673367" lon="9.88767"><ele>94.0</ele><time>2026-05-01T13:21:57.72Z</time></trkpt><trkpt lat="45.4674283" lon="9.88758"><ele>94.0</ele><time>2026-05-01T13:23:47.72Z</time></trkpt><trkpt lat="45.4675283" lon="9.8875167"><ele>94.0</ele><time>2026-05-01T13:24:04.72Z</time></trkpt><trkpt lat="45.4676233" lon="9.8876033"><ele>94.0</ele><time>2026-05-01T13:24:20.72Z</time></trkpt><trkpt lat="45.4677283" lon="9.88764"><ele>94.0</ele><time>2026-05-01T13:24:33.72Z</time></trkpt><trkpt lat="45.46779" lon="9.887605"><ele>94.0</ele><time>2026-05-01T13:24:46.72Z</time></trkpt><trkpt lat="45.4678933" lon="9.88764"><ele>94.0</ele><time>2026-05-01T13:25:11.719Z</time></trkpt><trkpt lat="45.4679417" lon="9.8875667"><ele>94.0</ele><time>2026-05-01T13:25:15.72Z</time></trkpt><trkpt lat="45.4680167" lon="9.88752"><ele>94.0</ele><time>2026-05-01T13:25:27.719Z</time></trkpt><trkpt lat="45.4681333" lon="9.887545"><ele>94.0</ele><time>2026-05-01T13:25:53.719Z</time></trkpt><trkpt lat="45.4681917" lon="9.8875967"><ele>94.0</ele><time>2026-05-01T13:25:57.719Z</time></trkpt><trkpt lat="45.4682667" lon="9.8876067"><ele>94.14285714285714</ele><time>2026-05-01T13:26:01.719Z</time></trkpt><trkpt lat="45.468285" lon="9.8875167"><ele>94.28571428571428</ele><time>2026-05-01T13:26:06.719Z</time></trkpt><trkpt lat="45.4682817" lon="9.88741"><ele>94.42857142857143</ele><time>2026-05-01T13:26:19.719Z</time></trkpt><trkpt lat="45.4683533" lon="9.8873667"><ele>94.57142857142857</ele><time>2026-05-01T13:26:24.719Z</time></trkpt><trkpt lat="45.46842" lon="9.8873583"><ele>94.71428571428572</ele><time>2026-05-01T13:26:30.719Z</time></trkpt><trkpt lat="45.4684133" lon="9.8874633"><ele>94.85714285714286</ele><time>2026-05-01T13:26:35.719Z</time></trkpt><trkpt lat="45.4683967" lon="9.88756"><ele>95.0</ele><time>2026-05-01T13:26:39.719Z</time></trkpt><trkpt lat="45.4684" lon="9.88775"><ele>95.0</ele><time>2026-05-01T13:26:57.719Z</time></trkpt><trkpt lat="45.4684417" lon="9.8878233"><ele>95.0</ele><time>2026-05-01T13:27:01.719Z</time></trkpt><trkpt lat="45.4685083" lon="9.8878183"><ele>95.0</ele><time>2026-05-01T13:27:05.719Z</time></trkpt><trkpt lat="45.4685783" lon="9.887805"><ele>95.0</ele><time>2026-05-01T13:27:08.719Z</time></trkpt><trkpt lat="45.4686483" lon="9.887775"><ele>95.0</ele><time>2026-05-01T13:27:11.719Z</time></trkpt><trkpt lat="45.4687167" lon="9.8877767"><ele>95.0</ele><time>2026-05-01T13:27:14.719Z</time></trkpt><trkpt lat="45.4687833" lon="9.8877267"><ele>95.0</ele><time>2026-05-01T13:27:18.719Z</time></trkpt><trkpt lat="45.46885" lon="9.887655"><ele>95.66666666666667</ele><time>2026-05-01T13:27:22.719Z</time></trkpt><trkpt lat="45.4689083" lon="9.8875733"><ele>96.33333333333334</ele><time>2026-05-01T13:27:25.719Z</time></trkpt><trkpt lat="45.4689817" lon="9.8875717"><ele>97.0</ele><time>2026-05-01T13:27:30.719Z</time></trkpt><trkpt lat="45.4690533" lon="9.8875233"><ele>97.66666666666667</ele><time>2026-05-01T13:27:36.719Z</time></trkpt><trkpt lat="45.4691133" lon="9.887475"><ele>98.33333333333333</ele><time>2026-05-01T13:27:40.719Z</time></trkpt><trkpt lat="45.4692" lon="9.8874683"><ele>99.0</ele><time>2026-05-01T13:27:44.719Z</time></trkpt><trkpt lat="45.46928" lon="9.88751"><ele>99.0</ele><time>2026-05-01T13:27:47.719Z</time></trkpt><trkpt lat="45.4693383" lon="9.8875467"><ele>99.0</ele><time>2026-05-01T13:27:49.719Z</time></trkpt><trkpt lat="45.4694067" lon="9.88762"><ele>99.0</ele><time>2026-05-01T13:27:52.72Z</time></trkpt><trkpt lat="45.4693717" lon="9.8877183"><ele>99.0</ele><time>2026-05-01T13:28:02.719Z</time></trkpt><trkpt lat="45.4694233" lon="9.887795"><ele>99.0</ele><time>2026-05-01T13:28:07.719Z</time></trkpt><trkpt lat="45.4694567" lon="9.88788"><ele>99.0</ele><time>2026-05-01T13:28:12.72Z</time></trkpt><trkpt lat="45.4695117" lon="9.8878233"><ele>99.0</ele><time>2026-05-01T13:28:16.719Z</time></trkpt><trkpt lat="45.4695667" lon="9.8877717"><ele>98.5</ele><time>2026-05-01T13:28:20.719Z</time></trkpt><trkpt lat="45.469635" lon="9.8878433"><ele>98.0</ele><time>2026-05-01T13:28:23.719Z</time></trkpt><trkpt lat="45.4697117" lon="9.887885"><ele>97.5</ele><time>2026-05-01T13:28:26.719Z</time></trkpt><trkpt lat="45.4697883" lon="9.8879117"><ele>97.0</ele><time>2026-05-01T13:28:29.719Z</time></trkpt><trkpt lat="45.4698767" lon="9.8879367"><ele>96.5</ele><time>2026-05-01T13:28:32.719Z</time></trkpt><trkpt lat="45.4699683" lon="9.8879433"><ele>96.0</ele><time>2026-05-01T13:28:35.719Z</time></trkpt><trkpt lat="45.4700633" lon="9.8879333"><ele>95.99999999999999</ele><time>2026-05-01T13:28:38.719Z</time></trkpt><trkpt lat="45.4701267" lon="9.887935"><ele>96.0</ele><time>2026-05-01T13:28:40.719Z</time></trkpt><trkpt lat="45.4702167" lon="9.88793"><ele>96.0</ele><time>2026-05-01T13:28:43.719Z</time></trkpt><trkpt lat="45.4702833" lon="9.8879233"><ele>96.0</ele><time>2026-05-01T13:28:45.719Z</time></trkpt><trkpt lat="45.4703533" lon="9.8879317"><ele>96.0</ele><time>2026-05-01T13:28:47.719Z</time></trkpt><trkpt lat="45.470425" lon="9.887935"><ele>95.99999999999999</ele><time>2026-05-01T13:28:49.719Z</time></trkpt><trkpt lat="45.4704883" lon="9.8879283"><ele>96.0</ele><time>2026-05-01T13:28:51.719Z</time></trkpt><trkpt lat="45.4705517" lon="9.8878917"><ele>96.0</ele><time>2026-05-01T13:28:53.719Z</time></trkpt><trkpt lat="45.4706167" lon="9.8878717"><ele>96.0</ele><time>2026-05-01T13:28:55.719Z</time></trkpt><trkpt lat="45.4706867" lon="9.8878567"><ele>96.0</ele><time>2026-05-01T13:28:57.719Z</time></trkpt><trkpt lat="45.47075" lon="9.8878483"><ele>96.0</ele><time>2026-05-01T13:28:59.72Z</time></trkpt><trkpt lat="45.4708417" lon="9.88784"><ele>96.0</ele><time>2026-05-01T13:29:02.719Z</time></trkpt><trkpt lat="45.4709433" lon="9.887815"><ele>96.0</ele><time>2026-05-01T13:29:05.719Z</time></trkpt><trkpt lat="45.4710117" lon="9.8877817"><ele>96.0</ele><time>2026-05-01T13:29:07.719Z</time></trkpt><trkpt lat="45.4710767" lon="9.8877483"><ele>96.0</ele><time>2026-05-01T13:29:09.719Z</time></trkpt><trkpt lat="45.47114" lon="9.8877"><ele>96.0</ele><time>2026-05-01T13:29:11.72Z</time></trkpt><trkpt lat="45.471195" lon="9.8876267"><ele>96.0</ele><time>2026-05-01T13:29:13.718Z</time></trkpt><trkpt lat="45.4712367" lon="9.8875383"><ele>96.0</ele><time>2026-05-01T13:29:15.718Z</time></trkpt><trkpt lat="45.47129" lon="9.8874417"><ele>96.0</ele><time>2026-05-01T13:29:18.719Z</time></trkpt><trkpt lat="45.47133" lon="9.8873517"><ele>96.16666666666667</ele><time>2026-05-01T13:29:20.718Z</time></trkpt><trkpt lat="45.4713683" lon="9.887275"><ele>96.33333333333334</ele><time>2026-05-01T13:29:22.718Z</time></trkpt><trkpt lat="45.4714217" lon="9.8871867"><ele>96.5</ele><time>2026-05-01T13:29:25.718Z</time></trkpt><trkpt lat="45.471475" lon="9.8871333"><ele>96.66666666666667</ele><time>2026-05-01T13:29:27.718Z</time></trkpt><trkpt lat="45.47154" lon="9.887055"><ele>96.83333333333334</ele><time>2026-05-01T13:29:29.718Z</time></trkpt><trkpt lat="45.4715967" lon="9.8869633"><ele>97.0</ele><time>2026-05-01T13:29:31.718Z</time></trkpt><trkpt lat="45.4716367" lon="9.886855"><ele>97.33333333333334</ele><time>2026-05-01T13:29:33.718Z</time></trkpt><trkpt lat="45.4716733" lon="9.88675"><ele>97.66666666666667</ele><time>2026-05-01T13:29:35.718Z</time></trkpt><trkpt lat="45.47172" lon="9.8866533"><ele>98.0</ele><time>2026-05-01T13:29:37.718Z</time></trkpt><trkpt lat="45.4717617" lon="9.88656"><ele>98.33333333333334</ele><time>2026-05-01T13:29:39.718Z</time></trkpt><trkpt lat="45.471795" lon="9.8864683"><ele>98.66666666666667</ele><time>2026-05-01T13:29:41.718Z</time></trkpt><trkpt lat="45.4718383" lon="9.8863767"><ele>99.0</ele><time>2026-05-01T13:29:43.718Z</time></trkpt><trkpt lat="45.4718767" lon="9.8862867"><ele>99.0</ele><time>2026-05-01T13:29:45.718Z</time></trkpt><trkpt lat="45.471925" lon="9.8862067"><ele>99.0</ele><time>2026-05-01T13:29:47.718Z</time></trkpt><trkpt lat="45.4719783" lon="9.886125"><ele>99.0</ele><time>2026-05-01T13:29:49.718Z</time></trkpt><trkpt lat="45.472025" lon="9.8860167"><ele>99.0</ele><time>2026-05-01T13:29:52.718Z</time></trkpt><trkpt lat="45.47201" lon="9.885925"><ele>99.0</ele><time>2026-05-01T13:29:55.718Z</time></trkpt><trkpt lat="45.4719533" lon="9.8858833"><ele>99.0</ele><time>2026-05-01T13:29:58.718Z</time></trkpt><trkpt lat="45.47189" lon="9.8858933"><ele>99.0</ele><time>2026-05-01T13:30:01.718Z</time></trkpt><trkpt lat="45.4718267" lon="9.8859017"><ele>98.83333333333333</ele><time>2026-05-01T13:30:05.718Z</time></trkpt><trkpt lat="45.4717583" lon="9.8859083"><ele>98.66666666666666</ele><time>2026-05-01T13:30:10.718Z</time></trkpt><trkpt lat="45.4718333" lon="9.8858683"><ele>98.5</ele><time>2026-05-01T13:30:17.718Z</time></trkpt><trkpt lat="45.4719183" lon="9.885855"><ele>98.33333333333333</ele><time>2026-05-01T13:30:20.718Z</time></trkpt><trkpt lat="45.4719767" lon="9.885795"><ele>98.16666666666666</ele><time>2026-05-01T13:30:23.718Z</time></trkpt><trkpt lat="45.4719817" lon="9.8856933"><ele>98.0</ele><time>2026-05-01T13:30:26.718Z</time></trkpt><trkpt lat="45.4719733" lon="9.885585"><ele>97.99999999999999</ele><time>2026-05-01T13:30:29.718Z</time></trkpt><trkpt lat="45.472005" lon="9.88573"><ele>98.0</ele><time>2026-05-01T13:30:54.718Z</time></trkpt><trkpt lat="45.4720433" lon="9.8858733"><ele>98.0</ele><time>2026-05-01T13:31:04.718Z</time></trkpt><trkpt lat="45.4721217" lon="9.88586"><ele>98.0</ele><time>2026-05-01T13:31:19.718Z</time></trkpt><trkpt lat="45.4721683" lon="9.885795"><ele>97.99999999999999</ele><time>2026-05-01T13:31:22.718Z</time></trkpt><trkpt lat="45.4722233" lon="9.8857317"><ele>98.0</ele><time>2026-05-01T13:31:25.718Z</time></trkpt><trkpt lat="45.47229" lon="9.88566"><ele>98.16666666666666</ele><time>2026-05-01T13:31:28.718Z</time></trkpt><trkpt lat="45.4723517" lon="9.8855683"><ele>98.33333333333333</ele><time>2026-05-01T13:31:31.718Z</time></trkpt><trkpt lat="45.4723983" lon="9.8855067"><ele>98.5</ele><time>2026-05-01T13:31:33.718Z</time></trkpt><trkpt lat="45.4724683" lon="9.885425"><ele>98.66666666666666</ele><time>2026-05-01T13:31:36.719Z</time></trkpt><trkpt lat="45.4725067" lon="9.8853517"><ele>98.83333333333333</ele><time>2026-05-01T13:31:38.718Z</time></trkpt><trkpt lat="45.4725533" lon="9.8852317"><ele>99.0</ele><time>2026-05-01T13:31:41.718Z</time></trkpt><trkpt lat="45.472585" lon="9.8851183"><ele>99.33333333333333</ele><time>2026-05-01T13:31:44.718Z</time></trkpt><trkpt lat="45.4726133" lon="9.88501"><ele>99.66666666666666</ele><time>2026-05-01T13:31:47.718Z</time></trkpt><trkpt lat="45.4726183" lon="9.884885"><ele>100.0</ele><time>2026-05-01T13:31:50.718Z</time></trkpt><trkpt lat="45.472635" lon="9.8847733"><ele>100.33333333333333</ele><time>2026-05-01T13:31:53.718Z</time></trkpt><trkpt lat="45.4726517" lon="9.884655"><ele>100.66666666666666</ele><time>2026-05-01T13:31:56.718Z</time></trkpt><trkpt lat="45.4726467" lon="9.884535"><ele>101.0</ele><time>2026-05-01T13:31:59.718Z</time></trkpt><trkpt lat="45.4726317" lon="9.8844417"><ele>100.99999999999999</ele><time>2026-05-01T13:32:02.718Z</time></trkpt><trkpt lat="45.4726617" lon="9.884355"><ele>101.0</ele><time>2026-05-01T13:32:05.718Z</time></trkpt><trkpt lat="45.4726517" lon="9.8842533"><ele>101.0</ele><time>2026-05-01T13:32:08.718Z</time></trkpt><trkpt lat="45.47263" lon="9.8841433"><ele>101.0</ele><time>2026-05-01T13:32:11.718Z</time></trkpt><trkpt lat="45.4726167" lon="9.8840283"><ele>100.99999999999999</ele><time>2026-05-01T13:32:14.718Z</time></trkpt><trkpt lat="45.4726117" lon="9.8839017"><ele>101.0</ele><time>2026-05-01T13:32:17.718Z</time></trkpt><trkpt lat="45.4726317" lon="9.8838033"><ele>100.71428571428571</ele><time>2026-05-01T13:32:19.718Z</time></trkpt><trkpt lat="45.4726667" lon="9.8836867"><ele>100.42857142857142</ele><time>2026-05-01T13:32:22.718Z</time></trkpt><trkpt lat="45.47269" lon="9.8835883"><ele>100.14285714285714</ele><time>2026-05-01T13:32:26.718Z</time></trkpt><trkpt lat="45.4727283" lon="9.8835133"><ele>99.85714285714286</ele><time>2026-05-01T13:32:29.718Z</time></trkpt><trkpt lat="45.4727733" lon="9.8834283"><ele>99.57142857142857</ele><time>2026-05-01T13:32:32.718Z</time></trkpt><trkpt lat="45.4727867" lon="9.88334"><ele>99.28571428571429</ele><time>2026-05-01T13:32:35.718Z</time></trkpt><trkpt lat="45.4728067" lon="9.8832517"><ele>99.0</ele><time>2026-05-01T13:32:38.718Z</time></trkpt><trkpt lat="45.4728133" lon="9.8831383"><ele>98.80000000000001</ele><time>2026-05-01T13:32:41.718Z</time></trkpt><trkpt lat="45.472825" lon="9.8830183"><ele>98.60000000000001</ele><time>2026-05-01T13:32:44.718Z</time></trkpt><trkpt lat="45.4728417" lon="9.882885"><ele>98.4</ele><time>2026-05-01T13:32:47.719Z</time></trkpt><trkpt lat="45.4727517" lon="9.8827633"><ele>98.2</ele><time>2026-05-01T13:32:57.718Z</time></trkpt><trkpt lat="45.47269" lon="9.882675"><ele>98.0</ele><time>2026-05-01T13:33:01.718Z</time></trkpt><trkpt lat="45.4726783" lon="9.8825467"><ele>97.99999999999999</ele><time>2026-05-01T13:33:04.718Z</time></trkpt><trkpt lat="45.4727067" lon="9.8824283"><ele>98.0</ele><time>2026-05-01T13:33:07.718Z</time></trkpt><trkpt lat="45.472725" lon="9.88231"><ele>98.0</ele><time>2026-05-01T13:33:10.718Z</time></trkpt><trkpt lat="45.4727417" lon="9.882185"><ele>98.0</ele><time>2026-05-01T13:33:13.718Z</time></trkpt><trkpt lat="45.472755" lon="9.8820633"><ele>97.99999999999999</ele><time>2026-05-01T13:33:16.718Z</time></trkpt><trkpt lat="45.4727483" lon="9.8819483"><ele>98.0</ele><time>2026-05-01T13:33:18.718Z</time></trkpt><trkpt lat="45.472735" lon="9.88183"><ele>97.83333333333333</ele><time>2026-05-01T13:33:20.717Z</time></trkpt><trkpt lat="45.4727267" lon="9.8817167"><ele>97.66666666666666</ele><time>2026-05-01T13:33:22.718Z</time></trkpt><trkpt lat="45.47272" lon="9.8815983"><ele>97.5</ele><time>2026-05-01T13:33:24.717Z</time></trkpt><trkpt lat="45.4727083" lon="9.881485"><ele>97.33333333333334</ele><time>2026-05-01T13:33:26.717Z</time></trkpt><trkpt lat="45.47269" lon="9.8813833"><ele>97.16666666666667</ele><time>2026-05-01T13:33:28.717Z</time></trkpt><trkpt lat="45.4726683" lon="9.8812817"><ele>97.0</ele><time>2026-05-01T13:33:30.717Z</time></trkpt><trkpt lat="45.4726483" lon="9.8811617"><ele>97.00000000000001</ele><time>2026-05-01T13:33:32.717Z</time></trkpt><trkpt lat="45.4726667" lon="9.8810433"><ele>97.0</ele><time>2026-05-01T13:33:34.717Z</time></trkpt><trkpt lat="45.47268" lon="9.880925"><ele>97.0</ele><time>2026-05-01T13:33:36.717Z</time></trkpt><trkpt lat="45.4726833" lon="9.8808033"><ele>97.0</ele><time>2026-05-01T13:33:38.717Z</time></trkpt><trkpt lat="45.472685" lon="9.8806833"><ele>97.00000000000001</ele><time>2026-05-01T13:33:40.717Z</time></trkpt><trkpt lat="45.4726867" lon="9.8805683"><ele>97.0</ele><time>2026-05-01T13:33:42.717Z</time></trkpt><trkpt lat="45.47269" lon="9.8804467"><ele>97.00000000000001</ele><time>2026-05-01T13:33:44.717Z</time></trkpt><trkpt lat="45.472715" lon="9.88032"><ele>97.0</ele><time>2026-05-01T13:33:46.717Z</time></trkpt><trkpt lat="45.472745" lon="9.8802017"><ele>97.0</ele><time>2026-05-01T13:33:48.717Z</time></trkpt><trkpt lat="45.4727783" lon="9.8800833"><ele>97.0</ele><time>2026-05-01T13:33:50.717Z</time></trkpt><trkpt lat="45.4728133" lon="9.8799683"><ele>97.00000000000001</ele><time>2026-05-01T13:33:52.717Z</time></trkpt><trkpt lat="45.4728567" lon="9.8798567"><ele>97.0</ele><time>2026-05-01T13:33:54.717Z</time></trkpt><trkpt lat="45.4728967" lon="9.8797333"><ele>97.00000000000001</ele><time>2026-05-01T13:33:56.717Z</time></trkpt><trkpt lat="45.4729333" lon="9.87961"><ele>97.0</ele><time>2026-05-01T13:33:58.717Z</time></trkpt><trkpt lat="45.47297" lon="9.8794933"><ele>97.0</ele><time>2026-05-01T13:34:00.717Z</time></trkpt><trkpt lat="45.4730067" lon="9.8793783"><ele>97.0</ele><time>2026-05-01T13:34:02.717Z</time></trkpt><trkpt lat="45.473005" lon="9.8792617"><ele>97.00000000000001</ele><time>2026-05-01T13:34:04.717Z</time></trkpt><trkpt lat="45.4729867" lon="9.87915"><ele>97.0</ele><time>2026-05-01T13:34:06.718Z</time></trkpt><trkpt lat="45.4729867" lon="9.87902"><ele>97.16666666666667</ele><time>2026-05-01T13:34:08.717Z</time></trkpt><trkpt lat="45.4729883" lon="9.87891"><ele>97.33333333333334</ele><time>2026-05-01T13:34:10.717Z</time></trkpt><trkpt lat="45.473" lon="9.878785"><ele>97.5</ele><time>2026-05-01T13:34:12.717Z</time></trkpt><trkpt lat="45.4729967" lon="9.8786467"><ele>97.66666666666666</ele><time>2026-05-01T13:34:14.718Z</time></trkpt><trkpt lat="45.4730117" lon="9.8785233"><ele>97.83333333333333</ele><time>2026-05-01T13:34:16.717Z</time></trkpt><trkpt lat="45.4730217" lon="9.8783933"><ele>98.0</ele><time>2026-05-01T13:34:18.717Z</time></trkpt><trkpt lat="45.473035" lon="9.87827"><ele>97.57142857142857</ele><time>2026-05-01T13:34:20.718Z</time></trkpt><trkpt lat="45.4730583" lon="9.8781733"><ele>97.14285714285714</ele><time>2026-05-01T13:34:23.717Z</time></trkpt><trkpt lat="45.4730733" lon="9.8780817"><ele>96.71428571428572</ele><time>2026-05-01T13:39:28.716Z</time></trkpt><trkpt lat="45.4731183" lon="9.8779683"><ele>96.28571428571428</ele><time>2026-05-01T13:39:31.716Z</time></trkpt><trkpt lat="45.47316" lon="9.8778867"><ele>95.85714285714286</ele><time>2026-05-01T13:39:33.716Z</time></trkpt><trkpt lat="45.4732033" lon="9.8778017"><ele>95.42857142857143</ele><time>2026-05-01T13:39:35.716Z</time></trkpt><trkpt lat="45.4732233" lon="9.8777"><ele>95.0</ele><time>2026-05-01T13:39:37.716Z</time></trkpt><trkpt lat="45.4732333" lon="9.8775733"><ele>95.0</ele><time>2026-05-01T13:39:40.716Z</time></trkpt><trkpt lat="45.47326" lon="9.8774767"><ele>95.0</ele><time>2026-05-01T13:40:38.717Z</time></trkpt><trkpt lat="45.4733267" lon="9.8774"><ele>95.0</ele><time>2026-05-01T13:40:41.716Z</time></trkpt><trkpt lat="45.4733783" lon="9.877335"><ele>95.0</ele><time>2026-05-01T13:40:43.716Z</time></trkpt><trkpt lat="45.4734317" lon="9.87726"><ele>95.0</ele><time>2026-05-01T13:40:45.716Z</time></trkpt><trkpt lat="45.4734833" lon="9.877185"><ele>95.0</ele><time>2026-05-01T13:40:47.716Z</time></trkpt><trkpt lat="45.4735333" lon="9.8770967"><ele>95.0</ele><time>2026-05-01T13:40:49.716Z</time></trkpt><trkpt lat="45.473585" lon="9.8770133"><ele>95.0</ele><time>2026-05-01T13:40:51.716Z</time></trkpt><trkpt lat="45.47364" lon="9.87694"><ele>95.0</ele><time>2026-05-01T13:40:53.716Z</time></trkpt><trkpt lat="45.473685" lon="9.8768683"><ele>95.0</ele><time>2026-05-01T13:40:55.716Z</time></trkpt><trkpt lat="45.473735" lon="9.8768083"><ele>95.0</ele><time>2026-05-01T13:40:57.716Z</time></trkpt><trkpt lat="45.4737917" lon="9.8767467"><ele>95.0</ele><time>2026-05-01T13:40:59.716Z</time></trkpt><trkpt lat="45.4738467" lon="9.8766917"><ele>95.0</ele><time>2026-05-01T13:41:01.716Z</time></trkpt><trkpt lat="45.473885" lon="9.8766033"><ele>95.33333333333334</ele><time>2026-05-01T13:41:04.716Z</time></trkpt><trkpt lat="45.47397" lon="9.87663"><ele>95.66666666666667</ele><time>2026-05-01T13:41:17.716Z</time></trkpt><trkpt lat="45.4740433" lon="9.8765983"><ele>96.0</ele><time>2026-05-01T13:41:19.715Z</time></trkpt><trkpt lat="45.474115" lon="9.8765617"><ele>96.33333333333334</ele><time>2026-05-01T13:41:21.715Z</time></trkpt><trkpt lat="45.474195" lon="9.8765217"><ele>96.66666666666667</ele><time>2026-05-01T13:41:23.715Z</time></trkpt><trkpt lat="45.4742683" lon="9.8764967"><ele>97.0</ele><time>2026-05-01T13:41:25.715Z</time></trkpt><trkpt lat="45.4743367" lon="9.8764733"><ele>97.0</ele><time>2026-05-01T13:41:27.715Z</time></trkpt><trkpt lat="45.474415" lon="9.8764467"><ele>97.0</ele><time>2026-05-01T13:41:29.715Z</time></trkpt><trkpt lat="45.4744767" lon="9.8764083"><ele>97.0</ele><time>2026-05-01T13:41:31.715Z</time></trkpt><trkpt lat="45.4745483" lon="9.87639"><ele>97.0</ele><time>2026-05-01T13:41:33.715Z</time></trkpt><trkpt lat="45.47462" lon="9.87638"><ele>97.0</ele><time>2026-05-01T13:41:35.715Z</time></trkpt><trkpt lat="45.474695" lon="9.8763967"><ele>97.0</ele><time>2026-05-01T13:41:37.715Z</time></trkpt><trkpt lat="45.474765" lon="9.8764133"><ele>97.0</ele><time>2026-05-01T13:41:39.715Z</time></trkpt><trkpt lat="45.4748317" lon="9.8764"><ele>97.50000000000001</ele><time>2026-05-01T13:41:41.715Z</time></trkpt><trkpt lat="45.4748983" lon="9.8763833"><ele>98.0</ele><time>2026-05-01T13:41:43.715Z</time></trkpt><trkpt lat="45.474965" lon="9.876375"><ele>98.5</ele><time>2026-05-01T13:41:45.715Z</time></trkpt><trkpt lat="45.47505" lon="9.87637"><ele>99.0</ele><time>2026-05-01T13:41:48.715Z</time></trkpt><trkpt lat="45.4751183" lon="9.8763367"><ele>99.50000000000001</ele><time>2026-05-01T13:41:51.715Z</time></trkpt><trkpt lat="45.475185" lon="9.8763233"><ele>100.0</ele><time>2026-05-01T13:42:12.715Z</time></trkpt><trkpt lat="45.4752917" lon="9.8762983"><ele>100.0</ele><time>2026-05-01T13:43:00.715Z</time></trkpt><trkpt lat="45.4753567" lon="9.8762533"><ele>100.0</ele><time>2026-05-01T13:43:12.715Z</time></trkpt><trkpt lat="45.4753633" lon="9.8761117"><ele>100.0</ele><time>2026-05-01T13:43:55.715Z</time></trkpt><trkpt lat="45.4754583" lon="9.8759917"><ele>100.0</ele><time>2026-05-01T13:45:06.714Z</time></trkpt><trkpt lat="45.47551" lon="9.8759"><ele>100.0</ele><time>2026-05-01T13:45:10.714Z</time></trkpt><trkpt lat="45.4755533" lon="9.8758183"><ele>100.50000000000001</ele><time>2026-05-01T13:45:13.714Z</time></trkpt><trkpt lat="45.4756" lon="9.8757183"><ele>101.0</ele><time>2026-05-01T13:45:16.714Z</time></trkpt><trkpt lat="45.4756433" lon="9.8756333"><ele>101.5</ele><time>2026-05-01T13:45:19.714Z</time></trkpt><trkpt lat="45.475695" lon="9.8755567"><ele>102.0</ele><time>2026-05-01T13:45:22.714Z</time></trkpt><trkpt lat="45.4757533" lon="9.8754883"><ele>102.50000000000001</ele><time>2026-05-01T13:45:25.714Z</time></trkpt><trkpt lat="45.4758217" lon="9.8754383"><ele>103.0</ele><time>2026-05-01T13:45:28.715Z</time></trkpt><trkpt lat="45.4758983" lon="9.8753683"><ele>103.00000000000001</ele><time>2026-05-01T13:45:31.714Z</time></trkpt><trkpt lat="45.475975" lon="9.87531"><ele>103.0</ele><time>2026-05-01T13:45:34.714Z</time></trkpt><trkpt lat="45.4760583" lon="9.8752667"><ele>103.0</ele><time>2026-05-01T13:45:37.714Z</time></trkpt><trkpt lat="45.4760967" lon="9.875185"><ele>103.0</ele><time>2026-05-01T13:45:40.714Z</time></trkpt><trkpt lat="45.47604" lon="9.8751217"><ele>103.00000000000001</ele><time>2026-05-01T13:45:44.714Z</time></trkpt><trkpt lat="45.4760033" lon="9.87503"><ele>103.0</ele><time>2026-05-01T13:45:49.714Z</time></trkpt><trkpt lat="45.4760717" lon="9.874965"><ele>103.00000000000001</ele><time>2026-05-01T13:45:53.714Z</time></trkpt><trkpt lat="45.47615" lon="9.8749317"><ele>103.0</ele><time>2026-05-01T13:45:56.714Z</time></trkpt><trkpt lat="45.4762183" lon="9.8749217"><ele>103.0</ele><time>2026-05-01T13:45:59.714Z</time></trkpt><trkpt lat="45.4762883" lon="9.87489"><ele>103.0</ele><time>2026-05-01T13:47:20.714Z</time></trkpt><trkpt lat="45.4763567" lon="9.8748667"><ele>103.00000000000001</ele><time>2026-05-01T13:47:23.714Z</time></trkpt><trkpt lat="45.4764383" lon="9.8748433"><ele>103.0</ele><time>2026-05-01T13:47:26.714Z</time></trkpt><trkpt lat="45.4765283" lon="9.87481"><ele>103.16666666666667</ele><time>2026-05-01T13:47:29.714Z</time></trkpt><trkpt lat="45.476595" lon="9.8747733"><ele>103.33333333333334</ele><time>2026-05-01T13:47:31.714Z</time></trkpt><trkpt lat="45.476665" lon="9.874735"><ele>103.5</ele><time>2026-05-01T13:47:33.714Z</time></trkpt><trkpt lat="45.476735" lon="9.87469"><ele>103.66666666666666</ele><time>2026-05-01T13:47:35.714Z</time></trkpt><trkpt lat="45.4768083" lon="9.87464"><ele>103.83333333333333</ele><time>2026-05-01T13:47:37.714Z</time></trkpt><trkpt lat="45.476885" lon="9.8745917"><ele>104.0</ele><time>2026-05-01T13:47:39.714Z</time></trkpt><trkpt lat="45.47696" lon="9.8745333"><ele>103.99999999999999</ele><time>2026-05-01T13:47:41.714Z</time></trkpt><trkpt lat="45.4770317" lon="9.8744617"><ele>104.0</ele><time>2026-05-01T13:47:43.714Z</time></trkpt><trkpt lat="45.4771017" lon="9.874385"><ele>104.0</ele><time>2026-05-01T13:47:45.714Z</time></trkpt><trkpt lat="45.4771583" lon="9.8742917"><ele>104.0</ele><time>2026-05-01T13:47:47.714Z</time></trkpt><trkpt lat="45.477205" lon="9.874185"><ele>103.99999999999999</ele><time>2026-05-01T13:47:49.715Z</time></trkpt><trkpt lat="45.47724" lon="9.874075"><ele>104.0</ele><time>2026-05-01T13:47:51.714Z</time></trkpt><trkpt lat="45.4772667" lon="9.8739517"><ele>103.6</ele><time>2026-05-01T13:47:53.714Z</time></trkpt><trkpt lat="45.4772967" lon="9.8738317"><ele>103.2</ele><time>2026-05-01T13:47:55.714Z</time></trkpt><trkpt lat="45.4773367" lon="9.873715"><ele>102.8</ele><time>2026-05-01T13:47:57.714Z</time></trkpt><trkpt lat="45.4773667" lon="9.8735833"><ele>102.39999999999999</ele><time>2026-05-01T13:47:59.714Z</time></trkpt><trkpt lat="45.47739" lon="9.8734617"><ele>102.0</ele><time>2026-05-01T13:48:01.714Z</time></trkpt><trkpt lat="45.477425" lon="9.873345"><ele>101.8</ele><time>2026-05-01T13:48:03.714Z</time></trkpt><trkpt lat="45.4774567" lon="9.873215"><ele>101.6</ele><time>2026-05-01T13:48:05.715Z</time></trkpt><trkpt lat="45.4774867" lon="9.873095"><ele>101.39999999999999</ele><time>2026-05-01T13:48:07.714Z</time></trkpt><trkpt lat="45.4775033" lon="9.872975"><ele>101.19999999999999</ele><time>2026-05-01T13:48:09.714Z</time></trkpt><trkpt lat="45.4775033" lon="9.87285"><ele>101.0</ele><time>2026-05-01T13:48:11.714Z</time></trkpt><trkpt lat="45.47751" lon="9.872715"><ele>100.6</ele><time>2026-05-01T13:48:13.714Z</time></trkpt><trkpt lat="45.4775167" lon="9.8725883"><ele>100.19999999999999</ele><time>2026-05-01T13:48:15.714Z</time></trkpt><trkpt lat="45.4775183" lon="9.872455"><ele>99.80000000000001</ele><time>2026-05-01T13:48:17.714Z</time></trkpt><trkpt lat="45.47752" lon="9.87233"><ele>99.4</ele><time>2026-05-01T13:48:19.714Z</time></trkpt><trkpt lat="45.4775217" lon="9.8721983"><ele>99.0</ele><time>2026-05-01T13:48:21.714Z</time></trkpt><trkpt lat="45.4775183" lon="9.8720617"><ele>99.0</ele><time>2026-05-01T13:48:23.714Z</time></trkpt><trkpt lat="45.4775267" lon="9.8719283"><ele>99.0</ele><time>2026-05-01T13:48:25.714Z</time></trkpt><trkpt lat="45.4775567" lon="9.8718133"><ele>99.0</ele><time>2026-05-01T13:48:27.715Z</time></trkpt><trkpt lat="45.47759" lon="9.8717067"><ele>99.0</ele><time>2026-05-01T13:48:29.714Z</time></trkpt><trkpt lat="45.4776417" lon="9.8716117"><ele>99.0</ele><time>2026-05-01T13:48:31.714Z</time></trkpt><trkpt lat="45.4777117" lon="9.8715417"><ele>99.0</ele><time>2026-05-01T13:48:33.714Z</time></trkpt><trkpt lat="45.4777867" lon="9.8714817"><ele>99.0</ele><time>2026-05-01T13:48:35.714Z</time></trkpt><trkpt lat="45.4778733" lon="9.8714367"><ele>99.0</ele><time>2026-05-01T13:48:37.714Z</time></trkpt><trkpt lat="45.47796" lon="9.8713983"><ele>99.0</ele><time>2026-05-01T13:48:39.714Z</time></trkpt><trkpt lat="45.4780483" lon="9.8713683"><ele>99.0</ele><time>2026-05-01T13:48:41.714Z</time></trkpt><trkpt lat="45.47814" lon="9.87136"><ele>99.0</ele><time>2026-05-01T13:48:43.714Z</time></trkpt><trkpt lat="45.4782383" lon="9.87136"><ele>99.0</ele><time>2026-05-01T13:48:45.713Z</time></trkpt><trkpt lat="45.4783233" lon="9.8713783"><ele>99.0</ele><time>2026-05-01T13:48:47.713Z</time></trkpt><trkpt lat="45.47839" lon="9.87141"><ele>99.0</ele><time>2026-05-01T13:48:49.713Z</time></trkpt><trkpt lat="45.47846" lon="9.8714367"><ele>99.0</ele><time>2026-05-01T13:48:51.713Z</time></trkpt><trkpt lat="45.4785367" lon="9.871475"><ele>99.0</ele><time>2026-05-01T13:48:53.713Z</time></trkpt><trkpt lat="45.478615" lon="9.8715017"><ele>99.0</ele><time>2026-05-01T13:48:55.713Z</time></trkpt><trkpt lat="45.4786867" lon="9.8715283"><ele>99.0</ele><time>2026-05-01T13:48:57.713Z</time></trkpt><trkpt lat="45.4787633" lon="9.8715667"><ele>99.0</ele><time>2026-05-01T13:48:59.713Z</time></trkpt><trkpt lat="45.478835" lon="9.8716"><ele>99.0</ele><time>2026-05-01T13:49:01.713Z</time></trkpt><trkpt lat="45.47891" lon="9.8716183"><ele>99.0</ele><time>2026-05-01T13:49:03.713Z</time></trkpt><trkpt lat="45.479005" lon="9.8716467"><ele>99.0</ele><time>2026-05-01T13:49:05.713Z</time></trkpt><trkpt lat="45.4790967" lon="9.8716633"><ele>99.0</ele><time>2026-05-01T13:49:07.713Z</time></trkpt><trkpt lat="45.4791883" lon="9.871675"><ele>99.80000000000001</ele><time>2026-05-01T13:49:09.713Z</time></trkpt><trkpt lat="45.4792783" lon="9.8716767"><ele>100.60000000000001</ele><time>2026-05-01T13:49:11.713Z</time></trkpt><trkpt lat="45.479375" lon="9.8716783"><ele>101.4</ele><time>2026-05-01T13:49:13.713Z</time></trkpt><trkpt lat="45.4794683" lon="9.8716817"><ele>102.2</ele><time>2026-05-01T13:49:15.713Z</time></trkpt><trkpt lat="45.4795567" lon="9.8716883"><ele>103.0</ele><time>2026-05-01T13:49:17.713Z</time></trkpt><trkpt lat="45.479655" lon="9.8716933"><ele>103.16666666666667</ele><time>2026-05-01T13:49:19.713Z</time></trkpt><trkpt lat="45.47974" lon="9.8717017"><ele>103.33333333333334</ele><time>2026-05-01T13:49:21.713Z</time></trkpt><trkpt lat="45.4798233" lon="9.87173"><ele>103.5</ele><time>2026-05-01T13:49:23.713Z</time></trkpt><trkpt lat="45.479895" lon="9.8717683"><ele>103.66666666666666</ele><time>2026-05-01T13:49:25.713Z</time></trkpt><trkpt lat="45.4799617" lon="9.8718217"><ele>103.83333333333333</ele><time>2026-05-01T13:49:27.713Z</time></trkpt><trkpt lat="45.4800183" lon="9.8718667"><ele>104.0</ele><time>2026-05-01T13:49:29.713Z</time></trkpt><trkpt lat="45.4801033" lon="9.8719267"><ele>103.33333333333333</ele><time>2026-05-01T13:51:04.713Z</time></trkpt><trkpt lat="45.4801417" lon="9.872015"><ele>102.66666666666666</ele><time>2026-05-01T13:51:08.713Z</time></trkpt><trkpt lat="45.48018" lon="9.8720883"><ele>102.0</ele><time>2026-05-01T13:51:10.713Z</time></trkpt><trkpt lat="45.48021" lon="9.8721917"><ele>101.33333333333334</ele><time>2026-05-01T13:51:12.713Z</time></trkpt><trkpt lat="45.4802417" lon="9.8723133"><ele>100.66666666666667</ele><time>2026-05-01T13:51:14.713Z</time></trkpt><trkpt lat="45.4802767" lon="9.872425"><ele>100.0</ele><time>2026-05-01T13:51:16.713Z</time></trkpt><trkpt lat="45.4803333" lon="9.8725233"><ele>99.4</ele><time>2026-05-01T13:51:18.713Z</time></trkpt><trkpt lat="45.4803683" lon="9.8726583"><ele>98.8</ele><time>2026-05-01T13:51:20.713Z</time></trkpt><trkpt lat="45.48037" lon="9.8727983"><ele>98.19999999999999</ele><time>2026-05-01T13:51:22.713Z</time></trkpt><trkpt lat="45.4803567" lon="9.8729283"><ele>97.6</ele><time>2026-05-01T13:51:24.713Z</time></trkpt><trkpt lat="45.48035" lon="9.8730567"><ele>97.0</ele><time>2026-05-01T13:51:26.713Z</time></trkpt><trkpt lat="45.4803433" lon="9.8731883"><ele>97.0</ele><time>2026-05-01T13:51:28.713Z</time></trkpt><trkpt lat="45.4803383" lon="9.87332"><ele>97.0</ele><time>2026-05-01T13:51:30.713Z</time></trkpt><trkpt lat="45.480325" lon="9.8734517"><ele>97.0</ele><time>2026-05-01T13:51:32.713Z</time></trkpt><trkpt lat="45.4803167" lon="9.8735833"><ele>97.0</ele><time>2026-05-01T13:51:34.713Z</time></trkpt><trkpt lat="45.4803033" lon="9.87372"><ele>97.0</ele><time>2026-05-01T13:51:36.713Z</time></trkpt><trkpt lat="45.480295" lon="9.8738617"><ele>97.39999999999999</ele><time>2026-05-01T13:51:38.713Z</time></trkpt><trkpt lat="45.480285" lon="9.874005"><ele>97.8</ele><time>2026-05-01T13:51:40.713Z</time></trkpt><trkpt lat="45.48028" lon="9.8741533"><ele>98.2</ele><time>2026-05-01T13:51:42.713Z</time></trkpt><trkpt lat="45.4802683" lon="9.8742983"><ele>98.6</ele><time>2026-05-01T13:51:44.713Z</time></trkpt><trkpt lat="45.4802567" lon="9.87444"><ele>99.0</ele><time>2026-05-01T13:51:46.713Z</time></trkpt><trkpt lat="45.4802517" lon="9.874585"><ele>99.16666666666667</ele><time>2026-05-01T13:51:48.713Z</time></trkpt><trkpt lat="45.4802433" lon="9.8747033"><ele>99.33333333333334</ele><time>2026-05-01T13:51:50.713Z</time></trkpt><trkpt lat="45.4802433" lon="9.87481"><ele>99.5</ele><time>2026-05-01T13:51:52.713Z</time></trkpt><trkpt lat="45.48023" lon="9.87492"><ele>99.66666666666667</ele><time>2026-05-01T13:51:54.713Z</time></trkpt><trkpt lat="45.480235" lon="9.87503"><ele>99.83333333333334</ele><time>2026-05-01T13:51:56.713Z</time></trkpt><trkpt lat="45.480235" lon="9.8751367"><ele>100.0</ele><time>2026-05-01T13:51:58.713Z</time></trkpt><trkpt lat="45.4802133" lon="9.87523"><ele>99.85714285714286</ele><time>2026-05-01T13:52:00.713Z</time></trkpt><trkpt lat="45.4802017" lon="9.875355"><ele>99.71428571428572</ele><time>2026-05-01T13:52:03.713Z</time></trkpt><trkpt lat="45.4802" lon="9.87545"><ele>99.57142857142858</ele><time>2026-05-01T13:52:05.714Z</time></trkpt><trkpt lat="45.4801933" lon="9.8755533"><ele>99.42857142857143</ele><time>2026-05-01T13:52:07.713Z</time></trkpt><trkpt lat="45.4801833" lon="9.875655"><ele>99.28571428571428</ele><time>2026-05-01T13:52:09.713Z</time></trkpt><trkpt lat="45.4801817" lon="9.875755"><ele>99.14285714285715</ele><time>2026-05-01T13:52:11.713Z</time></trkpt><trkpt lat="45.4801783" lon="9.8758583"><ele>99.0</ele><time>2026-05-01T13:52:13.713Z</time></trkpt><trkpt lat="45.4801667" lon="9.8759617"><ele>99.0</ele><time>2026-05-01T13:52:15.713Z</time></trkpt><trkpt lat="45.4801567" lon="9.8760683"><ele>99.0</ele><time>2026-05-01T13:52:17.713Z</time></trkpt><trkpt lat="45.4801533" lon="9.876175"><ele>99.0</ele><time>2026-05-01T13:52:19.713Z</time></trkpt><trkpt lat="45.480155" lon="9.876285"><ele>99.0</ele><time>2026-05-01T13:52:21.714Z</time></trkpt><trkpt lat="45.4801517" lon="9.8764"><ele>99.0</ele><time>2026-05-01T13:52:23.713Z</time></trkpt><trkpt lat="45.480135" lon="9.8765133"><ele>99.0</ele><time>2026-05-01T13:52:25.712Z</time></trkpt><trkpt lat="45.4801233" lon="9.8766317"><ele>99.0</ele><time>2026-05-01T13:52:27.712Z</time></trkpt><trkpt lat="45.4801117" lon="9.8767467"><ele>99.0</ele><time>2026-05-01T13:52:29.712Z</time></trkpt><trkpt lat="45.4801067" lon="9.876865"><ele>99.0</ele><time>2026-05-01T13:52:31.712Z</time></trkpt><trkpt lat="45.4801017" lon="9.87699"><ele>99.0</ele><time>2026-05-01T13:52:33.712Z</time></trkpt><trkpt lat="45.4800933" lon="9.8771083"><ele>99.0</ele><time>2026-05-01T13:52:35.712Z</time></trkpt><trkpt lat="45.4800883" lon="9.8772217"><ele>99.0</ele><time>2026-05-01T13:52:37.712Z</time></trkpt><trkpt lat="45.480085" lon="9.8773433"><ele>99.33333333333333</ele><time>2026-05-01T13:52:39.713Z</time></trkpt><trkpt lat="45.4800867" lon="9.8774667"><ele>99.66666666666666</ele><time>2026-05-01T13:52:41.712Z</time></trkpt><trkpt lat="45.48009" lon="9.8775767"><ele>100.0</ele><time>2026-05-01T13:52:43.712Z</time></trkpt><trkpt lat="45.48002" lon="9.8776333"><ele>100.33333333333333</ele><time>2026-05-01T13:52:47.712Z</time></trkpt><trkpt lat="45.4799333" lon="9.8776483"><ele>100.66666666666666</ele><time>2026-05-01T13:52:50.712Z</time></trkpt><trkpt lat="45.4798583" lon="9.8776"><ele>101.0</ele><time>2026-05-01T13:52:52.712Z</time></trkpt><trkpt lat="45.4797767" lon="9.8775683"><ele>101.33333333333333</ele><time>2026-05-01T13:52:54.712Z</time></trkpt><trkpt lat="45.4796983" lon="9.877555"><ele>101.66666666666666</ele><time>2026-05-01T13:52:56.712Z</time></trkpt><trkpt lat="45.4796183" lon="9.8775583"><ele>102.0</ele><time>2026-05-01T13:52:58.712Z</time></trkpt><trkpt lat="45.479535" lon="9.877535"><ele>102.33333333333334</ele><time>2026-05-01T13:53:00.712Z</time></trkpt><trkpt lat="45.4794517" lon="9.8775283"><ele>102.66666666666667</ele><time>2026-05-01T13:53:02.712Z</time></trkpt><trkpt lat="45.4793667" lon="9.87753"><ele>103.0</ele><time>2026-05-01T13:53:04.712Z</time></trkpt><trkpt lat="45.479275" lon="9.8775217"><ele>103.0</ele><time>2026-05-01T13:53:06.712Z</time></trkpt><trkpt lat="45.47918" lon="9.8774933"><ele>103.0</ele><time>2026-05-01T13:53:08.712Z</time></trkpt><trkpt lat="45.4790917" lon="9.8774967"><ele>103.0</ele><time>2026-05-01T13:53:10.712Z</time></trkpt><trkpt lat="45.4790067" lon="9.8775367"><ele>103.0</ele><time>2026-05-01T13:53:12.712Z</time></trkpt><trkpt lat="45.4789183" lon="9.87759"><ele>103.0</ele><time>2026-05-01T13:53:14.712Z</time></trkpt><trkpt lat="45.47883" lon="9.8776283"><ele>102.80000000000001</ele><time>2026-05-01T13:53:16.712Z</time></trkpt><trkpt lat="45.47873" lon="9.877635"><ele>102.6</ele><time>2026-05-01T13:53:18.712Z</time></trkpt><trkpt lat="45.4786367" lon="9.8776367"><ele>102.4</ele><time>2026-05-01T13:53:20.712Z</time></trkpt><trkpt lat="45.47854" lon="9.8776583"><ele>102.19999999999999</ele><time>2026-05-01T13:53:22.712Z</time></trkpt><trkpt lat="45.4784667" lon="9.877705"><ele>102.0</ele><time>2026-05-01T13:53:24.712Z</time></trkpt><trkpt lat="45.4783833" lon="9.8777567"><ele>102.0</ele><time>2026-05-01T13:53:26.712Z</time></trkpt><trkpt lat="45.4782833" lon="9.8778017"><ele>102.0</ele><time>2026-05-01T13:54:26.712Z</time></trkpt><trkpt lat="45.4781967" lon="9.8778133"><ele>102.0</ele><time>2026-05-01T13:54:57.712Z</time></trkpt><trkpt lat="45.4781333" lon="9.8778317"><ele>102.0</ele><time>2026-05-01T13:54:59.712Z</time></trkpt><trkpt lat="45.47807" lon="9.8778017"><ele>102.0</ele><time>2026-05-01T13:55:01.712Z</time></trkpt><trkpt lat="45.47803" lon="9.87771"><ele>102.0</ele><time>2026-05-01T13:55:03.712Z</time></trkpt><trkpt lat="45.4779633" lon="9.8776683"><ele>102.16666666666667</ele><time>2026-05-01T13:55:06.712Z</time></trkpt><trkpt lat="45.47789" lon="9.8776067"><ele>102.33333333333334</ele><time>2026-05-01T13:55:09.712Z</time></trkpt><trkpt lat="45.4778267" lon="9.8775833"><ele>102.5</ele><time>2026-05-01T13:55:11.712Z</time></trkpt><trkpt lat="45.4777533" lon="9.877565"><ele>102.66666666666667</ele><time>2026-05-01T13:55:13.712Z</time></trkpt><trkpt lat="45.4776683" lon="9.877595"><ele>102.83333333333334</ele><time>2026-05-01T13:55:16.712Z</time></trkpt><trkpt lat="45.4776067" lon="9.87762"><ele>103.0</ele><time>2026-05-01T13:55:18.712Z</time></trkpt><trkpt lat="45.4775267" lon="9.8776633"><ele>102.50000000000001</ele><time>2026-05-01T13:55:21.712Z</time></trkpt><trkpt lat="45.4774567" lon="9.8777183"><ele>102.0</ele><time>2026-05-01T13:55:24.712Z</time></trkpt><trkpt lat="45.47739" lon="9.8777"><ele>101.5</ele><time>2026-05-01T13:55:26.712Z</time></trkpt><trkpt lat="45.477305" lon="9.877715"><ele>101.0</ele><time>2026-05-01T13:55:28.712Z</time></trkpt><trkpt lat="45.47723" lon="9.8777433"><ele>100.50000000000001</ele><time>2026-05-01T13:55:30.713Z</time></trkpt><trkpt lat="45.4771517" lon="9.8777417"><ele>100.0</ele><time>2026-05-01T13:55:32.712Z</time></trkpt><trkpt lat="45.47707" lon="9.87775"><ele>99.4</ele><time>2026-05-01T13:55:34.712Z</time></trkpt><trkpt lat="45.4769883" lon="9.8777783"><ele>98.8</ele><time>2026-05-01T13:55:36.712Z</time></trkpt><trkpt lat="45.4768983" lon="9.877805"><ele>98.19999999999999</ele><time>2026-05-01T13:55:38.712Z</time></trkpt><trkpt lat="45.4768317" lon="9.8778783"><ele>97.6</ele><time>2026-05-01T13:55:40.712Z</time></trkpt><trkpt lat="45.4767633" lon="9.8779767"><ele>97.0</ele><time>2026-05-01T13:55:42.713Z</time></trkpt><trkpt lat="45.4766817" lon="9.87805"><ele>97.0</ele><time>2026-05-01T13:55:44.712Z</time></trkpt><trkpt lat="45.4765767" lon="9.8780917"><ele>97.0</ele><time>2026-05-01T13:55:46.712Z</time></trkpt><trkpt lat="45.47647" lon="9.87808"><ele>97.0</ele><time>2026-05-01T13:55:48.712Z</time></trkpt><trkpt lat="45.4763883" lon="9.878105"><ele>97.0</ele><time>2026-05-01T13:55:50.713Z</time></trkpt><trkpt lat="45.4762933" lon="9.8781517"><ele>97.0</ele><time>2026-05-01T13:55:52.713Z</time></trkpt><trkpt lat="45.4762133" lon="9.8782317"><ele>96.6</ele><time>2026-05-01T13:55:54.712Z</time></trkpt><trkpt lat="45.4761483" lon="9.8781"><ele>96.19999999999999</ele><time>2026-05-01T13:55:55.465Z</time></trkpt><trkpt lat="45.4760983" lon="9.878255"><ele>95.8</ele><time>2026-05-01T13:55:57.235Z</time></trkpt><trkpt lat="45.4760383" lon="9.8783433"><ele>95.4</ele><time>2026-05-01T13:55:58.235Z</time></trkpt><trkpt lat="45.47597" lon="9.8783983"><ele>95.0</ele><time>2026-05-01T13:55:59.735Z</time></trkpt><trkpt lat="45.4758717" lon="9.87841"><ele>95.8</ele><time>2026-05-01T13:56:01.735Z</time></trkpt><trkpt lat="45.4757767" lon="9.878435"><ele>96.6</ele><time>2026-05-01T13:56:03.735Z</time></trkpt><trkpt lat="45.4756783" lon="9.8784733"><ele>97.4</ele><time>2026-05-01T13:56:05.735Z</time></trkpt><trkpt lat="45.4755767" lon="9.8785217"><ele>98.2</ele><time>2026-05-01T13:56:07.735Z</time></trkpt><trkpt lat="45.475485" lon="9.8785733"><ele>99.0</ele><time>2026-05-01T13:56:09.734Z</time></trkpt><trkpt lat="45.4754017" lon="9.8786567"><ele>99.6</ele><time>2026-05-01T13:56:11.734Z</time></trkpt><trkpt lat="45.47532" lon="9.8787283"><ele>100.2</ele><time>2026-05-01T13:56:13.734Z</time></trkpt><trkpt lat="45.4752433" lon="9.878775"><ele>100.8</ele><time>2026-05-01T13:56:15.734Z</time></trkpt><trkpt lat="45.47517" lon="9.87886"><ele>101.39999999999999</ele><time>2026-05-01T13:56:17.734Z</time></trkpt><trkpt lat="45.4751033" lon="9.8789817"><ele>102.0</ele><time>2026-05-01T13:56:19.734Z</time></trkpt><trkpt lat="45.4750233" lon="9.8791033"><ele>102.0</ele><time>2026-05-01T13:56:21.734Z</time></trkpt><trkpt lat="45.4749517" lon="9.8792383"><ele>102.0</ele><time>2026-05-01T13:56:23.734Z</time></trkpt><trkpt lat="45.4748683" lon="9.879365"><ele>102.0</ele><time>2026-05-01T13:56:25.734Z</time></trkpt><trkpt lat="45.474785" lon="9.879475"><ele>102.0</ele><time>2026-05-01T13:56:27.734Z</time></trkpt><trkpt lat="45.4746867" lon="9.87954"><ele>101.6</ele><time>2026-05-01T13:56:29.734Z</time></trkpt><trkpt lat="45.4745733" lon="9.8795667"><ele>101.19999999999999</ele><time>2026-05-01T13:56:31.734Z</time></trkpt><trkpt lat="45.4744633" lon="9.8795817"><ele>100.8</ele><time>2026-05-01T13:56:33.734Z</time></trkpt><trkpt lat="45.4743567" lon="9.8796267"><ele>100.4</ele><time>2026-05-01T13:56:35.734Z</time></trkpt><trkpt lat="45.474255" lon="9.8796867"><ele>100.0</ele><time>2026-05-01T13:56:37.734Z</time></trkpt><trkpt lat="45.47414" lon="9.8797433"><ele>100.0</ele><time>2026-05-01T13:56:39.734Z</time></trkpt><trkpt lat="45.4740433" lon="9.879795"><ele>100.0</ele><time>2026-05-01T13:56:41.734Z</time></trkpt><trkpt lat="45.4739517" lon="9.8798583"><ele>100.0</ele><time>2026-05-01T13:56:43.734Z</time></trkpt><trkpt lat="45.47388" lon="9.8799383"><ele>100.0</ele><time>2026-05-01T13:56:45.734Z</time></trkpt><trkpt lat="45.47383" lon="9.88001"><ele>100.0</ele><time>2026-05-01T13:56:47.734Z</time></trkpt><trkpt lat="45.4737683" lon="9.8801217"><ele>99.50000000000001</ele><time>2026-05-01T13:57:38.734Z</time></trkpt><trkpt lat="45.473715" lon="9.8802017"><ele>99.0</ele><time>2026-05-01T13:57:43.735Z</time></trkpt><trkpt lat="45.473655" lon="9.880285"><ele>98.5</ele><time>2026-05-01T13:57:47.734Z</time></trkpt><trkpt lat="45.4735967" lon="9.8803533"><ele>98.0</ele><time>2026-05-01T13:57:50.734Z</time></trkpt><trkpt lat="45.47353" lon="9.8804417"><ele>97.50000000000001</ele><time>2026-05-01T13:57:53.734Z</time></trkpt><trkpt lat="45.47349" lon="9.880525"><ele>97.0</ele><time>2026-05-01T13:57:55.734Z</time></trkpt><trkpt lat="45.47346" lon="9.8806183"><ele>97.0</ele><time>2026-05-01T13:57:57.734Z</time></trkpt><trkpt lat="45.4734383" lon="9.8807417"><ele>97.0</ele><time>2026-05-01T13:57:59.734Z</time></trkpt><trkpt lat="45.4734217" lon="9.8808633"><ele>97.0</ele><time>2026-05-01T13:58:01.734Z</time></trkpt><trkpt lat="45.473405" lon="9.8809933"><ele>97.0</ele><time>2026-05-01T13:58:03.734Z</time></trkpt><trkpt lat="45.47339" lon="9.8811283"><ele>97.0</ele><time>2026-05-01T13:58:05.734Z</time></trkpt><trkpt lat="45.4733733" lon="9.8812667"><ele>97.19999999999999</ele><time>2026-05-01T13:58:07.734Z</time></trkpt><trkpt lat="45.4733467" lon="9.8814083"><ele>97.4</ele><time>2026-05-01T13:58:09.734Z</time></trkpt><trkpt lat="45.473315" lon="9.8815567"><ele>97.6</ele><time>2026-05-01T13:58:11.734Z</time></trkpt><trkpt lat="45.47329" lon="9.8817017"><ele>97.80000000000001</ele><time>2026-05-01T13:58:13.735Z</time></trkpt><trkpt lat="45.47328" lon="9.8818533"><ele>98.0</ele><time>2026-05-01T13:58:15.734Z</time></trkpt><trkpt lat="45.4732817" lon="9.8820017"><ele>98.0</ele><time>2026-05-01T13:58:17.734Z</time></trkpt><trkpt lat="45.4732833" lon="9.8821317"><ele>98.0</ele><time>2026-05-01T13:58:19.734Z</time></trkpt><trkpt lat="45.4733" lon="9.8822683"><ele>98.0</ele><time>2026-05-01T13:58:21.734Z</time></trkpt><trkpt lat="45.4733367" lon="9.8824083"><ele>98.0</ele><time>2026-05-01T13:58:23.734Z</time></trkpt><trkpt lat="45.4733833" lon="9.88255"><ele>98.0</ele><time>2026-05-01T13:58:25.734Z</time></trkpt><trkpt lat="45.47341" lon="9.8826983"><ele>98.0</ele><time>2026-05-01T13:58:27.734Z</time></trkpt><trkpt lat="45.4734417" lon="9.8828183"><ele>98.0</ele><time>2026-05-01T13:58:29.734Z</time></trkpt><trkpt lat="45.4735133" lon="9.8828933"><ele>98.0</ele><time>2026-05-01T13:58:31.734Z</time></trkpt><trkpt lat="45.47361" lon="9.8829283"><ele>98.0</ele><time>2026-05-01T13:58:33.734Z</time></trkpt><trkpt lat="45.4737167" lon="9.8829083"><ele>98.0</ele><time>2026-05-01T13:58:35.734Z</time></trkpt><trkpt lat="45.473815" lon="9.8828733"><ele>98.80000000000001</ele><time>2026-05-01T13:58:37.734Z</time></trkpt><trkpt lat="45.473905" lon="9.882875"><ele>99.6</ele><time>2026-05-01T13:58:39.734Z</time></trkpt><trkpt lat="45.47398" lon="9.882935"><ele>100.4</ele><time>2026-05-01T13:58:41.734Z</time></trkpt><trkpt lat="45.4739967" lon="9.8830217"><ele>101.19999999999999</ele><time>2026-05-01T13:58:42.734Z</time></trkpt><trkpt lat="45.4740067" lon="9.8831883"><ele>102.0</ele><time>2026-05-01T13:58:44.734Z</time></trkpt><trkpt lat="45.474045" lon="9.8833133"><ele>102.0</ele><time>2026-05-01T13:58:46.734Z</time></trkpt><trkpt lat="45.474135" lon="9.8833667"><ele>102.0</ele><time>2026-05-01T13:58:48.734Z</time></trkpt><trkpt lat="45.47423" lon="9.8834483"><ele>102.0</ele><time>2026-05-01T13:58:50.734Z</time></trkpt><trkpt lat="45.4743117" lon="9.8835717"><ele>102.0</ele><time>2026-05-01T13:58:52.734Z</time></trkpt><trkpt lat="45.4743833" lon="9.8837117"><ele>102.0</ele><time>2026-05-01T13:58:54.734Z</time></trkpt><trkpt lat="45.4744083" lon="9.8838633"><ele>101.5</ele><time>2026-05-01T13:58:56.734Z</time></trkpt><trkpt lat="45.47437" lon="9.88404"><ele>101.0</ele><time>2026-05-01T13:58:58.734Z</time></trkpt><trkpt lat="45.4743317" lon="9.8842"><ele>100.5</ele><time>2026-05-01T13:59:00.734Z</time></trkpt><trkpt lat="45.4743017" lon="9.8843667"><ele>100.0</ele><time>2026-05-01T13:59:02.734Z</time></trkpt><trkpt lat="45.4742633" lon="9.88452"><ele>100.0</ele><time>2026-05-01T13:59:04.734Z</time></trkpt><trkpt lat="45.4742317" lon="9.8846783"><ele>100.0</ele><time>2026-05-01T13:59:06.734Z</time></trkpt><trkpt lat="45.4741917" lon="9.8848383"><ele>100.0</ele><time>2026-05-01T13:59:08.734Z</time></trkpt><trkpt lat="45.47416" lon="9.8850067"><ele>100.0</ele><time>2026-05-01T13:59:10.734Z</time></trkpt><trkpt lat="45.47412" lon="9.8851683"><ele>99.5</ele><time>2026-05-01T13:59:12.734Z</time></trkpt><trkpt lat="45.4740583" lon="9.88531"><ele>99.0</ele><time>2026-05-01T13:59:14.734Z</time></trkpt><trkpt lat="45.473995" lon="9.8854517"><ele>98.5</ele><time>2026-05-01T13:59:16.734Z</time></trkpt><trkpt lat="45.4739517" lon="9.8856017"><ele>98.0</ele><time>2026-05-01T13:59:18.734Z</time></trkpt><trkpt lat="45.4739217" lon="9.8857667"><ele>97.49999999999999</ele><time>2026-05-01T13:59:20.735Z</time></trkpt><trkpt lat="45.473925" lon="9.8859433"><ele>97.0</ele><time>2026-05-01T13:59:22.734Z</time></trkpt><trkpt lat="45.4739417" lon="9.886085"><ele>96.5</ele><time>2026-05-01T13:59:24.734Z</time></trkpt><trkpt lat="45.4739467" lon="9.8861783"><ele>96.0</ele><time>2026-05-01T13:59:26.734Z</time></trkpt><trkpt lat="45.4738883" lon="9.886245"><ele>95.5</ele><time>2026-05-01T13:59:28.734Z</time></trkpt><trkpt lat="45.4738167" lon="9.8862567"><ele>95.0</ele><time>2026-05-01T13:59:30.734Z</time></trkpt><trkpt lat="45.4737267" lon="9.8862717"><ele>94.83333333333334</ele><time>2026-05-01T13:59:32.734Z</time></trkpt><trkpt lat="45.4736283" lon="9.8862983"><ele>94.66666666666667</ele><time>2026-05-01T13:59:34.734Z</time></trkpt><trkpt lat="45.4735517" lon="9.8863867"><ele>94.5</ele><time>2026-05-01T13:59:36.734Z</time></trkpt><trkpt lat="45.4734933" lon="9.8865217"><ele>94.33333333333333</ele><time>2026-05-01T13:59:38.734Z</time></trkpt><trkpt lat="45.4734617" lon="9.8866"><ele>94.16666666666666</ele><time>2026-05-01T13:59:39.734Z</time></trkpt><trkpt lat="45.4734317" lon="9.8866867"><ele>94.0</ele><time>2026-05-01T13:59:40.734Z</time></trkpt><trkpt lat="45.4734017" lon="9.886785"><ele>94.0</ele><time>2026-05-01T13:59:41.734Z</time></trkpt><trkpt lat="45.47337" lon="9.8868717"><ele>94.0</ele><time>2026-05-01T13:59:42.734Z</time></trkpt><trkpt lat="45.4733067" lon="9.8870283"><ele>94.0</ele><time>2026-05-01T13:59:44.734Z</time></trkpt><trkpt lat="45.4732683" lon="9.8871033"><ele>94.0</ele><time>2026-05-01T13:59:45.734Z</time></trkpt><trkpt lat="45.473235" lon="9.8871817"><ele>94.0</ele><time>2026-05-01T13:59:46.734Z</time></trkpt><trkpt lat="45.4732" lon="9.8873333"><ele>94.0</ele><time>2026-05-01T13:59:48.734Z</time></trkpt><trkpt lat="45.473155" lon="9.8874783"><ele>94.0</ele><time>2026-05-01T13:59:50.734Z</time></trkpt><trkpt lat="45.4730767" lon="9.8876183"><ele>94.0</ele><time>2026-05-01T13:59:52.734Z</time></trkpt><trkpt lat="45.4730383" lon="9.8876933"><ele>94.0</ele><time>2026-05-01T13:59:53.734Z</time></trkpt><trkpt lat="45.4729583" lon="9.8878383"><ele>94.0</ele><time>2026-05-01T13:59:55.734Z</time></trkpt><trkpt lat="45.4729083" lon="9.8879067"><ele>94.0</ele><time>2026-05-01T13:59:56.734Z</time></trkpt><trkpt lat="45.4728533" lon="9.8879717"><ele>94.0</ele><time>2026-05-01T13:59:57.734Z</time></trkpt><trkpt lat="45.4727967" lon="9.888025"><ele>94.0</ele><time>2026-05-01T13:59:58.734Z</time></trkpt><trkpt lat="45.4727283" lon="9.8880633"><ele>94.0</ele><time>2026-05-01T13:59:59.734Z</time></trkpt><trkpt lat="45.4726583" lon="9.88809"><ele>94.0</ele><time>2026-05-01T14:00:00.734Z</time></trkpt><trkpt lat="45.47259" lon="9.88812"><ele>94.0</ele><time>2026-05-01T14:00:01.734Z</time></trkpt><trkpt lat="45.4725317" lon="9.8881583"><ele>94.0</ele><time>2026-05-01T14:00:02.735Z</time></trkpt><trkpt lat="45.4724717" lon="9.8882117"><ele>94.0</ele><time>2026-05-01T14:00:03.734Z</time></trkpt><trkpt lat="45.4724167" lon="9.8882717"><ele>94.0</ele><time>2026-05-01T14:00:04.734Z</time></trkpt><trkpt lat="45.4723583" lon="9.88832"><ele>94.0</ele><time>2026-05-01T14:00:05.734Z</time></trkpt><trkpt lat="45.4723033" lon="9.8883767"><ele>94.0</ele><time>2026-05-01T14:00:06.734Z</time></trkpt><trkpt lat="45.472245" lon="9.88843"><ele>94.0</ele><time>2026-05-01T14:00:07.734Z</time></trkpt><trkpt lat="45.4721817" lon="9.8884717"><ele>94.0</ele><time>2026-05-01T14:00:08.735Z</time></trkpt><trkpt lat="45.47206" lon="9.8885217"><ele>94.0</ele><time>2026-05-01T14:00:10.734Z</time></trkpt><trkpt lat="45.4719867" lon="9.8885217"><ele>94.14285714285714</ele><time>2026-05-01T14:00:11.734Z</time></trkpt><trkpt lat="45.4719217" lon="9.8885117"><ele>94.28571428571428</ele><time>2026-05-01T14:00:12.734Z</time></trkpt><trkpt lat="45.471855" lon="9.888515"><ele>94.42857142857143</ele><time>2026-05-01T14:00:13.734Z</time></trkpt><trkpt lat="45.4717883" lon="9.88853"><ele>94.57142857142857</ele><time>2026-05-01T14:00:14.734Z</time></trkpt><trkpt lat="45.4717217" lon="9.88856"><ele>94.71428571428572</ele><time>2026-05-01T14:00:15.734Z</time></trkpt><trkpt lat="45.4716567" lon="9.8885867"><ele>94.85714285714286</ele><time>2026-05-01T14:00:16.734Z</time></trkpt><trkpt lat="45.47159" lon="9.8886067"><ele>95.0</ele><time>2026-05-01T14:00:17.734Z</time></trkpt><trkpt lat="45.4714617" lon="9.8886417"><ele>95.0</ele><time>2026-05-01T14:00:19.734Z</time></trkpt><trkpt lat="45.4713933" lon="9.888665"><ele>95.0</ele><time>2026-05-01T14:00:20.734Z</time></trkpt><trkpt lat="45.47133" lon="9.88869"><ele>95.0</ele><time>2026-05-01T14:00:21.734Z</time></trkpt><trkpt lat="45.4712667" lon="9.8887217"><ele>95.0</ele><time>2026-05-01T14:00:22.734Z</time></trkpt><trkpt lat="45.4712017" lon="9.8887583"><ele>95.0</ele><time>2026-05-01T14:00:23.734Z</time></trkpt><trkpt lat="45.4711383" lon="9.888785"><ele>95.0</ele><time>2026-05-01T14:00:24.734Z</time></trkpt><trkpt lat="45.4710167" lon="9.88879"><ele>95.0</ele><time>2026-05-01T14:00:26.734Z</time></trkpt><trkpt lat="45.4709533" lon="9.8888033"><ele>95.0</ele><time>2026-05-01T14:00:27.734Z</time></trkpt><trkpt lat="45.4708333" lon="9.8888483"><ele>95.0</ele><time>2026-05-01T14:00:29.734Z</time></trkpt><trkpt lat="45.4707717" lon="9.8888767"><ele>95.0</ele><time>2026-05-01T14:00:30.734Z</time></trkpt><trkpt lat="45.4706567" lon="9.8889233"><ele>95.0</ele><time>2026-05-01T14:00:32.733Z</time></trkpt><trkpt lat="45.4705333" lon="9.8889683"><ele>95.0</ele><time>2026-05-01T14:00:34.733Z</time></trkpt><trkpt lat="45.4704733" lon="9.8890017"><ele>95.0</ele><time>2026-05-01T14:00:35.733Z</time></trkpt><trkpt lat="45.4704033" lon="9.8890233"><ele>95.0</ele><time>2026-05-01T14:00:36.733Z</time></trkpt><trkpt lat="45.470335" lon="9.8890467"><ele>95.0</ele><time>2026-05-01T14:00:37.733Z</time></trkpt><trkpt lat="45.4702667" lon="9.88907"><ele>95.0</ele><time>2026-05-01T14:00:38.733Z</time></trkpt><trkpt lat="45.4702033" lon="9.8890967"><ele>95.0</ele><time>2026-05-01T14:00:39.733Z</time></trkpt><trkpt lat="45.4701383" lon="9.8891267"><ele>95.0</ele><time>2026-05-01T14:00:40.734Z</time></trkpt><trkpt lat="45.470025" lon="9.889215"><ele>95.16666666666667</ele><time>2026-05-01T14:00:42.733Z</time></trkpt><trkpt lat="45.46997" lon="9.889275"><ele>95.33333333333334</ele><time>2026-05-01T14:00:43.733Z</time></trkpt><trkpt lat="45.4699167" lon="9.8893317"><ele>95.5</ele><time>2026-05-01T14:00:44.733Z</time></trkpt><trkpt lat="45.4698567" lon="9.8893633"><ele>95.66666666666667</ele><time>2026-05-01T14:00:45.733Z</time></trkpt><trkpt lat="45.46973" lon="9.8894217"><ele>95.83333333333333</ele><time>2026-05-01T14:00:47.733Z</time></trkpt><trkpt lat="45.4696667" lon="9.8894633"><ele>96.0</ele><time>2026-05-01T14:00:48.733Z</time></trkpt><trkpt lat="45.46961" lon="9.8895117"><ele>95.85714285714285</ele><time>2026-05-01T14:00:49.733Z</time></trkpt><trkpt lat="45.4695533" lon="9.8895633"><ele>95.71428571428571</ele><time>2026-05-01T14:00:50.733Z</time></trkpt><trkpt lat="45.4694917" lon="9.88961"><ele>95.57142857142857</ele><time>2026-05-01T14:00:51.733Z</time></trkpt><trkpt lat="45.4694317" lon="9.88966"><ele>95.42857142857142</ele><time>2026-05-01T14:00:52.733Z</time></trkpt><trkpt lat="45.4693733" lon="9.8897083"><ele>95.28571428571429</ele><time>2026-05-01T14:00:53.733Z</time></trkpt><trkpt lat="45.4693083" lon="9.8897583"><ele>95.14285714285714</ele><time>2026-05-01T14:00:54.733Z</time></trkpt><trkpt lat="45.4692517" lon="9.8898117"><ele>95.0</ele><time>2026-05-01T14:00:55.733Z</time></trkpt><trkpt lat="45.4691917" lon="9.88987"><ele>95.0</ele><time>2026-05-01T14:00:56.733Z</time></trkpt><trkpt lat="45.46913" lon="9.8899133"><ele>95.0</ele><time>2026-05-01T14:00:57.733Z</time></trkpt><trkpt lat="45.4690717" lon="9.8899583"><ele>95.0</ele><time>2026-05-01T14:00:58.733Z</time></trkpt><trkpt lat="45.4690117" lon="9.8900033"><ele>95.0</ele><time>2026-05-01T14:00:59.733Z</time></trkpt><trkpt lat="45.46895" lon="9.8900467"><ele>95.0</ele><time>2026-05-01T14:01:00.733Z</time></trkpt><trkpt lat="45.4688917" lon="9.8900933"><ele>95.0</ele><time>2026-05-01T14:01:01.733Z</time></trkpt><trkpt lat="45.4688333" lon="9.8901383"><ele>95.0</ele><time>2026-05-01T14:01:02.733Z</time></trkpt><trkpt lat="45.46877" lon="9.890185"><ele>95.33333333333334</ele><time>2026-05-01T14:01:03.733Z</time></trkpt><trkpt lat="45.46871" lon="9.89022"><ele>95.66666666666667</ele><time>2026-05-01T14:01:04.733Z</time></trkpt><trkpt lat="45.4686483" lon="9.8902417"><ele>96.0</ele><time>2026-05-01T14:01:05.733Z</time></trkpt><trkpt lat="45.468585" lon="9.8902683"><ele>96.33333333333334</ele><time>2026-05-01T14:01:06.733Z</time></trkpt><trkpt lat="45.468495" lon="9.8903233"><ele>96.66666666666667</ele><time>2026-05-01T14:01:08.733Z</time></trkpt><trkpt lat="45.4684267" lon="9.8904217"><ele>97.0</ele><time>2026-05-01T14:01:10.734Z</time></trkpt><trkpt lat="45.4683683" lon="9.8904617"><ele>97.00000000000001</ele><time>2026-05-01T14:01:13.733Z</time></trkpt><trkpt lat="45.4682717" lon="9.8904817"><ele>97.0</ele><time>2026-05-01T14:01:27.733Z</time></trkpt><trkpt lat="45.4682017" lon="9.890485"><ele>97.0</ele><time>2026-05-01T14:01:30.733Z</time></trkpt><trkpt lat="45.468125" lon="9.8905083"><ele>97.0</ele><time>2026-05-01T14:01:33.733Z</time></trkpt><trkpt lat="45.468045" lon="9.89052"><ele>97.00000000000001</ele><time>2026-05-01T14:02:02.733Z</time></trkpt><trkpt lat="45.4679767" lon="9.8905417"><ele>97.0</ele><time>2026-05-01T14:02:05.733Z</time></trkpt><trkpt lat="45.4678883" lon="9.8905617"><ele>96.66666666666667</ele><time>2026-05-01T14:02:08.733Z</time></trkpt><trkpt lat="45.4677983" lon="9.890575"><ele>96.33333333333334</ele><time>2026-05-01T14:02:11.733Z</time></trkpt><trkpt lat="45.4677233" lon="9.8905867"><ele>96.0</ele><time>2026-05-01T14:02:13.733Z</time></trkpt><trkpt lat="45.4676517" lon="9.8905983"><ele>95.66666666666667</ele><time>2026-05-01T14:02:15.733Z</time></trkpt><trkpt lat="45.4675767" lon="9.89062"><ele>95.33333333333334</ele><time>2026-05-01T14:02:17.733Z</time></trkpt><trkpt lat="45.467495" lon="9.8906267"><ele>95.0</ele><time>2026-05-01T14:02:19.733Z</time></trkpt><trkpt lat="45.4674117" lon="9.8906233"><ele>95.0</ele><time>2026-05-01T14:02:21.733Z</time></trkpt><trkpt lat="45.4673283" lon="9.8906333"><ele>95.0</ele><time>2026-05-01T14:02:23.733Z</time></trkpt><trkpt lat="45.467225" lon="9.8906333"><ele>95.0</ele><time>2026-05-01T14:02:25.733Z</time></trkpt><trkpt lat="45.46713" lon="9.8906517"><ele>95.0</ele><time>2026-05-01T14:02:27.733Z</time></trkpt><trkpt lat="45.4670267" lon="9.8906817"><ele>95.0</ele><time>2026-05-01T14:02:29.733Z</time></trkpt><trkpt lat="45.46692" lon="9.8907017"><ele>95.0</ele><time>2026-05-01T14:02:31.733Z</time></trkpt><trkpt lat="45.466815" lon="9.890715"><ele>95.0</ele><time>2026-05-01T14:02:33.733Z</time></trkpt><trkpt lat="45.46672" lon="9.8907367"><ele>95.0</ele><time>2026-05-01T14:02:35.733Z</time></trkpt><trkpt lat="45.46662" lon="9.8907483"><ele>95.0</ele><time>2026-05-01T14:02:37.733Z</time></trkpt><trkpt lat="45.4665183" lon="9.8907633"><ele>95.0</ele><time>2026-05-01T14:02:39.733Z</time></trkpt><trkpt lat="45.466415" lon="9.89078"><ele>95.0</ele><time>2026-05-01T14:02:41.733Z</time></trkpt><trkpt lat="45.4663133" lon="9.8907933"><ele>95.0</ele><time>2026-05-01T14:02:43.733Z</time></trkpt><trkpt lat="45.4661967" lon="9.890815"><ele>95.0</ele><time>2026-05-01T14:02:45.733Z</time></trkpt><trkpt lat="45.46609" lon="9.89083"><ele>95.0</ele><time>2026-05-01T14:02:47.733Z</time></trkpt><trkpt lat="45.4659867" lon="9.8908517"><ele>95.0</ele><time>2026-05-01T14:02:49.733Z</time></trkpt><trkpt lat="45.4658933" lon="9.8908717"><ele>94.6</ele><time>2026-05-01T14:02:51.733Z</time></trkpt><trkpt lat="45.4658067" lon="9.8909117"><ele>94.2</ele><time>2026-05-01T14:02:53.733Z</time></trkpt><trkpt lat="45.46571" lon="9.8909817"><ele>93.80000000000001</ele><time>2026-05-01T14:02:55.733Z</time></trkpt><trkpt lat="45.4656117" lon="9.8910467"><ele>93.4</ele><time>2026-05-01T14:02:57.733Z</time></trkpt><trkpt lat="45.4655117" lon="9.89112"><ele>93.0</ele><time>2026-05-01T14:02:59.733Z</time></trkpt><trkpt lat="45.4654167" lon="9.8912"><ele>93.0</ele><time>2026-05-01T14:03:01.733Z</time></trkpt><trkpt lat="45.4653183" lon="9.8913017"><ele>93.0</ele><time>2026-05-01T14:03:03.733Z</time></trkpt><trkpt lat="45.46522" lon="9.8914017"><ele>93.0</ele><time>2026-05-01T14:03:05.733Z</time></trkpt><trkpt lat="45.46513" lon="9.8914833"><ele>93.0</ele><time>2026-05-01T14:03:07.733Z</time></trkpt><trkpt lat="45.4650333" lon="9.8915683"><ele>93.00000000000001</ele><time>2026-05-01T14:03:09.733Z</time></trkpt><trkpt lat="45.4649783" lon="9.8916167"><ele>93.0</ele><time>2026-05-01T14:03:10.733Z</time></trkpt><trkpt lat="45.464925" lon="9.8916683"><ele>93.0</ele><time>2026-05-01T14:03:11.733Z</time></trkpt><trkpt lat="45.4648733" lon="9.8917267"><ele>93.0</ele><time>2026-05-01T14:03:12.733Z</time></trkpt><trkpt lat="45.4648133" lon="9.891775"><ele>93.0</ele><time>2026-05-01T14:03:13.733Z</time></trkpt><trkpt lat="45.4647567" lon="9.891825"><ele>93.00000000000001</ele><time>2026-05-01T14:03:14.733Z</time></trkpt><trkpt lat="45.4647" lon="9.891865"><ele>93.0</ele><time>2026-05-01T14:03:15.733Z</time></trkpt><trkpt lat="45.4646433" lon="9.8919083"><ele>92.66666666666667</ele><time>2026-05-01T14:03:16.733Z</time></trkpt><trkpt lat="45.46454" lon="9.8919817"><ele>92.33333333333333</ele><time>2026-05-01T14:03:18.733Z</time></trkpt><trkpt lat="45.4644283" lon="9.8920483"><ele>92.0</ele><time>2026-05-01T14:03:20.733Z</time></trkpt><trkpt lat="45.464365" lon="9.8920767"><ele>91.66666666666666</ele><time>2026-05-01T14:03:21.733Z</time></trkpt><trkpt lat="45.4643" lon="9.892105"><ele>91.33333333333333</ele><time>2026-05-01T14:03:22.733Z</time></trkpt><trkpt lat="45.46424" lon="9.8921333"><ele>91.0</ele><time>2026-05-01T14:03:23.733Z</time></trkpt><trkpt lat="45.4641783" lon="9.89216"><ele>91.0</ele><time>2026-05-01T14:03:24.733Z</time></trkpt><trkpt lat="45.4640617" lon="9.89221"><ele>91.0</ele><time>2026-05-01T14:03:26.733Z</time></trkpt><trkpt lat="45.4639433" lon="9.8922617"><ele>91.0</ele><time>2026-05-01T14:03:28.733Z</time></trkpt><trkpt lat="45.4638817" lon="9.892285"><ele>91.0</ele><time>2026-05-01T14:03:29.734Z</time></trkpt><trkpt lat="45.46382" lon="9.89231"><ele>91.0</ele><time>2026-05-01T14:03:30.733Z</time></trkpt><trkpt lat="45.463755" lon="9.8923367"><ele>91.0</ele><time>2026-05-01T14:03:31.733Z</time></trkpt><trkpt lat="45.4636917" lon="9.8923617"><ele>92.0</ele><time>2026-05-01T14:03:32.733Z</time></trkpt><trkpt lat="45.4636283" lon="9.8923817"><ele>93.0</ele><time>2026-05-01T14:03:33.733Z</time></trkpt><trkpt lat="45.4635117" lon="9.8924283"><ele>94.0</ele><time>2026-05-01T14:03:35.733Z</time></trkpt><trkpt lat="45.4633983" lon="9.8924733"><ele>95.0</ele><time>2026-05-01T14:03:37.733Z</time></trkpt><trkpt lat="45.463295" lon="9.8925183"><ele>96.0</ele><time>2026-05-01T14:03:39.733Z</time></trkpt><trkpt lat="45.4631883" lon="9.8925583"><ele>95.16666666666667</ele><time>2026-05-01T14:03:41.733Z</time></trkpt><trkpt lat="45.4630833" lon="9.89262"><ele>94.33333333333333</ele><time>2026-05-01T14:03:43.733Z</time></trkpt><trkpt lat="45.4629783" lon="9.8926967"><ele>93.5</ele><time>2026-05-01T14:03:45.733Z</time></trkpt><trkpt lat="45.4629233" lon="9.8927417"><ele>92.66666666666666</ele><time>2026-05-01T14:03:46.733Z</time></trkpt><trkpt lat="45.4628667" lon="9.8928017"><ele>91.83333333333333</ele><time>2026-05-01T14:03:47.733Z</time></trkpt><trkpt lat="45.462815" lon="9.89286"><ele>91.0</ele><time>2026-05-01T14:03:48.733Z</time></trkpt><trkpt lat="45.46272" lon="9.8929567"><ele>91.0</ele><time>2026-05-01T14:03:50.733Z</time></trkpt><trkpt lat="45.4626667" lon="9.8930083"><ele>91.0</ele><time>2026-05-01T14:03:51.733Z</time></trkpt><trkpt lat="45.4625567" lon="9.8931033"><ele>91.0</ele><time>2026-05-01T14:03:53.733Z</time></trkpt><trkpt lat="45.4625017" lon="9.8931483"><ele>91.0</ele><time>2026-05-01T14:03:54.733Z</time></trkpt><trkpt lat="45.46239" lon="9.89323"><ele>91.0</ele><time>2026-05-01T14:03:56.733Z</time></trkpt><trkpt lat="45.462285" lon="9.8933117"><ele>91.0</ele><time>2026-05-01T14:03:58.733Z</time></trkpt><trkpt lat="45.462185" lon="9.893415"><ele>91.0</ele><time>2026-05-01T14:04:00.733Z</time></trkpt><trkpt lat="45.4620917" lon="9.8935167"><ele>91.0</ele><time>2026-05-01T14:04:02.733Z</time></trkpt><trkpt lat="45.4619933" lon="9.8936183"><ele>91.0</ele><time>2026-05-01T14:04:04.733Z</time></trkpt><trkpt lat="45.4618967" lon="9.8937133"><ele>91.19999999999999</ele><time>2026-05-01T14:04:06.733Z</time></trkpt><trkpt lat="45.4617933" lon="9.8938"><ele>91.39999999999999</ele><time>2026-05-01T14:04:08.733Z</time></trkpt><trkpt lat="45.4616917" lon="9.89389"><ele>91.6</ele><time>2026-05-01T14:04:10.733Z</time></trkpt><trkpt lat="45.4616367" lon="9.8939367"><ele>91.8</ele><time>2026-05-01T14:04:11.733Z</time></trkpt><trkpt lat="45.4615817" lon="9.893985"><ele>92.0</ele><time>2026-05-01T14:04:12.734Z</time></trkpt><trkpt lat="45.4614833" lon="9.8940833"><ele>92.0</ele><time>2026-05-01T14:04:14.733Z</time></trkpt><trkpt lat="45.4614283" lon="9.8941317"><ele>92.0</ele><time>2026-05-01T14:04:15.733Z</time></trkpt><trkpt lat="45.4613717" lon="9.89418"><ele>92.0</ele><time>2026-05-01T14:04:16.733Z</time></trkpt><trkpt lat="45.4613183" lon="9.8942333"><ele>92.0</ele><time>2026-05-01T14:04:17.734Z</time></trkpt><trkpt lat="45.4612133" lon="9.8943333"><ele>92.0</ele><time>2026-05-01T14:04:19.733Z</time></trkpt><trkpt lat="45.4611033" lon="9.8944267"><ele>91.6</ele><time>2026-05-01T14:04:21.733Z</time></trkpt><trkpt lat="45.460995" lon="9.8945217"><ele>91.19999999999999</ele><time>2026-05-01T14:04:23.733Z</time></trkpt><trkpt lat="45.460895" lon="9.8946133"><ele>90.8</ele><time>2026-05-01T14:04:25.733Z</time></trkpt><trkpt lat="45.4608383" lon="9.8946617"><ele>90.4</ele><time>2026-05-01T14:04:26.733Z</time></trkpt><trkpt lat="45.4607383" lon="9.8947517"><ele>90.0</ele><time>2026-05-01T14:04:28.733Z</time></trkpt><trkpt lat="45.4606467" lon="9.8948283"><ele>90.0</ele><time>2026-05-01T14:04:30.733Z</time></trkpt><trkpt lat="45.4605583" lon="9.8949083"><ele>90.0</ele><time>2026-05-01T14:04:32.733Z</time></trkpt><trkpt lat="45.460475" lon="9.8949733"><ele>90.0</ele><time>2026-05-01T14:04:34.733Z</time></trkpt><trkpt lat="45.4604017" lon="9.8950233"><ele>90.0</ele><time>2026-05-01T14:04:36.733Z</time></trkpt><trkpt lat="45.4603183" lon="9.8950833"><ele>90.0</ele><time>2026-05-01T14:04:39.733Z</time></trkpt><trkpt lat="45.4602267" lon="9.8951583"><ele>89.83333333333333</ele><time>2026-05-01T14:04:42.733Z</time></trkpt><trkpt lat="45.46017" lon="9.8951983"><ele>89.66666666666667</ele><time>2026-05-01T14:04:44.733Z</time></trkpt><trkpt lat="45.4601083" lon="9.8952933"><ele>89.5</ele><time>2026-05-01T14:04:47.733Z</time></trkpt><trkpt lat="45.46004" lon="9.895365"><ele>89.33333333333334</ele><time>2026-05-01T14:04:50.733Z</time></trkpt><trkpt lat="45.4599783" lon="9.8954333"><ele>89.16666666666667</ele><time>2026-05-01T14:04:53.733Z</time></trkpt><trkpt lat="45.4599067" lon="9.8954017"><ele>89.0</ele><time>2026-05-01T14:04:59.733Z</time></trkpt><trkpt lat="45.4598783" lon="9.8952767"><ele>88.99999999999999</ele><time>2026-05-01T14:05:02.734Z</time></trkpt><trkpt lat="45.4598667" lon="9.895185"><ele>89.0</ele><time>2026-05-01T14:05:04.733Z</time></trkpt><trkpt lat="45.4598517" lon="9.89509"><ele>89.0</ele><time>2026-05-01T14:05:06.733Z</time></trkpt><trkpt lat="45.4598083" lon="9.8950217"><ele>89.0</ele><time>2026-05-01T14:05:08.733Z</time></trkpt><trkpt lat="45.4597333" lon="9.89499"><ele>89.0</ele><time>2026-05-01T14:05:10.733Z</time></trkpt><trkpt lat="45.4596433" lon="9.8949983"><ele>88.99999999999999</ele><time>2026-05-01T14:05:12.733Z</time></trkpt><trkpt lat="45.4595633" lon="9.89502"><ele>89.0</ele><time>2026-05-01T14:05:14.733Z</time></trkpt><trkpt lat="45.459485" lon="9.895035"><ele>88.6</ele><time>2026-05-01T14:05:16.733Z</time></trkpt><trkpt lat="45.4594033" lon="9.895045"><ele>88.2</ele><time>2026-05-01T14:05:18.733Z</time></trkpt><trkpt lat="45.4593167" lon="9.8950583"><ele>87.8</ele><time>2026-05-01T14:05:20.733Z</time></trkpt><trkpt lat="45.4592217" lon="9.8950583"><ele>87.39999999999999</ele><time>2026-05-01T14:05:22.733Z</time></trkpt><trkpt lat="45.45912" lon="9.8950483"><ele>87.0</ele><time>2026-05-01T14:05:24.733Z</time></trkpt><trkpt lat="45.459025" lon="9.895025"><ele>87.0</ele><time>2026-05-01T14:05:26.733Z</time></trkpt><trkpt lat="45.4589183" lon="9.894995"><ele>87.0</ele><time>2026-05-01T14:05:28.733Z</time></trkpt><trkpt lat="45.458815" lon="9.8949667"><ele>87.0</ele><time>2026-05-01T14:05:30.733Z</time></trkpt><trkpt lat="45.4587133" lon="9.8949433"><ele>87.0</ele><time>2026-05-01T14:05:32.733Z</time></trkpt><trkpt lat="45.4586133" lon="9.8948967"><ele>87.0</ele><time>2026-05-01T14:05:34.733Z</time></trkpt><trkpt lat="45.4585167" lon="9.894845"><ele>87.0</ele><time>2026-05-01T14:05:36.733Z</time></trkpt><trkpt lat="45.4584217" lon="9.894785"><ele>87.0</ele><time>2026-05-01T14:05:38.733Z</time></trkpt><trkpt lat="45.4583317" lon="9.8947217"><ele>87.0</ele><time>2026-05-01T14:05:40.733Z</time></trkpt><trkpt lat="45.4582433" lon="9.894645"><ele>87.0</ele><time>2026-05-01T14:05:42.733Z</time></trkpt><trkpt lat="45.458155" lon="9.8945567"><ele>87.0</ele><time>2026-05-01T14:05:44.732Z</time></trkpt><trkpt lat="45.4580683" lon="9.894465"><ele>87.0</ele><time>2026-05-01T14:05:46.732Z</time></trkpt><trkpt lat="45.4579833" lon="9.89437"><ele>87.0</ele><time>2026-05-01T14:05:48.732Z</time></trkpt><trkpt lat="45.4578983" lon="9.8942583"><ele>87.0</ele><time>2026-05-01T14:05:50.732Z</time></trkpt><trkpt lat="45.457815" lon="9.894155"><ele>87.0</ele><time>2026-05-01T14:05:52.732Z</time></trkpt><trkpt lat="45.4577367" lon="9.8940367"><ele>87.0</ele><time>2026-05-01T14:05:54.732Z</time></trkpt><trkpt lat="45.4576633" lon="9.8939183"><ele>87.39999999999999</ele><time>2026-05-01T14:05:56.732Z</time></trkpt><trkpt lat="45.457585" lon="9.8938033"><ele>87.8</ele><time>2026-05-01T14:05:58.732Z</time></trkpt><trkpt lat="45.4575117" lon="9.8936883"><ele>88.2</ele><time>2026-05-01T14:06:00.732Z</time></trkpt><trkpt lat="45.4574467" lon="9.8935817"><ele>88.6</ele><time>2026-05-01T14:06:02.732Z</time></trkpt><trkpt lat="45.4573867" lon="9.89347"><ele>89.0</ele><time>2026-05-01T14:06:04.732Z</time></trkpt><trkpt lat="45.4573133" lon="9.8933417"><ele>89.25</ele><time>2026-05-01T14:06:06.732Z</time></trkpt><trkpt lat="45.45724" lon="9.8932217"><ele>89.5</ele><time>2026-05-01T14:06:08.732Z</time></trkpt><trkpt lat="45.4571683" lon="9.8930917"><ele>89.75</ele><time>2026-05-01T14:06:10.732Z</time></trkpt><trkpt lat="45.45709" lon="9.8929617"><ele>90.0</ele><time>2026-05-01T14:06:12.732Z</time></trkpt><trkpt lat="45.4570167" lon="9.8928167"><ele>89.83333333333333</ele><time>2026-05-01T14:06:14.732Z</time></trkpt><trkpt lat="45.4569833" lon="9.89274"><ele>89.66666666666667</ele><time>2026-05-01T14:06:15.732Z</time></trkpt><trkpt lat="45.45695" lon="9.892655"><ele>89.5</ele><time>2026-05-01T14:06:16.732Z</time></trkpt><trkpt lat="45.456915" lon="9.8925733"><ele>89.33333333333334</ele><time>2026-05-01T14:06:17.732Z</time></trkpt><trkpt lat="45.456855" lon="9.8924267"><ele>89.16666666666667</ele><time>2026-05-01T14:06:19.732Z</time></trkpt><trkpt lat="45.4568" lon="9.8922967"><ele>89.0</ele><time>2026-05-01T14:06:21.732Z</time></trkpt><trkpt lat="45.4567633" lon="9.8922233"><ele>89.0</ele><time>2026-05-01T14:06:22.732Z</time></trkpt><trkpt lat="45.4566883" lon="9.8920617"><ele>89.0</ele><time>2026-05-01T14:06:24.732Z</time></trkpt><trkpt lat="45.456645" lon="9.891985"><ele>89.0</ele><time>2026-05-01T14:06:25.732Z</time></trkpt><trkpt lat="45.45661" lon="9.8918917"><ele>89.0</ele><time>2026-05-01T14:06:26.732Z</time></trkpt><trkpt lat="45.4565683" lon="9.891805"><ele>89.0</ele><time>2026-05-01T14:06:27.732Z</time></trkpt><trkpt lat="45.4565283" lon="9.8917267"><ele>89.0</ele><time>2026-05-01T14:06:28.732Z</time></trkpt><trkpt lat="45.4564867" lon="9.8916533"><ele>89.28571428571428</ele><time>2026-05-01T14:06:29.732Z</time></trkpt><trkpt lat="45.4564467" lon="9.8915783"><ele>89.57142857142857</ele><time>2026-05-01T14:06:30.733Z</time></trkpt><trkpt lat="45.456405" lon="9.8915017"><ele>89.85714285714286</ele><time>2026-05-01T14:06:31.732Z</time></trkpt><trkpt lat="45.4563617" lon="9.8914267"><ele>90.14285714285714</ele><time>2026-05-01T14:06:32.732Z</time></trkpt><trkpt lat="45.4563217" lon="9.8913533"><ele>90.42857142857143</ele><time>2026-05-01T14:06:33.732Z</time></trkpt><trkpt lat="45.4562783" lon="9.8912733"><ele>90.71428571428571</ele><time>2026-05-01T14:06:34.732Z</time></trkpt><trkpt lat="45.4562383" lon="9.8912033"><ele>91.0</ele><time>2026-05-01T14:06:35.733Z</time></trkpt><trkpt lat="45.4561967" lon="9.891135"><ele>91.0</ele><time>2026-05-01T14:06:36.732Z</time></trkpt><trkpt lat="45.4561467" lon="9.891065"><ele>91.0</ele><time>2026-05-01T14:06:37.732Z</time></trkpt><trkpt lat="45.4560967" lon="9.891"><ele>91.0</ele><time>2026-05-01T14:06:38.732Z</time></trkpt><trkpt lat="45.456045" lon="9.8909283"><ele>91.0</ele><time>2026-05-01T14:06:39.732Z</time></trkpt><trkpt lat="45.456" lon="9.890855"><ele>91.0</ele><time>2026-05-01T14:06:40.732Z</time></trkpt><trkpt lat="45.4559617" lon="9.8907833"><ele>91.0</ele><time>2026-05-01T14:06:41.732Z</time></trkpt><trkpt lat="45.4558767" lon="9.8907067"><ele>91.0</ele><time>2026-05-01T14:06:43.732Z</time></trkpt><trkpt lat="45.4557767" lon="9.8907"><ele>90.83333333333333</ele><time>2026-05-01T14:06:45.732Z</time></trkpt><trkpt lat="45.455665" lon="9.89073"><ele>90.66666666666666</ele><time>2026-05-01T14:06:47.732Z</time></trkpt><trkpt lat="45.4555467" lon="9.8907533"><ele>90.5</ele><time>2026-05-01T14:06:49.732Z</time></trkpt><trkpt lat="45.455485" lon="9.8907717"><ele>90.33333333333333</ele><time>2026-05-01T14:06:50.732Z</time></trkpt><trkpt lat="45.4554233" lon="9.8908"><ele>90.16666666666667</ele><time>2026-05-01T14:06:51.732Z</time></trkpt><trkpt lat="45.4553583" lon="9.8908267"><ele>90.0</ele><time>2026-05-01T14:06:52.732Z</time></trkpt><trkpt lat="45.4552967" lon="9.8908533"><ele>89.83333333333333</ele><time>2026-05-01T14:06:53.732Z</time></trkpt><trkpt lat="45.45523" lon="9.890875"><ele>89.66666666666667</ele><time>2026-05-01T14:06:54.732Z</time></trkpt><trkpt lat="45.455165" lon="9.8908983"><ele>89.5</ele><time>2026-05-01T14:06:55.732Z</time></trkpt><trkpt lat="45.4551" lon="9.8909233"><ele>89.33333333333334</ele><time>2026-05-01T14:06:56.732Z</time></trkpt><trkpt lat="45.4549967" lon="9.89099"><ele>89.16666666666667</ele><time>2026-05-01T14:06:58.732Z</time></trkpt><trkpt lat="45.4548917" lon="9.8910483"><ele>89.0</ele><time>2026-05-01T14:07:00.732Z</time></trkpt><trkpt lat="45.4548333" lon="9.8910917"><ele>89.33333333333334</ele><time>2026-05-01T14:07:01.732Z</time></trkpt><trkpt lat="45.4547433" lon="9.89116"><ele>89.66666666666667</ele><time>2026-05-01T14:07:03.732Z</time></trkpt><trkpt lat="45.4546733" lon="9.8911733"><ele>90.0</ele><time>2026-05-01T14:07:05.732Z</time></trkpt><trkpt lat="45.4546017" lon="9.8912067"><ele>90.33333333333333</ele><time>2026-05-01T14:07:08.732Z</time></trkpt><trkpt lat="45.4545467" lon="9.8912983"><ele>90.66666666666666</ele><time>2026-05-01T14:07:11.732Z</time></trkpt><trkpt lat="45.4544717" lon="9.8913817"><ele>91.0</ele><time>2026-05-01T14:07:14.732Z</time></trkpt><trkpt lat="45.454395" lon="9.8914683"><ele>90.33333333333333</ele><time>2026-05-01T14:07:17.732Z</time></trkpt><trkpt lat="45.4543317" lon="9.8915217"><ele>89.66666666666666</ele><time>2026-05-01T14:07:19.732Z</time></trkpt><trkpt lat="45.4542483" lon="9.891575"><ele>89.0</ele><time>2026-05-01T14:07:21.732Z</time></trkpt><trkpt lat="45.454165" lon="9.8916267"><ele>88.33333333333333</ele><time>2026-05-01T14:07:23.732Z</time></trkpt><trkpt lat="45.4540733" lon="9.8916733"><ele>87.66666666666667</ele><time>2026-05-01T14:07:25.732Z</time></trkpt><trkpt lat="45.45399" lon="9.8917367"><ele>87.0</ele><time>2026-05-01T14:07:27.732Z</time></trkpt><trkpt lat="45.45393" lon="9.8918117"><ele>87.0</ele><time>2026-05-01T14:07:29.732Z</time></trkpt><trkpt lat="45.45386" lon="9.891875"><ele>87.0</ele><time>2026-05-01T14:07:31.732Z</time></trkpt><trkpt lat="45.4537767" lon="9.89193"><ele>87.0</ele><time>2026-05-01T14:07:33.732Z</time></trkpt><trkpt lat="45.4536933" lon="9.89196"><ele>87.0</ele><time>2026-05-01T14:07:35.732Z</time></trkpt><trkpt lat="45.4536233" lon="9.891985"><ele>87.0</ele><time>2026-05-01T14:07:37.732Z</time></trkpt><trkpt lat="45.4535533" lon="9.89201"><ele>87.0</ele><time>2026-05-01T14:07:39.732Z</time></trkpt><trkpt lat="45.4535517" lon="9.8921033"><ele>87.0</ele><time>2026-05-01T14:07:46.732Z</time></trkpt><trkpt lat="45.4535883" lon="9.892195"><ele>87.0</ele><time>2026-05-01T14:07:49.732Z</time></trkpt><trkpt lat="45.453625" lon="9.8922983"><ele>87.0</ele><time>2026-05-01T14:07:52.732Z</time></trkpt><trkpt lat="45.4536717" lon="9.8923617"><ele>87.0</ele><time>2026-05-01T14:07:54.732Z</time></trkpt><trkpt lat="45.4537" lon="9.8924483"><ele>87.0</ele><time>2026-05-01T14:07:56.732Z</time></trkpt><trkpt lat="45.4537367" lon="9.89254"><ele>87.0</ele><time>2026-05-01T14:07:58.732Z</time></trkpt><trkpt lat="45.4537733" lon="9.8926183"><ele>87.0</ele><time>2026-05-01T14:08:00.732Z</time></trkpt><trkpt lat="45.453815" lon="9.89269"><ele>87.0</ele><time>2026-05-01T14:08:02.732Z</time></trkpt><trkpt lat="45.4538517" lon="9.89277"><ele>87.0</ele><time>2026-05-01T14:08:04.732Z</time></trkpt><trkpt lat="45.4538967" lon="9.892865"><ele>87.0</ele><time>2026-05-01T14:08:07.732Z</time></trkpt><trkpt lat="45.4539483" lon="9.8929617"><ele>87.0</ele><time>2026-05-01T14:08:10.732Z</time></trkpt><trkpt lat="45.45399" lon="9.8930417"><ele>87.0</ele><time>2026-05-01T14:08:13.732Z</time></trkpt><trkpt lat="45.4540217" lon="9.8931417"><ele>87.0</ele><time>2026-05-01T14:08:17.732Z</time></trkpt><trkpt lat="45.45406" lon="9.893225"><ele>87.0</ele><time>2026-05-01T14:08:21.732Z</time></trkpt><trkpt lat="45.454095" lon="9.8933033"><ele>87.0</ele><time>2026-05-01T14:08:24.732Z</time></trkpt><trkpt lat="45.4541217" lon="9.8934"><ele>87.0</ele><time>2026-05-01T14:08:28.732Z</time></trkpt><trkpt lat="45.454145" lon="9.89349"><ele>87.0</ele><time>2026-05-01T14:08:32.732Z</time></trkpt><trkpt lat="45.4541167" lon="9.8934033"><ele>87.0</ele><time>2026-05-01T14:08:40.732Z</time></trkpt><trkpt lat="45.45409" lon="9.8932917"><ele>87.0</ele><time>2026-05-01T14:08:43.733Z</time></trkpt><trkpt lat="45.45406" lon="9.8931983"><ele>87.0</ele><time>2026-05-01T14:08:45.732Z</time></trkpt><trkpt lat="45.4540267" lon="9.8930933"><ele>87.0</ele><time>2026-05-01T14:08:47.732Z</time></trkpt><trkpt lat="45.4539783" lon="9.8929917"><ele>87.0</ele><time>2026-05-01T14:08:49.732Z</time></trkpt><trkpt lat="45.4539217" lon="9.8928783"><ele>87.0</ele><time>2026-05-01T14:08:51.732Z</time></trkpt><trkpt lat="45.4538667" lon="9.892765"><ele>87.0</ele><time>2026-05-01T14:08:53.732Z</time></trkpt><trkpt lat="45.4538083" lon="9.89265"><ele>87.0</ele><time>2026-05-01T14:08:55.732Z</time></trkpt><trkpt lat="45.453755" lon="9.8925233"><ele>87.0</ele><time>2026-05-01T14:08:57.732Z</time></trkpt><trkpt lat="45.4536917" lon="9.8923983"><ele>86.6</ele><time>2026-05-01T14:08:59.732Z</time></trkpt><trkpt lat="45.4536283" lon="9.8922867"><ele>86.19999999999999</ele><time>2026-05-01T14:09:01.732Z</time></trkpt><trkpt lat="45.45357" lon="9.8921817"><ele>85.8</ele><time>2026-05-01T14:09:03.732Z</time></trkpt><trkpt lat="45.45353" lon="9.892065"><ele>85.4</ele><time>2026-05-01T14:09:05.732Z</time></trkpt><trkpt lat="45.4534617" lon="9.8919917"><ele>85.0</ele><time>2026-05-01T14:09:07.732Z</time></trkpt><trkpt lat="45.4533817" lon="9.891975"><ele>85.0</ele><time>2026-05-01T14:09:09.732Z</time></trkpt><trkpt lat="45.4533133" lon="9.8920117"><ele>85.0</ele><time>2026-05-01T14:09:11.732Z</time></trkpt><trkpt lat="45.45324" lon="9.892065"><ele>85.0</ele><time>2026-05-01T14:09:13.732Z</time></trkpt><trkpt lat="45.4531533" lon="9.8921133"><ele>85.0</ele><time>2026-05-01T14:09:15.732Z</time></trkpt><trkpt lat="45.45306" lon="9.89216"><ele>85.0</ele><time>2026-05-01T14:09:17.732Z</time></trkpt><trkpt lat="45.4529733" lon="9.89221"><ele>85.0</ele><time>2026-05-01T14:09:19.732Z</time></trkpt><trkpt lat="45.4528717" lon="9.8922467"><ele>84.6</ele><time>2026-05-01T14:09:21.732Z</time></trkpt><trkpt lat="45.45277" lon="9.8922933"><ele>84.2</ele><time>2026-05-01T14:09:23.732Z</time></trkpt><trkpt lat="45.452665" lon="9.892345"><ele>83.80000000000001</ele><time>2026-05-01T14:09:25.732Z</time></trkpt><trkpt lat="45.4525683" lon="9.892395"><ele>83.4</ele><time>2026-05-01T14:09:27.732Z</time></trkpt><trkpt lat="45.4524617" lon="9.892435"><ele>83.0</ele><time>2026-05-01T14:09:29.732Z</time></trkpt><trkpt lat="45.4523633" lon="9.892465"><ele>83.0</ele><time>2026-05-01T14:09:31.732Z</time></trkpt><trkpt lat="45.4522533" lon="9.8925017"><ele>83.0</ele><time>2026-05-01T14:09:33.732Z</time></trkpt><trkpt lat="45.4521383" lon="9.89252"><ele>83.0</ele><time>2026-05-01T14:09:35.732Z</time></trkpt><trkpt lat="45.4520233" lon="9.892525"><ele>83.0</ele><time>2026-05-01T14:09:37.733Z</time></trkpt><trkpt lat="45.4519067" lon="9.892505"><ele>83.75</ele><time>2026-05-01T14:09:39.732Z</time></trkpt><trkpt lat="45.4517983" lon="9.8924817"><ele>84.5</ele><time>2026-05-01T14:09:41.732Z</time></trkpt><trkpt lat="45.4516767" lon="9.89246"><ele>85.25</ele><time>2026-05-01T14:09:43.732Z</time></trkpt><trkpt lat="45.4515583" lon="9.8924483"><ele>86.0</ele><time>2026-05-01T14:09:45.732Z</time></trkpt><trkpt lat="45.4514417" lon="9.89243"><ele>86.0</ele><time>2026-05-01T14:09:47.732Z</time></trkpt><trkpt lat="45.4513167" lon="9.8924133"><ele>86.0</ele><time>2026-05-01T14:09:49.732Z</time></trkpt><trkpt lat="45.4512517" lon="9.892395"><ele>86.0</ele><time>2026-05-01T14:09:50.732Z</time></trkpt><trkpt lat="45.4511583" lon="9.8923133"><ele>86.0</ele><time>2026-05-01T14:09:52.732Z</time></trkpt><trkpt lat="45.4510717" lon="9.8922117"><ele>86.0</ele><time>2026-05-01T14:09:54.732Z</time></trkpt><trkpt lat="45.4509667" lon="9.892115"><ele>85.8</ele><time>2026-05-01T14:09:56.732Z</time></trkpt><trkpt lat="45.4508617" lon="9.8920267"><ele>85.6</ele><time>2026-05-01T14:09:58.732Z</time></trkpt><trkpt lat="45.4508017" lon="9.8919983"><ele>85.4</ele><time>2026-05-01T14:09:59.733Z</time></trkpt><trkpt lat="45.4506883" lon="9.8919283"><ele>85.2</ele><time>2026-05-01T14:10:01.732Z</time></trkpt><trkpt lat="45.4505883" lon="9.891855"><ele>85.0</ele><time>2026-05-01T14:10:03.732Z</time></trkpt><trkpt lat="45.4504783" lon="9.8917767"><ele>85.0</ele><time>2026-05-01T14:10:05.732Z</time></trkpt><trkpt lat="45.4504183" lon="9.8917367"><ele>85.0</ele><time>2026-05-01T14:10:06.732Z</time></trkpt><trkpt lat="45.4503617" lon="9.89169"><ele>85.0</ele><time>2026-05-01T14:10:07.732Z</time></trkpt><trkpt lat="45.450255" lon="9.8916117"><ele>85.0</ele><time>2026-05-01T14:10:09.732Z</time></trkpt><trkpt lat="45.4501467" lon="9.891545"><ele>85.0</ele><time>2026-05-01T14:10:11.732Z</time></trkpt><trkpt lat="45.4500917" lon="9.8914967"><ele>85.0</ele><time>2026-05-01T14:10:12.732Z</time></trkpt><trkpt lat="45.45004" lon="9.8914417"><ele>85.0</ele><time>2026-05-01T14:10:13.732Z</time></trkpt><trkpt lat="45.4499883" lon="9.8913883"><ele>85.0</ele><time>2026-05-01T14:10:14.733Z</time></trkpt><trkpt lat="45.4499367" lon="9.8913333"><ele>85.0</ele><time>2026-05-01T14:10:15.732Z</time></trkpt><trkpt lat="45.4498433" lon="9.891235"><ele>85.0</ele><time>2026-05-01T14:10:17.732Z</time></trkpt><trkpt lat="45.4497417" lon="9.8911417"><ele>85.0</ele><time>2026-05-01T14:10:19.732Z</time></trkpt><trkpt lat="45.44964" lon="9.89105"><ele>85.0</ele><time>2026-05-01T14:10:21.732Z</time></trkpt><trkpt lat="45.4495883" lon="9.890995"><ele>85.0</ele><time>2026-05-01T14:10:22.732Z</time></trkpt><trkpt lat="45.4494883" lon="9.8908917"><ele>85.0</ele><time>2026-05-01T14:10:24.733Z</time></trkpt><trkpt lat="45.449435" lon="9.8908383"><ele>85.0</ele><time>2026-05-01T14:10:25.732Z</time></trkpt><trkpt lat="45.4493383" lon="9.89073"><ele>85.0</ele><time>2026-05-01T14:10:27.732Z</time></trkpt><trkpt lat="45.44924" lon="9.8906167"><ele>85.0</ele><time>2026-05-01T14:10:29.732Z</time></trkpt><trkpt lat="45.4491917" lon="9.8905583"><ele>85.0</ele><time>2026-05-01T14:10:30.732Z</time></trkpt><trkpt lat="45.4490983" lon="9.8904467"><ele>85.0</ele><time>2026-05-01T14:10:32.732Z</time></trkpt><trkpt lat="45.4490467" lon="9.89039"><ele>85.0</ele><time>2026-05-01T14:10:33.732Z</time></trkpt><trkpt lat="45.4489517" lon="9.8902983"><ele>85.0</ele><time>2026-05-01T14:10:35.732Z</time></trkpt><trkpt lat="45.4488983" lon="9.8902483"><ele>85.0</ele><time>2026-05-01T14:10:36.732Z</time></trkpt><trkpt lat="45.4488" lon="9.8901483"><ele>85.0</ele><time>2026-05-01T14:10:38.732Z</time></trkpt><trkpt lat="45.4487433" lon="9.8901083"><ele>85.0</ele><time>2026-05-01T14:10:39.732Z</time></trkpt><trkpt lat="45.44866" lon="9.8900517"><ele>85.0</ele><time>2026-05-01T14:10:41.732Z</time></trkpt><trkpt lat="45.4485917" lon="9.8899817"><ele>85.0</ele><time>2026-05-01T14:10:43.733Z</time></trkpt><trkpt lat="45.4485283" lon="9.8899033"><ele>85.0</ele><time>2026-05-01T14:10:45.732Z</time></trkpt><trkpt lat="45.44846" lon="9.8898467"><ele>85.0</ele><time>2026-05-01T14:10:47.732Z</time></trkpt><trkpt lat="45.44838" lon="9.8897833"><ele>85.25</ele><time>2026-05-01T14:10:49.732Z</time></trkpt><trkpt lat="45.448295" lon="9.8897017"><ele>85.5</ele><time>2026-05-01T14:10:51.732Z</time></trkpt><trkpt lat="45.4482067" lon="9.8895833"><ele>85.75</ele><time>2026-05-01T14:10:53.732Z</time></trkpt><trkpt lat="45.4481217" lon="9.8894817"><ele>86.0</ele><time>2026-05-01T14:10:55.732Z</time></trkpt><trkpt lat="45.4480133" lon="9.889425"><ele>86.0</ele><time>2026-05-01T14:10:57.732Z</time></trkpt><trkpt lat="45.44795" lon="9.8894083"><ele>86.0</ele><time>2026-05-01T14:10:58.732Z</time></trkpt><trkpt lat="45.447885" lon="9.8893817"><ele>86.0</ele><time>2026-05-01T14:10:59.732Z</time></trkpt><trkpt lat="45.44782" lon="9.8893567"><ele>86.0</ele><time>2026-05-01T14:11:00.732Z</time></trkpt><trkpt lat="45.4476983" lon="9.8893167"><ele>86.0</ele><time>2026-05-01T14:11:02.732Z</time></trkpt><trkpt lat="45.4475733" lon="9.889325"><ele>86.0</ele><time>2026-05-01T14:11:04.732Z</time></trkpt><trkpt lat="45.447465" lon="9.889245"><ele>86.0</ele><time>2026-05-01T14:11:06.732Z</time></trkpt><trkpt lat="45.44741" lon="9.889195"><ele>86.0</ele><time>2026-05-01T14:11:07.732Z</time></trkpt><trkpt lat="45.4473417" lon="9.889165"><ele>86.0</ele><time>2026-05-01T14:11:08.732Z</time></trkpt><trkpt lat="45.447275" lon="9.8891583"><ele>86.0</ele><time>2026-05-01T14:11:09.732Z</time></trkpt><trkpt lat="45.44721" lon="9.8891717"><ele>86.0</ele><time>2026-05-01T14:11:10.732Z</time></trkpt><trkpt lat="45.4470967" lon="9.8892083"><ele>86.0</ele><time>2026-05-01T14:11:12.732Z</time></trkpt><trkpt lat="45.44702" lon="9.8892467"><ele>85.33333333333334</ele><time>2026-05-01T14:11:14.732Z</time></trkpt><trkpt lat="45.4469433" lon="9.8893117"><ele>84.66666666666667</ele><time>2026-05-01T14:11:17.733Z</time></trkpt><trkpt lat="45.44692" lon="9.889435"><ele>84.0</ele><time>2026-05-01T14:11:20.733Z</time></trkpt><trkpt lat="45.446845" lon="9.88949"><ele>83.33333333333333</ele><time>2026-05-01T14:11:23.732Z</time></trkpt><trkpt lat="45.4467733" lon="9.889515"><ele>82.66666666666666</ele><time>2026-05-01T14:11:25.731Z</time></trkpt><trkpt lat="45.44668" lon="9.8895567"><ele>82.0</ele><time>2026-05-01T14:11:27.731Z</time></trkpt><trkpt lat="45.4465717" lon="9.8896333"><ele>82.0</ele><time>2026-05-01T14:11:29.731Z</time></trkpt><trkpt lat="45.4464783" lon="9.88971"><ele>82.0</ele><time>2026-05-01T14:11:31.731Z</time></trkpt><trkpt lat="45.4463817" lon="9.8897783"><ele>82.0</ele><time>2026-05-01T14:11:33.732Z</time></trkpt><trkpt lat="45.4462967" lon="9.8898633"><ele>82.0</ele><time>2026-05-01T14:11:35.731Z</time></trkpt><trkpt lat="45.4462317" lon="9.8899633"><ele>82.0</ele><time>2026-05-01T14:11:37.731Z</time></trkpt><trkpt lat="45.4461917" lon="9.8900967"><ele>82.16666666666666</ele><time>2026-05-01T14:11:39.731Z</time></trkpt><trkpt lat="45.4461667" lon="9.8902133"><ele>82.33333333333333</ele><time>2026-05-01T14:11:41.731Z</time></trkpt><trkpt lat="45.4461333" lon="9.8903117"><ele>82.5</ele><time>2026-05-01T14:11:43.731Z</time></trkpt><trkpt lat="45.4460683" lon="9.89037"><ele>82.66666666666667</ele><time>2026-05-01T14:11:45.731Z</time></trkpt><trkpt lat="45.4459767" lon="9.8904117"><ele>82.83333333333334</ele><time>2026-05-01T14:11:47.731Z</time></trkpt><trkpt lat="45.4458783" lon="9.8904467"><ele>83.0</ele><time>2026-05-01T14:11:49.731Z</time></trkpt><trkpt lat="45.44578" lon="9.8904867"><ele>83.0</ele><time>2026-05-01T14:11:51.731Z</time></trkpt><trkpt lat="45.4456817" lon="9.8905167"><ele>83.0</ele><time>2026-05-01T14:11:53.731Z</time></trkpt><trkpt lat="45.44558" lon="9.8905283"><ele>83.0</ele><time>2026-05-01T14:11:55.731Z</time></trkpt><trkpt lat="45.4454867" lon="9.8905367"><ele>83.0</ele><time>2026-05-01T14:11:57.731Z</time></trkpt><trkpt lat="45.4453967" lon="9.8905367"><ele>83.0</ele><time>2026-05-01T14:11:59.731Z</time></trkpt><trkpt lat="45.4453" lon="9.890525"><ele>82.60000000000001</ele><time>2026-05-01T14:12:01.731Z</time></trkpt><trkpt lat="45.4451983" lon="9.8905"><ele>82.2</ele><time>2026-05-01T14:12:03.731Z</time></trkpt><trkpt lat="45.4450917" lon="9.8904517"><ele>81.8</ele><time>2026-05-01T14:12:05.731Z</time></trkpt><trkpt lat="45.445025" lon="9.8904383"><ele>81.4</ele><time>2026-05-01T14:12:06.731Z</time></trkpt><trkpt lat="45.444905" lon="9.8903967"><ele>81.0</ele><time>2026-05-01T14:12:08.731Z</time></trkpt><trkpt lat="45.4447983" lon="9.89035"><ele>81.0</ele><time>2026-05-01T14:12:10.732Z</time></trkpt><trkpt lat="45.4447" lon="9.8903033"><ele>81.0</ele><time>2026-05-01T14:12:12.731Z</time></trkpt><trkpt lat="45.4445933" lon="9.8902583"><ele>81.0</ele><time>2026-05-01T14:12:14.731Z</time></trkpt><trkpt lat="45.44449" lon="9.8902167"><ele>81.0</ele><time>2026-05-01T14:12:16.731Z</time></trkpt><trkpt lat="45.4443883" lon="9.8901683"><ele>81.0</ele><time>2026-05-01T14:12:18.732Z</time></trkpt><trkpt lat="45.4442817" lon="9.8901133"><ele>81.0</ele><time>2026-05-01T14:12:20.731Z</time></trkpt><trkpt lat="45.4441633" lon="9.8900683"><ele>81.0</ele><time>2026-05-01T14:12:22.731Z</time></trkpt><trkpt lat="45.4440617" lon="9.890005"><ele>81.0</ele><time>2026-05-01T14:12:24.731Z</time></trkpt><trkpt lat="45.4439567" lon="9.8899417"><ele>81.0</ele><time>2026-05-01T14:12:26.731Z</time></trkpt><trkpt lat="45.4438533" lon="9.889865"><ele>81.4</ele><time>2026-05-01T14:12:28.731Z</time></trkpt><trkpt lat="45.4437567" lon="9.8897917"><ele>81.8</ele><time>2026-05-01T14:12:30.731Z</time></trkpt><trkpt lat="45.4436583" lon="9.8897083"><ele>82.2</ele><time>2026-05-01T14:12:32.731Z</time></trkpt><trkpt lat="45.4435617" lon="9.8896083"><ele>82.60000000000001</ele><time>2026-05-01T14:12:34.731Z</time></trkpt><trkpt lat="45.44351" lon="9.8895517"><ele>83.0</ele><time>2026-05-01T14:12:35.731Z</time></trkpt><trkpt lat="45.4434083" lon="9.88945"><ele>83.0</ele><time>2026-05-01T14:12:37.731Z</time></trkpt><trkpt lat="45.4433583" lon="9.889395"><ele>83.0</ele><time>2026-05-01T14:12:38.731Z</time></trkpt><trkpt lat="45.443305" lon="9.8893383"><ele>83.0</ele><time>2026-05-01T14:12:39.731Z</time></trkpt><trkpt lat="45.4432183" lon="9.889235"><ele>83.0</ele><time>2026-05-01T14:12:41.731Z</time></trkpt><trkpt lat="45.4431433" lon="9.889145"><ele>83.0</ele><time>2026-05-01T14:12:43.731Z</time></trkpt><trkpt lat="45.4430483" lon="9.8890733"><ele>83.0</ele><time>2026-05-01T14:12:45.731Z</time></trkpt><trkpt lat="45.442955" lon="9.88899"><ele>83.0</ele><time>2026-05-01T14:12:47.731Z</time></trkpt><trkpt lat="45.4428733" lon="9.8889"><ele>83.0</ele><time>2026-05-01T14:12:49.731Z</time></trkpt><trkpt lat="45.4427883" lon="9.8888"><ele>83.0</ele><time>2026-05-01T14:12:51.731Z</time></trkpt><trkpt lat="45.4427" lon="9.8887083"><ele>83.0</ele><time>2026-05-01T14:12:53.731Z</time></trkpt><trkpt lat="45.4426083" lon="9.8886033"><ele>83.0</ele><time>2026-05-01T14:12:55.731Z</time></trkpt><trkpt lat="45.442515" lon="9.88851"><ele>82.80000000000001</ele><time>2026-05-01T14:12:57.731Z</time></trkpt><trkpt lat="45.442435" lon="9.8884033"><ele>82.6</ele><time>2026-05-01T14:12:59.731Z</time></trkpt><trkpt lat="45.442345" lon="9.8883283"><ele>82.4</ele><time>2026-05-01T14:13:01.731Z</time></trkpt><trkpt lat="45.4422417" lon="9.8882867"><ele>82.19999999999999</ele><time>2026-05-01T14:13:03.731Z</time></trkpt><trkpt lat="45.4421517" lon="9.8882967"><ele>82.0</ele><time>2026-05-01T14:13:05.731Z</time></trkpt><trkpt lat="45.44205" lon="9.88829"><ele>82.0</ele><time>2026-05-01T14:13:07.731Z</time></trkpt><trkpt lat="45.4419633" lon="9.88827"><ele>82.0</ele><time>2026-05-01T14:13:09.731Z</time></trkpt><trkpt lat="45.4418883" lon="9.888255"><ele>82.0</ele><time>2026-05-01T14:13:12.731Z</time></trkpt><trkpt lat="45.4418167" lon="9.8882783"><ele>82.0</ele><time>2026-05-01T14:13:17.731Z</time></trkpt><trkpt lat="45.44174" lon="9.8882283"><ele>82.0</ele><time>2026-05-01T14:13:20.731Z</time></trkpt><trkpt lat="45.4417183" lon="9.8881283"><ele>82.0</ele><time>2026-05-01T14:13:22.731Z</time></trkpt><trkpt lat="45.4416983" lon="9.8880117"><ele>82.0</ele><time>2026-05-01T14:13:24.731Z</time></trkpt><trkpt lat="45.4416817" lon="9.887925"><ele>82.0</ele><time>2026-05-01T14:13:26.731Z</time></trkpt><trkpt lat="45.4416567" lon="9.88782"><ele>82.0</ele><time>2026-05-01T14:13:31.731Z</time></trkpt><trkpt lat="45.44164" lon="9.8876967"><ele>82.0</ele><time>2026-05-01T14:13:34.731Z</time></trkpt><trkpt lat="45.4416083" lon="9.88759"><ele>82.0</ele><time>2026-05-01T14:13:36.731Z</time></trkpt><trkpt lat="45.4415517" lon="9.88751"><ele>82.0</ele><time>2026-05-01T14:13:38.731Z</time></trkpt><trkpt lat="45.44147" lon="9.887425"><ele>82.0</ele><time>2026-05-01T14:13:40.732Z</time></trkpt><trkpt lat="45.4413817" lon="9.8873433"><ele>82.0</ele><time>2026-05-01T14:13:42.731Z</time></trkpt><trkpt lat="45.441295" lon="9.8872517"><ele>82.0</ele><time>2026-05-01T14:13:44.731Z</time></trkpt><trkpt lat="45.4412083" lon="9.8871483"><ele>82.0</ele><time>2026-05-01T14:13:46.731Z</time></trkpt><trkpt lat="45.4411417" lon="9.8870317"><ele>82.0</ele><time>2026-05-01T14:13:48.731Z</time></trkpt><trkpt lat="45.441075" lon="9.8869217"><ele>82.0</ele><time>2026-05-01T14:13:50.731Z</time></trkpt><trkpt lat="45.4409867" lon="9.8867967"><ele>82.0</ele><time>2026-05-01T14:13:52.731Z</time></trkpt><trkpt lat="45.4409367" lon="9.8867317"><ele>82.0</ele><time>2026-05-01T14:13:53.731Z</time></trkpt><trkpt lat="45.4408483" lon="9.8866267"><ele>82.0</ele><time>2026-05-01T14:13:55.731Z</time></trkpt><trkpt lat="45.440795" lon="9.8865767"><ele>82.0</ele><time>2026-05-01T14:13:56.731Z</time></trkpt><trkpt lat="45.440735" lon="9.8865367"><ele>82.0</ele><time>2026-05-01T14:13:57.731Z</time></trkpt><trkpt lat="45.440675" lon="9.886505"><ele>82.0</ele><time>2026-05-01T14:13:58.731Z</time></trkpt><trkpt lat="45.4405733" lon="9.886435"><ele>82.0</ele><time>2026-05-01T14:14:00.731Z</time></trkpt><trkpt lat="45.4404817" lon="9.8863833"><ele>82.0</ele><time>2026-05-01T14:14:02.731Z</time></trkpt><trkpt lat="45.4403817" lon="9.8863183"><ele>82.0</ele><time>2026-05-01T14:14:04.731Z</time></trkpt><trkpt lat="45.4402867" lon="9.886245"><ele>82.0</ele><time>2026-05-01T14:14:06.731Z</time></trkpt><trkpt lat="45.4401933" lon="9.88618"><ele>82.0</ele><time>2026-05-01T14:14:08.731Z</time></trkpt><trkpt lat="45.4401033" lon="9.88615"><ele>82.0</ele><time>2026-05-01T14:14:10.731Z</time></trkpt><trkpt lat="45.4400067" lon="9.8861283"><ele>82.0</ele><time>2026-05-01T14:14:12.731Z</time></trkpt><trkpt lat="45.4398933" lon="9.8861067"><ele>82.0</ele><time>2026-05-01T14:14:14.731Z</time></trkpt><trkpt lat="45.4397833" lon="9.8860517"><ele>82.0</ele><time>2026-05-01T14:14:16.731Z</time></trkpt><trkpt lat="45.4396833" lon="9.8859867"><ele>81.8</ele><time>2026-05-01T14:14:18.731Z</time></trkpt><trkpt lat="45.4395883" lon="9.8859167"><ele>81.6</ele><time>2026-05-01T14:14:20.731Z</time></trkpt><trkpt lat="45.4394917" lon="9.8858633"><ele>81.39999999999999</ele><time>2026-05-01T14:14:22.731Z</time></trkpt><trkpt lat="45.4393967" lon="9.8858167"><ele>81.19999999999999</ele><time>2026-05-01T14:14:24.731Z</time></trkpt><trkpt lat="45.4393083" lon="9.885775"><ele>81.0</ele><time>2026-05-01T14:14:26.731Z</time></trkpt><trkpt lat="45.4392133" lon="9.8857183"><ele>81.0</ele><time>2026-05-01T14:14:28.731Z</time></trkpt><trkpt lat="45.4391067" lon="9.8856667"><ele>81.0</ele><time>2026-05-01T14:14:30.731Z</time></trkpt><trkpt lat="45.439005" lon="9.8856317"><ele>81.0</ele><time>2026-05-01T14:14:32.731Z</time></trkpt><trkpt lat="45.4389083" lon="9.8856433"><ele>81.0</ele><time>2026-05-01T14:14:34.731Z</time></trkpt><trkpt lat="45.4388183" lon="9.8856133"><ele>81.0</ele><time>2026-05-01T14:14:36.731Z</time></trkpt><trkpt lat="45.43873" lon="9.88556"><ele>81.33333333333333</ele><time>2026-05-01T14:14:38.732Z</time></trkpt><trkpt lat="45.43864" lon="9.885535"><ele>81.66666666666667</ele><time>2026-05-01T14:14:40.731Z</time></trkpt><trkpt lat="45.43856" lon="9.8855117"><ele>82.0</ele><time>2026-05-01T14:14:42.731Z</time></trkpt><trkpt lat="45.43847" lon="9.8854967"><ele>82.33333333333334</ele><time>2026-05-01T14:14:44.731Z</time></trkpt><trkpt lat="45.4383883" lon="9.8854617"><ele>82.66666666666667</ele><time>2026-05-01T14:14:46.731Z</time></trkpt><trkpt lat="45.4383117" lon="9.8854383"><ele>83.0</ele><time>2026-05-01T14:14:48.731Z</time></trkpt><trkpt lat="45.43822" lon="9.88542"><ele>83.0</ele><time>2026-05-01T14:14:51.731Z</time></trkpt><trkpt lat="45.4381383" lon="9.8854317"><ele>83.0</ele><time>2026-05-01T14:14:54.731Z</time></trkpt><trkpt lat="45.4380617" lon="9.885465"><ele>83.0</ele><time>2026-05-01T14:14:57.731Z</time></trkpt><trkpt lat="45.437995" lon="9.885445"><ele>83.0</ele><time>2026-05-01T14:14:59.731Z</time></trkpt><trkpt lat="45.4379383" lon="9.88551"><ele>83.0</ele><time>2026-05-01T14:15:02.732Z</time></trkpt><trkpt lat="45.4379617" lon="9.885605"><ele>83.0</ele><time>2026-05-01T14:15:05.731Z</time></trkpt><trkpt lat="45.437925" lon="9.8856867"><ele>83.0</ele><time>2026-05-01T14:15:07.732Z</time></trkpt><trkpt lat="45.4378633" lon="9.8856533"><ele>83.4</ele><time>2026-05-01T14:15:09.731Z</time></trkpt><trkpt lat="45.4377817" lon="9.8855867"><ele>83.80000000000001</ele><time>2026-05-01T14:15:11.731Z</time></trkpt><trkpt lat="45.4377067" lon="9.8855317"><ele>84.2</ele><time>2026-05-01T14:15:13.731Z</time></trkpt><trkpt lat="45.4376467" lon="9.8854667"><ele>84.6</ele><time>2026-05-01T14:15:15.731Z</time></trkpt><trkpt lat="45.4375833" lon="9.8853733"><ele>85.0</ele><time>2026-05-01T14:15:17.731Z</time></trkpt><trkpt lat="45.4374783" lon="9.8853483"><ele>85.0</ele><time>2026-05-01T14:15:19.731Z</time></trkpt><trkpt lat="45.4373783" lon="9.8854167"><ele>85.0</ele><time>2026-05-01T14:15:21.731Z</time></trkpt><trkpt lat="45.4373017" lon="9.8854517"><ele>85.0</ele><time>2026-05-01T14:15:23.731Z</time></trkpt><trkpt lat="45.4372233" lon="9.8854917"><ele>85.0</ele><time>2026-05-01T14:15:25.731Z</time></trkpt><trkpt lat="45.437155" lon="9.8855933"><ele>85.0</ele><time>2026-05-01T14:15:27.731Z</time></trkpt><trkpt lat="45.43707" lon="9.88568"><ele>84.4</ele><time>2026-05-01T14:15:29.731Z</time></trkpt><trkpt lat="45.4369833" lon="9.8857533"><ele>83.8</ele><time>2026-05-01T14:15:31.731Z</time></trkpt><trkpt lat="45.4368733" lon="9.8857533"><ele>83.19999999999999</ele><time>2026-05-01T14:15:33.731Z</time></trkpt><trkpt lat="45.43676" lon="9.885715"><ele>82.6</ele><time>2026-05-01T14:15:35.731Z</time></trkpt><trkpt lat="45.4366883" lon="9.8856333"><ele>82.0</ele><time>2026-05-01T14:15:37.732Z</time></trkpt><trkpt lat="45.43664" lon="9.885555"><ele>82.0</ele><time>2026-05-01T14:15:40.731Z</time></trkpt><trkpt lat="45.436575" lon="9.8855867"><ele>82.0</ele><time>2026-05-01T14:15:42.731Z</time></trkpt><trkpt lat="45.436495" lon="9.8855733"><ele>82.0</ele><time>2026-05-01T14:15:44.731Z</time></trkpt><trkpt lat="45.4364283" lon="9.8855917"><ele>82.0</ele><time>2026-05-01T14:15:46.731Z</time></trkpt><trkpt lat="45.4363783" lon="9.88567"><ele>82.0</ele><time>2026-05-01T14:15:48.731Z</time></trkpt><trkpt lat="45.43634" lon="9.8858033"><ele>82.0</ele><time>2026-05-01T14:15:50.731Z</time></trkpt><trkpt lat="45.43627" lon="9.8858567"><ele>81.8</ele><time>2026-05-01T14:15:53.731Z</time></trkpt><trkpt lat="45.43624" lon="9.8859433"><ele>81.6</ele><time>2026-05-01T14:15:57.732Z</time></trkpt><trkpt lat="45.4361967" lon="9.8860483"><ele>81.39999999999999</ele><time>2026-05-01T14:16:00.731Z</time></trkpt><trkpt lat="45.4361083" lon="9.886075"><ele>81.19999999999999</ele><time>2026-05-01T14:16:02.731Z</time></trkpt><trkpt lat="45.4360033" lon="9.886075"><ele>81.0</ele><time>2026-05-01T14:16:04.731Z</time></trkpt><trkpt lat="45.4358933" lon="9.8861017"><ele>81.0</ele><time>2026-05-01T14:16:06.731Z</time></trkpt><trkpt lat="45.4357883" lon="9.8861533"><ele>81.0</ele><time>2026-05-01T14:16:08.731Z</time></trkpt><trkpt lat="45.435675" lon="9.8862017"><ele>81.0</ele><time>2026-05-01T14:16:10.731Z</time></trkpt><trkpt lat="45.4355533" lon="9.8862283"><ele>81.0</ele><time>2026-05-01T14:16:12.731Z</time></trkpt><trkpt lat="45.4354883" lon="9.886245"><ele>81.0</ele><time>2026-05-01T14:16:13.731Z</time></trkpt><trkpt lat="45.4353633" lon="9.8862383"><ele>81.6</ele><time>2026-05-01T14:16:15.731Z</time></trkpt><trkpt lat="45.4353033" lon="9.88621"><ele>82.19999999999999</ele><time>2026-05-01T14:16:16.731Z</time></trkpt><trkpt lat="45.4351883" lon="9.8862333"><ele>82.80000000000001</ele><time>2026-05-01T14:16:18.731Z</time></trkpt><trkpt lat="45.4351233" lon="9.88634"><ele>83.4</ele><time>2026-05-01T14:16:20.731Z</time></trkpt><trkpt lat="45.4350417" lon="9.8864083"><ele>84.0</ele><time>2026-05-01T14:16:22.731Z</time></trkpt><trkpt lat="45.4349583" lon="9.886465"><ele>84.0</ele><time>2026-05-01T14:16:24.731Z</time></trkpt><trkpt lat="45.4348567" lon="9.8864717"><ele>84.0</ele><time>2026-05-01T14:16:26.731Z</time></trkpt><trkpt lat="45.4347717" lon="9.8864617"><ele>84.0</ele><time>2026-05-01T14:16:28.731Z</time></trkpt><trkpt lat="45.4347217" lon="9.8865317"><ele>84.0</ele><time>2026-05-01T14:16:30.731Z</time></trkpt><trkpt lat="45.4346933" lon="9.8866167"><ele>84.0</ele><time>2026-05-01T14:16:32.731Z</time></trkpt><trkpt lat="45.434625" lon="9.88668"><ele>84.0</ele><time>2026-05-01T14:16:34.731Z</time></trkpt><trkpt lat="45.4345367" lon="9.88674"><ele>83.80000000000001</ele><time>2026-05-01T14:16:36.731Z</time></trkpt><trkpt lat="45.434455" lon="9.886845"><ele>83.60000000000001</ele><time>2026-05-01T14:16:38.731Z</time></trkpt><trkpt lat="45.4343683" lon="9.886885"><ele>83.4</ele><time>2026-05-01T14:16:40.731Z</time></trkpt><trkpt lat="45.4342767" lon="9.8868633"><ele>83.2</ele><time>2026-05-01T14:16:42.731Z</time></trkpt><trkpt lat="45.43418" lon="9.8868617"><ele>83.0</ele><time>2026-05-01T14:16:44.731Z</time></trkpt><trkpt lat="45.4341267" lon="9.8869517"><ele>83.0</ele><time>2026-05-01T14:16:47.731Z</time></trkpt><trkpt lat="45.4340767" lon="9.8870767"><ele>83.0</ele><time>2026-05-01T14:16:50.731Z</time></trkpt><trkpt lat="45.4339967" lon="9.887175"><ele>83.0</ele><time>2026-05-01T14:16:52.731Z</time></trkpt><trkpt lat="45.433915" lon="9.88727"><ele>83.0</ele><time>2026-05-01T14:16:54.731Z</time></trkpt><trkpt lat="45.43383" lon="9.88733"><ele>83.0</ele><time>2026-05-01T14:16:56.731Z</time></trkpt><trkpt lat="45.43372" lon="9.8874067"><ele>82.60000000000001</ele><time>2026-05-01T14:16:58.731Z</time></trkpt><trkpt lat="45.4336667" lon="9.8874617"><ele>82.2</ele><time>2026-05-01T14:16:59.731Z</time></trkpt><trkpt lat="45.4335783" lon="9.8875433"><ele>81.8</ele><time>2026-05-01T14:17:01.731Z</time></trkpt><trkpt lat="45.433485" lon="9.8875883"><ele>81.4</ele><time>2026-05-01T14:17:03.731Z</time></trkpt><trkpt lat="45.4333867" lon="9.88764"><ele>81.0</ele><time>2026-05-01T14:17:05.731Z</time></trkpt><trkpt lat="45.4332817" lon="9.8876517"><ele>81.0</ele><time>2026-05-01T14:17:07.731Z</time></trkpt><trkpt lat="45.433175" lon="9.8876633"><ele>81.0</ele><time>2026-05-01T14:17:09.731Z</time></trkpt><trkpt lat="45.433065" lon="9.887695"><ele>81.0</ele><time>2026-05-01T14:17:11.731Z</time></trkpt><trkpt lat="45.4329667" lon="9.88774"><ele>81.0</ele><time>2026-05-01T14:17:13.731Z</time></trkpt><trkpt lat="45.4328667" lon="9.8878017"><ele>81.0</ele><time>2026-05-01T14:17:15.731Z</time></trkpt><trkpt lat="45.432755" lon="9.887845"><ele>80.5</ele><time>2026-05-01T14:17:17.732Z</time></trkpt><trkpt lat="45.4326367" lon="9.887895"><ele>80.0</ele><time>2026-05-01T14:17:19.731Z</time></trkpt><trkpt lat="45.4325117" lon="9.8879267"><ele>79.5</ele><time>2026-05-01T14:17:21.731Z</time></trkpt><trkpt lat="45.4323883" lon="9.88795"><ele>79.0</ele><time>2026-05-01T14:17:23.731Z</time></trkpt><trkpt lat="45.43228" lon="9.88799"><ele>79.0</ele><time>2026-05-01T14:17:25.731Z</time></trkpt><trkpt lat="45.432205" lon="9.888025"><ele>79.0</ele><time>2026-05-01T14:17:27.731Z</time></trkpt><trkpt lat="45.4321467" lon="9.888085"><ele>79.0</ele><time>2026-05-01T14:17:29.731Z</time></trkpt><trkpt lat="45.4320617" lon="9.8880633"><ele>79.0</ele><time>2026-05-01T14:17:32.731Z</time></trkpt><trkpt lat="45.432" lon="9.88796"><ele>79.0</ele><time>2026-05-01T14:17:34.731Z</time></trkpt><trkpt lat="45.4319217" lon="9.887895"><ele>79.0</ele><time>2026-05-01T14:17:36.731Z</time></trkpt><trkpt lat="45.4318233" lon="9.8878583"><ele>79.0</ele><time>2026-05-01T14:17:38.731Z</time></trkpt><trkpt lat="45.43174" lon="9.8877983"><ele>79.0</ele><time>2026-05-01T14:17:40.732Z</time></trkpt><trkpt lat="45.4316367" lon="9.887775"><ele>79.0</ele><time>2026-05-01T14:17:42.731Z</time></trkpt><trkpt lat="45.4315333" lon="9.887785"><ele>79.0</ele><time>2026-05-01T14:17:44.731Z</time></trkpt><trkpt lat="45.4314217" lon="9.8877733"><ele>79.0</ele><time>2026-05-01T14:17:46.731Z</time></trkpt><trkpt lat="45.4313117" lon="9.88777"><ele>79.6</ele><time>2026-05-01T14:17:48.731Z</time></trkpt><trkpt lat="45.4312183" lon="9.887835"><ele>80.2</ele><time>2026-05-01T14:17:50.73Z</time></trkpt><trkpt lat="45.4311283" lon="9.8878933"><ele>80.8</ele><time>2026-05-01T14:17:52.73Z</time></trkpt><trkpt lat="45.43102" lon="9.8879267"><ele>81.39999999999999</ele><time>2026-05-01T14:17:54.73Z</time></trkpt><trkpt lat="45.430935" lon="9.8879667"><ele>82.0</ele><time>2026-05-01T14:17:56.73Z</time></trkpt><trkpt lat="45.4308783" lon="9.8880067"><ele>82.0</ele><time>2026-05-01T14:17:58.73Z</time></trkpt><trkpt lat="45.4308067" lon="9.887955"><ele>82.0</ele><time>2026-05-01T14:18:03.73Z</time></trkpt><trkpt lat="45.4307417" lon="9.887865"><ele>82.0</ele><time>2026-05-01T14:18:06.73Z</time></trkpt><trkpt lat="45.4306767" lon="9.8878333"><ele>82.0</ele><time>2026-05-01T14:18:08.73Z</time></trkpt><trkpt lat="45.4306033" lon="9.8877767"><ele>82.0</ele><time>2026-05-01T14:18:10.73Z</time></trkpt><trkpt lat="45.430545" lon="9.8877033"><ele>82.0</ele><time>2026-05-01T14:18:12.73Z</time></trkpt><trkpt lat="45.430465" lon="9.8877067"><ele>82.19999999999999</ele><time>2026-05-01T14:18:14.73Z</time></trkpt><trkpt lat="45.4303717" lon="9.8877433"><ele>82.4</ele><time>2026-05-01T14:18:16.73Z</time></trkpt><trkpt lat="45.430285" lon="9.887795"><ele>82.6</ele><time>2026-05-01T14:18:18.73Z</time></trkpt><trkpt lat="45.4301983" lon="9.8877983"><ele>82.80000000000001</ele><time>2026-05-01T14:18:20.731Z</time></trkpt><trkpt lat="45.4301067" lon="9.8877317"><ele>83.0</ele><time>2026-05-01T14:18:22.73Z</time></trkpt><trkpt lat="45.43001" lon="9.8876717"><ele>83.0</ele><time>2026-05-01T14:18:24.73Z</time></trkpt><trkpt lat="45.4299033" lon="9.8876567"><ele>83.0</ele><time>2026-05-01T14:18:26.73Z</time></trkpt><trkpt lat="45.4298267" lon="9.8876667"><ele>83.0</ele><time>2026-05-01T14:18:29.73Z</time></trkpt><trkpt lat="45.42977" lon="9.887605"><ele>83.0</ele><time>2026-05-01T14:18:33.73Z</time></trkpt><trkpt lat="45.4297467" lon="9.887735"><ele>83.0</ele><time>2026-05-01T14:18:37.73Z</time></trkpt><trkpt lat="45.4296933" lon="9.8878217"><ele>83.0</ele><time>2026-05-01T14:18:39.73Z</time></trkpt><trkpt lat="45.4296317" lon="9.8878833"><ele>83.33333333333334</ele><time>2026-05-01T14:18:41.73Z</time></trkpt><trkpt lat="45.4295117" lon="9.8879433"><ele>83.66666666666667</ele><time>2026-05-01T14:20:10.73Z</time></trkpt><trkpt lat="45.42943" lon="9.8879467"><ele>84.0</ele><time>2026-05-01T14:20:13.731Z</time></trkpt><trkpt lat="45.42938" lon="9.888005"><ele>84.33333333333333</ele><time>2026-05-01T14:20:15.73Z</time></trkpt><trkpt lat="45.4293017" lon="9.8880767"><ele>84.66666666666666</ele><time>2026-05-01T14:20:17.73Z</time></trkpt><trkpt lat="45.4292317" lon="9.88809"><ele>85.0</ele><time>2026-05-01T14:20:19.73Z</time></trkpt><trkpt lat="45.4292" lon="9.88798"><ele>85.0</ele><time>2026-05-01T14:20:21.731Z</time></trkpt><trkpt lat="45.42914" lon="9.8878883"><ele>85.0</ele><time>2026-05-01T14:20:23.73Z</time></trkpt><trkpt lat="45.4290533" lon="9.8878783"><ele>85.0</ele><time>2026-05-01T14:20:25.73Z</time></trkpt><trkpt lat="45.4290033" lon="9.8877983"><ele>85.0</ele><time>2026-05-01T14:20:27.73Z</time></trkpt><trkpt lat="45.428965" lon="9.8876767"><ele>85.0</ele><time>2026-05-01T14:20:29.73Z</time></trkpt><trkpt lat="45.4289083" lon="9.8875833"><ele>85.0</ele><time>2026-05-01T14:20:31.73Z</time></trkpt><trkpt lat="45.4288283" lon="9.8875367"><ele>84.4</ele><time>2026-05-01T14:20:33.73Z</time></trkpt><trkpt lat="45.428765" lon="9.8875567"><ele>83.8</ele><time>2026-05-01T14:20:35.73Z</time></trkpt><trkpt lat="45.4286767" lon="9.8875583"><ele>83.19999999999999</ele><time>2026-05-01T14:20:37.73Z</time></trkpt><trkpt lat="45.42861" lon="9.8874367"><ele>82.6</ele><time>2026-05-01T14:20:39.73Z</time></trkpt><trkpt lat="45.4285683" lon="9.8872633"><ele>82.0</ele><time>2026-05-01T14:20:41.73Z</time></trkpt><trkpt lat="45.4285617" lon="9.8871683"><ele>82.0</ele><time>2026-05-01T14:20:42.73Z</time></trkpt><trkpt lat="45.42855" lon="9.88699"><ele>82.0</ele><time>2026-05-01T14:20:44.731Z</time></trkpt><trkpt lat="45.4285333" lon="9.8869"><ele>82.0</ele><time>2026-05-01T14:20:45.73Z</time></trkpt><trkpt lat="45.4284533" lon="9.8867567"><ele>82.0</ele><time>2026-05-01T14:20:47.73Z</time></trkpt><trkpt lat="45.4283533" lon="9.88664"><ele>82.0</ele><time>2026-05-01T14:20:49.73Z</time></trkpt><trkpt lat="45.4282917" lon="9.8865233"><ele>81.83333333333333</ele><time>2026-05-01T14:20:51.73Z</time></trkpt><trkpt lat="45.4282233" lon="9.8864933"><ele>81.66666666666666</ele><time>2026-05-01T14:20:53.73Z</time></trkpt><trkpt lat="45.4281467" lon="9.8864183"><ele>81.5</ele><time>2026-05-01T14:20:56.73Z</time></trkpt><trkpt lat="45.4280867" lon="9.8863783"><ele>81.33333333333333</ele><time>2026-05-01T14:20:58.73Z</time></trkpt><trkpt lat="45.4280117" lon="9.8863767"><ele>81.16666666666667</ele><time>2026-05-01T14:21:00.73Z</time></trkpt><trkpt lat="45.42792" lon="9.88637"><ele>81.0</ele><time>2026-05-01T14:21:02.73Z</time></trkpt><trkpt lat="45.4278183" lon="9.8863583"><ele>81.0</ele><time>2026-05-01T14:21:04.731Z</time></trkpt><trkpt lat="45.4277117" lon="9.88637"><ele>81.0</ele><time>2026-05-01T14:21:06.73Z</time></trkpt><trkpt lat="45.427605" lon="9.8863583"><ele>81.0</ele><time>2026-05-01T14:21:08.73Z</time></trkpt><trkpt lat="45.4274933" lon="9.8863267"><ele>81.0</ele><time>2026-05-01T14:21:10.73Z</time></trkpt><trkpt lat="45.427375" lon="9.8863233"><ele>81.0</ele><time>2026-05-01T14:21:12.73Z</time></trkpt><trkpt lat="45.427255" lon="9.8863233"><ele>80.8</ele><time>2026-05-01T14:21:14.73Z</time></trkpt><trkpt lat="45.4271367" lon="9.8863033"><ele>80.6</ele><time>2026-05-01T14:21:16.73Z</time></trkpt><trkpt lat="45.4270233" lon="9.8862883"><ele>80.4</ele><time>2026-05-01T14:21:18.73Z</time></trkpt><trkpt lat="45.4269033" lon="9.8862617"><ele>80.2</ele><time>2026-05-01T14:21:20.73Z</time></trkpt><trkpt lat="45.4268383" lon="9.88625"><ele>80.0</ele><time>2026-05-01T14:21:21.73Z</time></trkpt><trkpt lat="45.426775" lon="9.8862367"><ele>80.0</ele><time>2026-05-01T14:21:22.73Z</time></trkpt><trkpt lat="45.4267117" lon="9.8862317"><ele>80.0</ele><time>2026-05-01T14:21:23.73Z</time></trkpt><trkpt lat="45.4265833" lon="9.88623"><ele>80.0</ele><time>2026-05-01T14:21:25.73Z</time></trkpt><trkpt lat="45.42652" lon="9.88622"><ele>80.0</ele><time>2026-05-01T14:21:26.73Z</time></trkpt><trkpt lat="45.4264567" lon="9.88621"><ele>80.0</ele><time>2026-05-01T14:21:27.73Z</time></trkpt><trkpt lat="45.4263283" lon="9.8861867"><ele>80.0</ele><time>2026-05-01T14:21:29.73Z</time></trkpt><trkpt lat="45.42626" lon="9.8861717"><ele>80.0</ele><time>2026-05-01T14:21:30.73Z</time></trkpt><trkpt lat="45.4261933" lon="9.886165"><ele>80.0</ele><time>2026-05-01T14:21:31.73Z</time></trkpt><trkpt lat="45.426125" lon="9.8861517"><ele>80.0</ele><time>2026-05-01T14:21:32.73Z</time></trkpt><trkpt lat="45.4260617" lon="9.8861517"><ele>80.0</ele><time>2026-05-01T14:21:33.73Z</time></trkpt><trkpt lat="45.4259933" lon="9.886145"><ele>80.0</ele><time>2026-05-01T14:21:34.73Z</time></trkpt><trkpt lat="45.4259033" lon="9.8861167"><ele>80.0</ele><time>2026-05-01T14:21:36.73Z</time></trkpt><trkpt lat="45.42584" lon="9.8860767"><ele>80.0</ele><time>2026-05-01T14:21:46.73Z</time></trkpt><trkpt lat="45.4257717" lon="9.8860633"><ele>80.0</ele><time>2026-05-01T14:21:48.73Z</time></trkpt><trkpt lat="45.4256933" lon="9.8860517"><ele>80.0</ele><time>2026-05-01T14:21:50.73Z</time></trkpt><trkpt lat="45.4256133" lon="9.8860417"><ele>80.0</ele><time>2026-05-01T14:21:52.73Z</time></trkpt><trkpt lat="45.42553" lon="9.8860233"><ele>80.0</ele><time>2026-05-01T14:21:54.73Z</time></trkpt><trkpt lat="45.4254333" lon="9.8859933"><ele>80.0</ele><time>2026-05-01T14:21:56.73Z</time></trkpt><trkpt lat="45.425335" lon="9.8860017"><ele>80.0</ele><time>2026-05-01T14:21:58.73Z</time></trkpt><trkpt lat="45.425255" lon="9.8860817"><ele>79.8</ele><time>2026-05-01T14:22:00.73Z</time></trkpt><trkpt lat="45.42521" lon="9.8862283"><ele>79.6</ele><time>2026-05-01T14:22:02.73Z</time></trkpt><trkpt lat="45.4251283" lon="9.8863267"><ele>79.4</ele><time>2026-05-01T14:22:04.73Z</time></trkpt><trkpt lat="45.4250417" lon="9.8864033"><ele>79.2</ele><time>2026-05-01T14:22:06.73Z</time></trkpt><trkpt lat="45.4249467" lon="9.88649"><ele>79.0</ele><time>2026-05-01T14:22:08.73Z</time></trkpt><trkpt lat="45.4248617" lon="9.88658"><ele>79.0</ele><time>2026-05-01T14:22:10.73Z</time></trkpt><trkpt lat="45.42478" lon="9.8866717"><ele>79.0</ele><time>2026-05-01T14:22:12.73Z</time></trkpt><trkpt lat="45.4246933" lon="9.8867367"><ele>79.0</ele><time>2026-05-01T14:22:14.73Z</time></trkpt><trkpt lat="45.4245983" lon="9.886785"><ele>79.0</ele><time>2026-05-01T14:22:16.73Z</time></trkpt><trkpt lat="45.4245083" lon="9.88688"><ele>79.0</ele><time>2026-05-01T14:22:18.73Z</time></trkpt><trkpt lat="45.424415" lon="9.8869817"><ele>78.8</ele><time>2026-05-01T14:22:20.73Z</time></trkpt><trkpt lat="45.4243467" lon="9.8871183"><ele>78.60000000000001</ele><time>2026-05-01T14:22:22.73Z</time></trkpt><trkpt lat="45.424275" lon="9.88724"><ele>78.4</ele><time>2026-05-01T14:22:24.73Z</time></trkpt><trkpt lat="45.4241717" lon="9.8873367"><ele>78.2</ele><time>2026-05-01T14:22:26.73Z</time></trkpt><trkpt lat="45.42411" lon="9.8873733"><ele>78.0</ele><time>2026-05-01T14:22:27.73Z</time></trkpt><trkpt lat="45.4240133" lon="9.8874967"><ele>78.25</ele><time>2026-05-01T14:22:29.73Z</time></trkpt><trkpt lat="45.423925" lon="9.88762"><ele>78.5</ele><time>2026-05-01T14:22:31.73Z</time></trkpt><trkpt lat="45.42384" lon="9.8877483"><ele>78.75</ele><time>2026-05-01T14:22:33.73Z</time></trkpt><trkpt lat="45.4237533" lon="9.887835"><ele>79.0</ele><time>2026-05-01T14:22:35.73Z</time></trkpt><trkpt lat="45.4236517" lon="9.887895"><ele>78.2</ele><time>2026-05-01T14:22:37.73Z</time></trkpt><trkpt lat="45.423545" lon="9.887885"><ele>77.4</ele><time>2026-05-01T14:22:39.73Z</time></trkpt><trkpt lat="45.4234417" lon="9.8879683"><ele>76.6</ele><time>2026-05-01T14:22:41.73Z</time></trkpt><trkpt lat="45.4233617" lon="9.8880783"><ele>75.8</ele><time>2026-05-01T14:22:43.73Z</time></trkpt><trkpt lat="45.42327" lon="9.8881317"><ele>75.0</ele><time>2026-05-01T14:22:45.73Z</time></trkpt><trkpt lat="45.4232167" lon="9.888215"><ele>75.0</ele><time>2026-05-01T14:22:47.73Z</time></trkpt><trkpt lat="45.423185" lon="9.8883133"><ele>75.0</ele><time>2026-05-01T14:22:49.73Z</time></trkpt><trkpt lat="45.4230883" lon="9.888345"><ele>75.0</ele><time>2026-05-01T14:22:52.73Z</time></trkpt><trkpt lat="45.4230117" lon="9.8883767"><ele>75.0</ele><time>2026-05-01T14:22:54.73Z</time></trkpt><trkpt lat="45.42293" lon="9.8884083"><ele>75.0</ele><time>2026-05-01T14:22:56.73Z</time></trkpt><trkpt lat="45.422845" lon="9.8883983"><ele>75.0</ele><time>2026-05-01T14:22:58.73Z</time></trkpt><trkpt lat="45.422765" lon="9.8883883"><ele>75.0</ele><time>2026-05-01T14:23:00.731Z</time></trkpt><trkpt lat="45.422685" lon="9.8884"><ele>75.0</ele><time>2026-05-01T14:23:02.73Z</time></trkpt><trkpt lat="45.4226067" lon="9.8884567"><ele>75.0</ele><time>2026-05-01T14:23:04.73Z</time></trkpt><trkpt lat="45.4225383" lon="9.8885583"><ele>75.0</ele><time>2026-05-01T14:23:06.73Z</time></trkpt><trkpt lat="45.4225267" lon="9.8886933"><ele>75.0</ele><time>2026-05-01T14:23:08.73Z</time></trkpt><trkpt lat="45.4225167" lon="9.88885"><ele>75.0</ele><time>2026-05-01T14:23:10.73Z</time></trkpt><trkpt lat="45.4224967" lon="9.8890183"><ele>75.0</ele><time>2026-05-01T14:23:12.73Z</time></trkpt><trkpt lat="45.42246" lon="9.8891667"><ele>75.0</ele><time>2026-05-01T14:23:14.73Z</time></trkpt><trkpt lat="45.4224183" lon="9.8893083"><ele>75.0</ele><time>2026-05-01T14:23:16.73Z</time></trkpt><trkpt lat="45.4223883" lon="9.8894583"><ele>75.0</ele><time>2026-05-01T14:23:18.729Z</time></trkpt><trkpt lat="45.4223633" lon="9.889625"><ele>74.5</ele><time>2026-05-01T14:23:20.729Z</time></trkpt><trkpt lat="45.4223383" lon="9.8897833"><ele>74.0</ele><time>2026-05-01T14:23:22.729Z</time></trkpt><trkpt lat="45.422305" lon="9.88995"><ele>73.5</ele><time>2026-05-01T14:23:24.729Z</time></trkpt><trkpt lat="45.4222683" lon="9.8901083"><ele>73.0</ele><time>2026-05-01T14:23:26.729Z</time></trkpt><trkpt lat="45.4222317" lon="9.8902617"><ele>73.0</ele><time>2026-05-01T14:23:28.729Z</time></trkpt><trkpt lat="45.4221983" lon="9.8904117"><ele>73.0</ele><time>2026-05-01T14:23:30.729Z</time></trkpt><trkpt lat="45.4221767" lon="9.8905383"><ele>73.0</ele><time>2026-05-01T14:23:32.729Z</time></trkpt><trkpt lat="45.4221467" lon="9.8906433"><ele>73.0</ele><time>2026-05-01T14:23:34.729Z</time></trkpt><trkpt lat="45.4221183" lon="9.89075"><ele>73.0</ele><time>2026-05-01T14:24:59.729Z</time></trkpt><trkpt lat="45.4220817" lon="9.8908683"><ele>72.66666666666666</ele><time>2026-05-01T14:25:02.729Z</time></trkpt><trkpt lat="45.4220533" lon="9.89096"><ele>72.33333333333333</ele><time>2026-05-01T14:25:04.729Z</time></trkpt><trkpt lat="45.42202" lon="9.89106"><ele>72.0</ele><time>2026-05-01T14:25:06.729Z</time></trkpt><trkpt lat="45.4219867" lon="9.8911717"><ele>71.66666666666667</ele><time>2026-05-01T14:25:08.729Z</time></trkpt><trkpt lat="45.4219533" lon="9.891295"><ele>71.33333333333334</ele><time>2026-05-01T14:25:10.73Z</time></trkpt><trkpt lat="45.4219183" lon="9.8914217"><ele>71.0</ele><time>2026-05-01T14:25:12.729Z</time></trkpt><trkpt lat="45.4218717" lon="9.8915383"><ele>71.0</ele><time>2026-05-01T14:25:14.729Z</time></trkpt><trkpt lat="45.421825" lon="9.8916717"><ele>71.0</ele><time>2026-05-01T14:25:16.73Z</time></trkpt><trkpt lat="45.4217767" lon="9.8917967"><ele>71.0</ele><time>2026-05-01T14:25:18.729Z</time></trkpt><trkpt lat="45.4217333" lon="9.8919183"><ele>71.0</ele><time>2026-05-01T14:25:20.729Z</time></trkpt><trkpt lat="45.4216883" lon="9.8920567"><ele>71.0</ele><time>2026-05-01T14:25:22.729Z</time></trkpt><trkpt lat="45.4216417" lon="9.892185"><ele>71.39999999999999</ele><time>2026-05-01T14:25:24.729Z</time></trkpt><trkpt lat="45.421585" lon="9.892315"><ele>71.8</ele><time>2026-05-01T14:25:26.729Z</time></trkpt><trkpt lat="45.42153" lon="9.8924367"><ele>72.19999999999999</ele><time>2026-05-01T14:25:28.729Z</time></trkpt><trkpt lat="45.4214667" lon="9.89257"><ele>72.6</ele><time>2026-05-01T14:25:30.729Z</time></trkpt><trkpt lat="45.4213983" lon="9.89268"><ele>73.0</ele><time>2026-05-01T14:25:32.729Z</time></trkpt><trkpt lat="45.4213333" lon="9.8928"><ele>73.0</ele><time>2026-05-01T14:25:34.729Z</time></trkpt><trkpt lat="45.421265" lon="9.89292"><ele>73.0</ele><time>2026-05-01T14:25:36.729Z</time></trkpt><trkpt lat="45.421185" lon="9.8930367"><ele>73.0</ele><time>2026-05-01T14:25:38.729Z</time></trkpt><trkpt lat="45.4211033" lon="9.89315"><ele>73.0</ele><time>2026-05-01T14:25:40.729Z</time></trkpt><trkpt lat="45.421015" lon="9.8932617"><ele>73.0</ele><time>2026-05-01T14:25:42.729Z</time></trkpt><trkpt lat="45.42092" lon="9.89336"><ele>73.0</ele><time>2026-05-01T14:25:44.73Z</time></trkpt><trkpt lat="45.42082" lon="9.893445"><ele>73.0</ele><time>2026-05-01T14:25:46.729Z</time></trkpt><trkpt lat="45.4207217" lon="9.8935283"><ele>73.0</ele><time>2026-05-01T14:25:48.729Z</time></trkpt><trkpt lat="45.4206233" lon="9.8936067"><ele>73.0</ele><time>2026-05-01T14:25:50.729Z</time></trkpt><trkpt lat="45.4205133" lon="9.8936767"><ele>73.0</ele><time>2026-05-01T14:25:52.729Z</time></trkpt><trkpt lat="45.4204117" lon="9.8937233"><ele>73.0</ele><time>2026-05-01T14:25:54.73Z</time></trkpt><trkpt lat="45.4203067" lon="9.8937567"><ele>73.0</ele><time>2026-05-01T14:25:56.729Z</time></trkpt><trkpt lat="45.4201967" lon="9.8938117"><ele>73.0</ele><time>2026-05-01T14:25:58.73Z</time></trkpt><trkpt lat="45.42008" lon="9.8938483"><ele>73.0</ele><time>2026-05-01T14:26:00.729Z</time></trkpt><trkpt lat="45.4199567" lon="9.8938667"><ele>73.0</ele><time>2026-05-01T14:26:02.729Z</time></trkpt><trkpt lat="45.4198883" lon="9.8938767"><ele>73.0</ele><time>2026-05-01T14:26:03.729Z</time></trkpt><trkpt lat="45.41982" lon="9.8938783"><ele>73.0</ele><time>2026-05-01T14:26:04.729Z</time></trkpt><trkpt lat="45.4197517" lon="9.893885"><ele>73.0</ele><time>2026-05-01T14:26:05.729Z</time></trkpt><trkpt lat="45.4196833" lon="9.89389"><ele>73.5</ele><time>2026-05-01T14:26:06.73Z</time></trkpt><trkpt lat="45.4196167" lon="9.8938833"><ele>74.0</ele><time>2026-05-01T14:26:07.729Z</time></trkpt><trkpt lat="45.4194933" lon="9.8938783"><ele>74.5</ele><time>2026-05-01T14:26:09.729Z</time></trkpt><trkpt lat="45.41943" lon="9.8938667"><ele>75.0</ele><time>2026-05-01T14:26:10.729Z</time></trkpt><trkpt lat="45.4193167" lon="9.893825"><ele>75.5</ele><time>2026-05-01T14:26:12.729Z</time></trkpt><trkpt lat="45.4192483" lon="9.8938017"><ele>76.0</ele><time>2026-05-01T14:26:13.729Z</time></trkpt><trkpt lat="45.4191817" lon="9.8937833"><ele>76.0</ele><time>2026-05-01T14:26:14.729Z</time></trkpt><trkpt lat="45.41912" lon="9.8937533"><ele>76.0</ele><time>2026-05-01T14:26:15.729Z</time></trkpt><trkpt lat="45.419005" lon="9.8937033"><ele>76.0</ele><time>2026-05-01T14:26:17.729Z</time></trkpt><trkpt lat="45.4188933" lon="9.893645"><ele>76.0</ele><time>2026-05-01T14:26:19.729Z</time></trkpt><trkpt lat="45.4187833" lon="9.893595"><ele>76.0</ele><time>2026-05-01T14:26:21.729Z</time></trkpt><trkpt lat="45.4186833" lon="9.893535"><ele>75.5</ele><time>2026-05-01T14:26:23.729Z</time></trkpt><trkpt lat="45.4185933" lon="9.8934483"><ele>75.0</ele><time>2026-05-01T14:26:25.729Z</time></trkpt><trkpt lat="45.4185017" lon="9.8933433"><ele>74.5</ele><time>2026-05-01T14:26:27.729Z</time></trkpt><trkpt lat="45.4184067" lon="9.893235"><ele>74.0</ele><time>2026-05-01T14:26:29.729Z</time></trkpt><trkpt lat="45.4183117" lon="9.8931283"><ele>74.0</ele><time>2026-05-01T14:26:31.729Z</time></trkpt><trkpt lat="45.4182167" lon="9.89301"><ele>74.0</ele><time>2026-05-01T14:26:33.729Z</time></trkpt><trkpt lat="45.4181267" lon="9.8928983"><ele>74.0</ele><time>2026-05-01T14:26:35.729Z</time></trkpt><trkpt lat="45.4180333" lon="9.892785"><ele>74.0</ele><time>2026-05-01T14:26:37.729Z</time></trkpt><trkpt lat="45.4179283" lon="9.8926717"><ele>74.0</ele><time>2026-05-01T14:26:39.729Z</time></trkpt><trkpt lat="45.417875" lon="9.89262"><ele>74.0</ele><time>2026-05-01T14:26:40.729Z</time></trkpt><trkpt lat="45.41782" lon="9.8925717"><ele>74.0</ele><time>2026-05-01T14:26:41.729Z</time></trkpt><trkpt lat="45.4177667" lon="9.89252"><ele>74.0</ele><time>2026-05-01T14:26:42.729Z</time></trkpt><trkpt lat="45.41771" lon="9.892465"><ele>74.0</ele><time>2026-05-01T14:26:43.729Z</time></trkpt><trkpt lat="45.4176567" lon="9.8924167"><ele>74.0</ele><time>2026-05-01T14:26:44.729Z</time></trkpt><trkpt lat="45.4175967" lon="9.89237"><ele>74.0</ele><time>2026-05-01T14:26:45.729Z</time></trkpt><trkpt lat="45.4175367" lon="9.8923283"><ele>74.0</ele><time>2026-05-01T14:26:46.729Z</time></trkpt><trkpt lat="45.4174783" lon="9.8922767"><ele>74.0</ele><time>2026-05-01T14:26:47.729Z</time></trkpt><trkpt lat="45.4174167" lon="9.8922317"><ele>74.0</ele><time>2026-05-01T14:26:48.729Z</time></trkpt><trkpt lat="45.41736" lon="9.8921833"><ele>74.0</ele><time>2026-05-01T14:26:49.729Z</time></trkpt><trkpt lat="45.4173033" lon="9.8921367"><ele>74.0</ele><time>2026-05-01T14:26:50.729Z</time></trkpt><trkpt lat="45.4172467" lon="9.892095"><ele>74.0</ele><time>2026-05-01T14:26:51.729Z</time></trkpt><trkpt lat="45.417145" lon="9.8920267"><ele>74.0</ele><time>2026-05-01T14:26:53.729Z</time></trkpt><trkpt lat="45.4170817" lon="9.8920233"><ele>73.8</ele><time>2026-05-01T14:26:54.729Z</time></trkpt><trkpt lat="45.41697" lon="9.8919617"><ele>73.60000000000001</ele><time>2026-05-01T14:26:56.729Z</time></trkpt><trkpt lat="45.4169183" lon="9.8919033"><ele>73.4</ele><time>2026-05-01T14:26:57.729Z</time></trkpt><trkpt lat="45.4168067" lon="9.8918167"><ele>73.2</ele><time>2026-05-01T14:26:59.729Z</time></trkpt><trkpt lat="45.4167333" lon="9.8917883"><ele>73.0</ele><time>2026-05-01T14:27:00.729Z</time></trkpt><trkpt lat="45.416665" lon="9.8917667"><ele>73.14285714285714</ele><time>2026-05-01T14:27:01.729Z</time></trkpt><trkpt lat="45.4165883" lon="9.891735"><ele>73.28571428571429</ele><time>2026-05-01T14:27:02.73Z</time></trkpt><trkpt lat="45.4165133" lon="9.891695"><ele>73.42857142857143</ele><time>2026-05-01T14:27:03.729Z</time></trkpt><trkpt lat="45.416455" lon="9.891635"><ele>73.57142857142857</ele><time>2026-05-01T14:27:04.73Z</time></trkpt><trkpt lat="45.4164233" lon="9.891555"><ele>73.71428571428571</ele><time>2026-05-01T14:27:05.729Z</time></trkpt><trkpt lat="45.4164117" lon="9.8914633"><ele>73.85714285714286</ele><time>2026-05-01T14:27:06.729Z</time></trkpt><trkpt lat="45.41641" lon="9.8913633"><ele>74.0</ele><time>2026-05-01T14:27:07.729Z</time></trkpt><trkpt lat="45.4164017" lon="9.891265"><ele>74.0</ele><time>2026-05-01T14:27:08.729Z</time></trkpt><trkpt lat="45.4163683" lon="9.89118"><ele>74.0</ele><time>2026-05-01T14:27:09.729Z</time></trkpt><trkpt lat="45.4163217" lon="9.8911183"><ele>74.0</ele><time>2026-05-01T14:27:10.729Z</time></trkpt><trkpt lat="45.4162583" lon="9.8910767"><ele>74.0</ele><time>2026-05-01T14:27:11.729Z</time></trkpt><trkpt lat="45.416185" lon="9.891065"><ele>74.0</ele><time>2026-05-01T14:27:12.729Z</time></trkpt><trkpt lat="45.4161117" lon="9.8910433"><ele>74.0</ele><time>2026-05-01T14:27:13.729Z</time></trkpt><trkpt lat="45.41604" lon="9.891005"><ele>74.0</ele><time>2026-05-01T14:27:14.729Z</time></trkpt><trkpt lat="45.4159783" lon="9.8909517"><ele>73.85714285714286</ele><time>2026-05-01T14:27:15.729Z</time></trkpt><trkpt lat="45.4159133" lon="9.8908917"><ele>73.71428571428571</ele><time>2026-05-01T14:27:16.729Z</time></trkpt><trkpt lat="45.4158533" lon="9.8908167"><ele>73.57142857142857</ele><time>2026-05-01T14:27:17.729Z</time></trkpt><trkpt lat="45.4158067" lon="9.8907283"><ele>73.42857142857143</ele><time>2026-05-01T14:27:18.729Z</time></trkpt><trkpt lat="45.41577" lon="9.8906433"><ele>73.28571428571429</ele><time>2026-05-01T14:27:19.73Z</time></trkpt><trkpt lat="45.4157317" lon="9.8905667"><ele>73.14285714285714</ele><time>2026-05-01T14:27:20.729Z</time></trkpt><trkpt lat="45.415685" lon="9.8905017"><ele>73.0</ele><time>2026-05-01T14:27:21.729Z</time></trkpt><trkpt lat="45.4156283" lon="9.890445"><ele>73.0</ele><time>2026-05-01T14:27:22.729Z</time></trkpt><trkpt lat="45.4155633" lon="9.8904"><ele>73.0</ele><time>2026-05-01T14:27:23.729Z</time></trkpt><trkpt lat="45.4154917" lon="9.8903683"><ele>73.0</ele><time>2026-05-01T14:27:24.729Z</time></trkpt><trkpt lat="45.4154267" lon="9.8903267"><ele>73.0</ele><time>2026-05-01T14:27:25.729Z</time></trkpt><trkpt lat="45.4153717" lon="9.89026"><ele>73.0</ele><time>2026-05-01T14:27:26.729Z</time></trkpt><trkpt lat="45.4153217" lon="9.890195"><ele>73.0</ele><time>2026-05-01T14:27:27.729Z</time></trkpt><trkpt lat="45.4152633" lon="9.8901333"><ele>73.0</ele><time>2026-05-01T14:27:28.729Z</time></trkpt><trkpt lat="45.4151383" lon="9.8900983"><ele>73.4</ele><time>2026-05-01T14:27:30.729Z</time></trkpt><trkpt lat="45.4150267" lon="9.890045"><ele>73.8</ele><time>2026-05-01T14:27:32.729Z</time></trkpt><trkpt lat="45.4149433" lon="9.8899367"><ele>74.2</ele><time>2026-05-01T14:27:34.729Z</time></trkpt><trkpt lat="45.41488" lon="9.88988"><ele>74.6</ele><time>2026-05-01T14:27:36.729Z</time></trkpt><trkpt lat="45.414815" lon="9.8899183"><ele>75.0</ele><time>2026-05-01T14:27:38.729Z</time></trkpt><trkpt lat="45.4147367" lon="9.8899283"><ele>75.0</ele><time>2026-05-01T14:27:40.729Z</time></trkpt><trkpt lat="45.4146533" lon="9.8898567"><ele>75.0</ele><time>2026-05-01T14:27:42.729Z</time></trkpt><trkpt lat="45.4145633" lon="9.8897833"><ele>75.0</ele><time>2026-05-01T14:27:44.729Z</time></trkpt><trkpt lat="45.4144583" lon="9.8897733"><ele>75.0</ele><time>2026-05-01T14:27:46.729Z</time></trkpt><trkpt lat="45.4143633" lon="9.8897883"><ele>75.0</ele><time>2026-05-01T14:27:48.729Z</time></trkpt><trkpt lat="45.414255" lon="9.8897717"><ele>75.0</ele><time>2026-05-01T14:27:50.729Z</time></trkpt><trkpt lat="45.4141433" lon="9.8897533"><ele>75.0</ele><time>2026-05-01T14:27:52.729Z</time></trkpt><trkpt lat="45.41405" lon="9.8897833"><ele>75.0</ele><time>2026-05-01T14:27:54.73Z</time></trkpt><trkpt lat="45.4139683" lon="9.8897933"><ele>75.0</ele><time>2026-05-01T14:27:56.729Z</time></trkpt><trkpt lat="45.4139117" lon="9.889735"><ele>75.0</ele><time>2026-05-01T14:27:58.729Z</time></trkpt><trkpt lat="45.4138283" lon="9.889735"><ele>75.0</ele><time>2026-05-01T14:28:00.729Z</time></trkpt><trkpt lat="45.4137433" lon="9.8898033"><ele>74.4</ele><time>2026-05-01T14:28:02.729Z</time></trkpt><trkpt lat="45.4136467" lon="9.88988"><ele>73.8</ele><time>2026-05-01T14:28:04.729Z</time></trkpt><trkpt lat="45.41357" lon="9.8899583"><ele>73.2</ele><time>2026-05-01T14:28:06.729Z</time></trkpt><trkpt lat="45.4134617" lon="9.89004"><ele>72.6</ele><time>2026-05-01T14:28:08.729Z</time></trkpt><trkpt lat="45.4133633" lon="9.890105"><ele>72.0</ele><time>2026-05-01T14:28:10.729Z</time></trkpt><trkpt lat="45.4132567" lon="9.890165"><ele>72.75</ele><time>2026-05-01T14:28:12.729Z</time></trkpt><trkpt lat="45.4131417" lon="9.8902267"><ele>73.5</ele><time>2026-05-01T14:28:14.729Z</time></trkpt><trkpt lat="45.4130383" lon="9.8902967"><ele>74.25</ele><time>2026-05-01T14:28:16.73Z</time></trkpt><trkpt lat="45.41296" lon="9.890415"><ele>75.0</ele><time>2026-05-01T14:28:18.728Z</time></trkpt><trkpt lat="45.4128717" lon="9.8904983"><ele>75.0</ele><time>2026-05-01T14:28:20.728Z</time></trkpt><trkpt lat="45.4127667" lon="9.8905433"><ele>75.0</ele><time>2026-05-01T14:28:22.728Z</time></trkpt><trkpt lat="45.41268" lon="9.89065"><ele>75.0</ele><time>2026-05-01T14:28:24.728Z</time></trkpt><trkpt lat="45.4126017" lon="9.8907567"><ele>75.0</ele><time>2026-05-01T14:28:26.728Z</time></trkpt><trkpt lat="45.4125183" lon="9.8908717"><ele>75.0</ele><time>2026-05-01T14:28:28.728Z</time></trkpt><trkpt lat="45.4124883" lon="9.8910133"><ele>75.4</ele><time>2026-05-01T14:28:30.728Z</time></trkpt><trkpt lat="45.4124833" lon="9.8911683"><ele>75.8</ele><time>2026-05-01T14:28:32.729Z</time></trkpt><trkpt lat="45.412415" lon="9.89128"><ele>76.2</ele><time>2026-05-01T14:28:34.728Z</time></trkpt><trkpt lat="45.4123267" lon="9.8913133"><ele>76.6</ele><time>2026-05-01T14:28:36.728Z</time></trkpt><trkpt lat="45.4122583" lon="9.8913083"><ele>77.0</ele><time>2026-05-01T14:28:39.728Z</time></trkpt><trkpt lat="45.4121817" lon="9.8913567"><ele>76.33333333333334</ele><time>2026-05-01T14:28:46.729Z</time></trkpt><trkpt lat="45.4121117" lon="9.8914317"><ele>75.66666666666667</ele><time>2026-05-01T14:28:49.728Z</time></trkpt><trkpt lat="45.4120333" lon="9.8915183"><ele>75.0</ele><time>2026-05-01T14:28:52.728Z</time></trkpt><trkpt lat="45.4119583" lon="9.89157"><ele>74.33333333333333</ele><time>2026-05-01T14:28:54.728Z</time></trkpt><trkpt lat="45.4118767" lon="9.8916067"><ele>73.66666666666666</ele><time>2026-05-01T14:28:56.728Z</time></trkpt><trkpt lat="45.411795" lon="9.89165"><ele>73.0</ele><time>2026-05-01T14:28:58.728Z</time></trkpt><trkpt lat="45.4117383" lon="9.891725"><ele>74.4</ele><time>2026-05-01T14:29:00.728Z</time></trkpt><trkpt lat="45.4117117" lon="9.891845"><ele>75.8</ele><time>2026-05-01T14:29:02.728Z</time></trkpt><trkpt lat="45.4116633" lon="9.8919733"><ele>77.2</ele><time>2026-05-01T14:29:04.728Z</time></trkpt><trkpt lat="45.411565" lon="9.8920117"><ele>78.6</ele><time>2026-05-01T14:29:06.728Z</time></trkpt><trkpt lat="45.4114517" lon="9.89204"><ele>80.0</ele><time>2026-05-01T14:29:08.728Z</time></trkpt><trkpt lat="45.41135" lon="9.8921033"><ele>79.0</ele><time>2026-05-01T14:29:10.728Z</time></trkpt><trkpt lat="45.4112533" lon="9.8922033"><ele>78.0</ele><time>2026-05-01T14:29:12.728Z</time></trkpt><trkpt lat="45.4111917" lon="9.8923067"><ele>77.0</ele><time>2026-05-01T14:29:14.728Z</time></trkpt><trkpt lat="45.4111183" lon="9.892385"><ele>76.0</ele><time>2026-05-01T14:29:16.728Z</time></trkpt><trkpt lat="45.411055" lon="9.8924317"><ele>75.0</ele><time>2026-05-01T14:29:18.728Z</time></trkpt><trkpt lat="45.4109833" lon="9.8924767"><ele>75.0</ele><time>2026-05-01T14:29:20.728Z</time></trkpt><trkpt lat="45.4109117" lon="9.8925317"><ele>75.0</ele><time>2026-05-01T14:29:22.728Z</time></trkpt><trkpt lat="45.410835" lon="9.8926033"><ele>75.0</ele><time>2026-05-01T14:29:24.728Z</time></trkpt><trkpt lat="45.41074" lon="9.8926767"><ele>75.0</ele><time>2026-05-01T14:29:26.729Z</time></trkpt><trkpt lat="45.41064" lon="9.8927517"><ele>75.0</ele><time>2026-05-01T14:29:28.728Z</time></trkpt><trkpt lat="45.410535" lon="9.8928167"><ele>74.25</ele><time>2026-05-01T14:29:30.728Z</time></trkpt><trkpt lat="45.4104183" lon="9.8928733"><ele>73.5</ele><time>2026-05-01T14:29:32.728Z</time></trkpt><trkpt lat="45.4103067" lon="9.8929283"><ele>72.75</ele><time>2026-05-01T14:29:34.728Z</time></trkpt><trkpt lat="45.4101933" lon="9.8929783"><ele>72.0</ele><time>2026-05-01T14:29:36.728Z</time></trkpt><trkpt lat="45.4100867" lon="9.893055"><ele>72.0</ele><time>2026-05-01T14:29:38.728Z</time></trkpt><trkpt lat="45.4099883" lon="9.8931533"><ele>72.0</ele><time>2026-05-01T14:29:40.728Z</time></trkpt><trkpt lat="45.4099033" lon="9.8932867"><ele>72.0</ele><time>2026-05-01T14:29:42.728Z</time></trkpt><trkpt lat="45.4098633" lon="9.8933567"><ele>72.0</ele><time>2026-05-01T14:29:43.728Z</time></trkpt><trkpt lat="45.4097883" lon="9.893495"><ele>72.0</ele><time>2026-05-01T14:29:45.728Z</time></trkpt><trkpt lat="45.409705" lon="9.8936417"><ele>72.00000000000001</ele><time>2026-05-01T14:29:47.728Z</time></trkpt><trkpt lat="45.4096567" lon="9.8937117"><ele>72.0</ele><time>2026-05-01T14:29:48.729Z</time></trkpt><trkpt lat="45.4096083" lon="9.8937867"><ele>72.0</ele><time>2026-05-01T14:29:49.728Z</time></trkpt><trkpt lat="45.4095567" lon="9.89386"><ele>72.0</ele><time>2026-05-01T14:29:50.728Z</time></trkpt><trkpt lat="45.4095067" lon="9.8939317"><ele>72.0</ele><time>2026-05-01T14:29:51.729Z</time></trkpt><trkpt lat="45.4094533" lon="9.8940067"><ele>72.00000000000001</ele><time>2026-05-01T14:29:52.728Z</time></trkpt><trkpt lat="45.409405" lon="9.894075"><ele>72.0</ele><time>2026-05-01T14:29:53.728Z</time></trkpt><trkpt lat="45.4093033" lon="9.8941817"><ele>72.00000000000001</ele><time>2026-05-01T14:29:55.728Z</time></trkpt><trkpt lat="45.4092383" lon="9.8942267"><ele>72.0</ele><time>2026-05-01T14:29:56.728Z</time></trkpt><trkpt lat="45.4091717" lon="9.8942633"><ele>72.0</ele><time>2026-05-01T14:29:57.728Z</time></trkpt><trkpt lat="45.4091" lon="9.8943017"><ele>72.0</ele><time>2026-05-01T14:29:58.728Z</time></trkpt><trkpt lat="45.4090283" lon="9.8943383"><ele>72.0</ele><time>2026-05-01T14:29:59.728Z</time></trkpt><trkpt lat="45.408965" lon="9.8943817"><ele>72.00000000000001</ele><time>2026-05-01T14:30:00.728Z</time></trkpt><trkpt lat="45.4089" lon="9.8944217"><ele>72.0</ele><time>2026-05-01T14:30:01.728Z</time></trkpt><trkpt lat="45.4088333" lon="9.8944517"><ele>72.0</ele><time>2026-05-01T14:30:02.728Z</time></trkpt><trkpt lat="45.40877" lon="9.8944717"><ele>72.0</ele><time>2026-05-01T14:30:03.728Z</time></trkpt><trkpt lat="45.4086483" lon="9.8945"><ele>72.0</ele><time>2026-05-01T14:30:05.728Z</time></trkpt><trkpt lat="45.408575" lon="9.8945083"><ele>72.0</ele><time>2026-05-01T14:30:06.728Z</time></trkpt><trkpt lat="45.4084967" lon="9.8945117"><ele>72.0</ele><time>2026-05-01T14:30:07.728Z</time></trkpt><trkpt lat="45.4084217" lon="9.894525"><ele>72.0</ele><time>2026-05-01T14:30:08.728Z</time></trkpt><trkpt lat="45.4083533" lon="9.894565"><ele>72.0</ele><time>2026-05-01T14:30:09.728Z</time></trkpt><trkpt lat="45.40829" lon="9.894615"><ele>72.0</ele><time>2026-05-01T14:30:10.728Z</time></trkpt><trkpt lat="45.4082317" lon="9.8946567"><ele>72.0</ele><time>2026-05-01T14:30:11.728Z</time></trkpt><trkpt lat="45.4081383" lon="9.8947133"><ele>72.0</ele><time>2026-05-01T14:30:13.728Z</time></trkpt><trkpt lat="45.4080717" lon="9.8946483"><ele>72.0</ele><time>2026-05-01T14:30:15.728Z</time></trkpt><trkpt lat="45.4079817" lon="9.8945617"><ele>72.0</ele><time>2026-05-01T14:30:17.728Z</time></trkpt><trkpt lat="45.4078783" lon="9.89449"><ele>72.0</ele><time>2026-05-01T14:30:19.728Z</time></trkpt><trkpt lat="45.4077967" lon="9.8943767"><ele>72.0</ele><time>2026-05-01T14:30:21.728Z</time></trkpt><trkpt lat="45.407755" lon="9.8942183"><ele>72.0</ele><time>2026-05-01T14:30:23.728Z</time></trkpt><trkpt lat="45.4077367" lon="9.8941267"><ele>72.0</ele><time>2026-05-01T14:30:24.728Z</time></trkpt><trkpt lat="45.4077183" lon="9.894035"><ele>72.0</ele><time>2026-05-01T14:30:25.728Z</time></trkpt><trkpt lat="45.4076967" lon="9.893945"><ele>72.0</ele><time>2026-05-01T14:30:26.728Z</time></trkpt><trkpt lat="45.4076783" lon="9.8938533"><ele>72.2</ele><time>2026-05-01T14:30:27.728Z</time></trkpt><trkpt lat="45.4076633" lon="9.8937617"><ele>72.4</ele><time>2026-05-01T14:30:28.728Z</time></trkpt><trkpt lat="45.4076017" lon="9.893615"><ele>72.6</ele><time>2026-05-01T14:30:30.728Z</time></trkpt><trkpt lat="45.4075033" lon="9.8934967"><ele>72.8</ele><time>2026-05-01T14:30:32.728Z</time></trkpt><trkpt lat="45.4074083" lon="9.8934"><ele>73.0</ele><time>2026-05-01T14:30:34.729Z</time></trkpt><trkpt lat="45.4073633" lon="9.8933367"><ele>72.83333333333333</ele><time>2026-05-01T14:30:35.729Z</time></trkpt><trkpt lat="45.407275" lon="9.8932417"><ele>72.66666666666666</ele><time>2026-05-01T14:30:37.729Z</time></trkpt><trkpt lat="45.4072133" lon="9.8931483"><ele>72.5</ele><time>2026-05-01T14:30:39.728Z</time></trkpt><trkpt lat="45.4071683" lon="9.8930533"><ele>72.33333333333333</ele><time>2026-05-01T14:30:41.728Z</time></trkpt><trkpt lat="45.4071367" lon="9.892955"><ele>72.16666666666667</ele><time>2026-05-01T14:30:43.728Z</time></trkpt><trkpt lat="45.4071167" lon="9.8928483"><ele>72.0</ele><time>2026-05-01T14:30:45.728Z</time></trkpt><trkpt lat="45.4071067" lon="9.8927317"><ele>72.0</ele><time>2026-05-01T14:30:47.728Z</time></trkpt><trkpt lat="45.4070933" lon="9.89262"><ele>72.0</ele><time>2026-05-01T14:30:49.728Z</time></trkpt><trkpt lat="45.4070883" lon="9.8925"><ele>72.0</ele><time>2026-05-01T14:30:51.728Z</time></trkpt><trkpt lat="45.4070817" lon="9.8923817"><ele>72.0</ele><time>2026-05-01T14:30:53.729Z</time></trkpt><trkpt lat="45.4070783" lon="9.8922533"><ele>72.0</ele><time>2026-05-01T14:30:55.728Z</time></trkpt><trkpt lat="45.407055" lon="9.8921333"><ele>72.0</ele><time>2026-05-01T14:30:57.728Z</time></trkpt><trkpt lat="45.4070167" lon="9.892015"><ele>72.2</ele><time>2026-05-01T14:30:59.728Z</time></trkpt><trkpt lat="45.4069617" lon="9.8919067"><ele>72.4</ele><time>2026-05-01T14:31:01.728Z</time></trkpt><trkpt lat="45.4068933" lon="9.8918133"><ele>72.6</ele><time>2026-05-01T14:31:03.728Z</time></trkpt><trkpt lat="45.406815" lon="9.8917217"><ele>72.8</ele><time>2026-05-01T14:31:05.728Z</time></trkpt><trkpt lat="45.4067317" lon="9.8916417"><ele>73.0</ele><time>2026-05-01T14:31:07.728Z</time></trkpt><trkpt lat="45.4066483" lon="9.891545"><ele>72.8</ele><time>2026-05-01T14:31:09.728Z</time></trkpt><trkpt lat="45.4065617" lon="9.8914333"><ele>72.6</ele><time>2026-05-01T14:31:11.728Z</time></trkpt><trkpt lat="45.4064767" lon="9.8913267"><ele>72.4</ele><time>2026-05-01T14:31:13.729Z</time></trkpt><trkpt lat="45.4063833" lon="9.8912333"><ele>72.2</ele><time>2026-05-01T14:31:15.728Z</time></trkpt><trkpt lat="45.4063033" lon="9.89118"><ele>72.0</ele><time>2026-05-01T14:31:17.728Z</time></trkpt><trkpt lat="45.4062167" lon="9.8911433"><ele>72.00000000000001</ele><time>2026-05-01T14:31:19.728Z</time></trkpt><trkpt lat="45.4061383" lon="9.8910967"><ele>72.0</ele><time>2026-05-01T14:31:21.728Z</time></trkpt><trkpt lat="45.4060667" lon="9.8910533"><ele>72.0</ele><time>2026-05-01T14:31:24.728Z</time></trkpt><trkpt lat="45.4060083" lon="9.8910033"><ele>72.0</ele><time>2026-05-01T14:31:28.728Z</time></trkpt><trkpt lat="45.405945" lon="9.8909717"><ele>72.0</ele><time>2026-05-01T14:31:32.728Z</time></trkpt><trkpt lat="45.40587" lon="9.89095"><ele>72.00000000000001</ele><time>2026-05-01T14:31:35.728Z</time></trkpt><trkpt lat="45.405805" lon="9.8909533"><ele>72.0</ele><time>2026-05-01T14:31:38.728Z</time></trkpt><trkpt lat="45.4057217" lon="9.8909633"><ele>72.0</ele><time>2026-05-01T14:31:42.728Z</time></trkpt><trkpt lat="45.4056483" lon="9.8909"><ele>72.0</ele><time>2026-05-01T14:31:45.728Z</time></trkpt><trkpt lat="45.4055683" lon="9.8908767"><ele>72.0</ele><time>2026-05-01T14:31:48.728Z</time></trkpt><trkpt lat="45.40548" lon="9.89088"><ele>72.0</ele><time>2026-05-01T14:31:51.728Z</time></trkpt><trkpt lat="45.4053917" lon="9.8909183"><ele>72.0</ele><time>2026-05-01T14:31:54.728Z</time></trkpt><trkpt lat="45.4053183" lon="9.8909383"><ele>72.0</ele><time>2026-05-01T14:31:56.728Z</time></trkpt><trkpt lat="45.4052383" lon="9.890965"><ele>72.0</ele><time>2026-05-01T14:31:58.728Z</time></trkpt><trkpt lat="45.4051517" lon="9.8909917"><ele>72.0</ele><time>2026-05-01T14:32:00.728Z</time></trkpt><trkpt lat="45.40507" lon="9.8910183"><ele>72.0</ele><time>2026-05-01T14:32:02.728Z</time></trkpt><trkpt lat="45.404985" lon="9.8910533"><ele>72.0</ele><time>2026-05-01T14:32:04.728Z</time></trkpt><trkpt lat="45.404895" lon="9.89109"><ele>72.0</ele><time>2026-05-01T14:32:06.728Z</time></trkpt><trkpt lat="45.4048067" lon="9.8911217"><ele>72.0</ele><time>2026-05-01T14:32:08.728Z</time></trkpt><trkpt lat="45.404725" lon="9.8911517"><ele>71.6</ele><time>2026-05-01T14:32:10.728Z</time></trkpt><trkpt lat="45.4046283" lon="9.8911917"><ele>71.2</ele><time>2026-05-01T14:32:12.728Z</time></trkpt><trkpt lat="45.40452" lon="9.8912217"><ele>70.8</ele><time>2026-05-01T14:32:14.728Z</time></trkpt><trkpt lat="45.4044183" lon="9.891245"><ele>70.4</ele><time>2026-05-01T14:32:16.728Z</time></trkpt><trkpt lat="45.4043167" lon="9.891265"><ele>70.0</ele><time>2026-05-01T14:32:18.728Z</time></trkpt><trkpt lat="45.4042217" lon="9.8912733"><ele>70.0</ele><time>2026-05-01T14:32:20.728Z</time></trkpt><trkpt lat="45.4041183" lon="9.891275"><ele>70.0</ele><time>2026-05-01T14:32:22.728Z</time></trkpt><trkpt lat="45.404025" lon="9.8912883"><ele>70.0</ele><time>2026-05-01T14:32:24.728Z</time></trkpt><trkpt lat="45.4039383" lon="9.891285"><ele>70.0</ele><time>2026-05-01T14:32:26.728Z</time></trkpt><trkpt lat="45.4038533" lon="9.891305"><ele>70.0</ele><time>2026-05-01T14:32:28.728Z</time></trkpt><trkpt lat="45.403765" lon="9.89134"><ele>70.5</ele><time>2026-05-01T14:32:30.728Z</time></trkpt><trkpt lat="45.4036967" lon="9.8913817"><ele>71.0</ele><time>2026-05-01T14:32:32.728Z</time></trkpt><trkpt lat="45.4036333" lon="9.891375"><ele>71.5</ele><time>2026-05-01T14:32:34.728Z</time></trkpt><trkpt lat="45.403575" lon="9.8912983"><ele>72.0</ele><time>2026-05-01T14:32:36.728Z</time></trkpt><trkpt lat="45.4034967" lon="9.8912567"><ele>72.5</ele><time>2026-05-01T14:32:38.728Z</time></trkpt><trkpt lat="45.403415" lon="9.8912467"><ele>73.0</ele><time>2026-05-01T14:32:40.728Z</time></trkpt><trkpt lat="45.4033367" lon="9.8912183"><ele>73.0</ele><time>2026-05-01T14:32:42.728Z</time></trkpt><trkpt lat="45.4032417" lon="9.8911833"><ele>73.0</ele><time>2026-05-01T14:32:44.728Z</time></trkpt><trkpt lat="45.4031467" lon="9.8911583"><ele>73.0</ele><time>2026-05-01T14:32:46.728Z</time></trkpt><trkpt lat="45.4030517" lon="9.8911267"><ele>73.0</ele><time>2026-05-01T14:32:48.728Z</time></trkpt><trkpt lat="45.4029517" lon="9.8910917"><ele>73.0</ele><time>2026-05-01T14:32:50.728Z</time></trkpt><trkpt lat="45.402835" lon="9.8910417"><ele>72.8</ele><time>2026-05-01T14:32:52.728Z</time></trkpt><trkpt lat="45.4027283" lon="9.8909917"><ele>72.6</ele><time>2026-05-01T14:32:54.728Z</time></trkpt><trkpt lat="45.4026233" lon="9.8909233"><ele>72.4</ele><time>2026-05-01T14:32:56.728Z</time></trkpt><trkpt lat="45.4025433" lon="9.8908667"><ele>72.2</ele><time>2026-05-01T14:32:58.728Z</time></trkpt><trkpt lat="45.402475" lon="9.89083"><ele>72.0</ele><time>2026-05-01T14:33:01.729Z</time></trkpt><trkpt lat="45.402395" lon="9.8907817"><ele>71.83333333333333</ele><time>2026-05-01T14:33:04.728Z</time></trkpt><trkpt lat="45.4023167" lon="9.8907267"><ele>71.66666666666667</ele><time>2026-05-01T14:33:06.728Z</time></trkpt><trkpt lat="45.4022383" lon="9.8906733"><ele>71.5</ele><time>2026-05-01T14:33:08.728Z</time></trkpt><trkpt lat="45.4021533" lon="9.8906183"><ele>71.33333333333334</ele><time>2026-05-01T14:33:10.728Z</time></trkpt><trkpt lat="45.4020667" lon="9.8905567"><ele>71.16666666666667</ele><time>2026-05-01T14:33:12.728Z</time></trkpt><trkpt lat="45.4019917" lon="9.89051"><ele>71.0</ele><time>2026-05-01T14:33:14.728Z</time></trkpt><trkpt lat="45.4019133" lon="9.89047"><ele>71.6</ele><time>2026-05-01T14:33:16.728Z</time></trkpt><trkpt lat="45.4018333" lon="9.890445"><ele>72.19999999999999</ele><time>2026-05-01T14:33:18.728Z</time></trkpt><trkpt lat="45.4017483" lon="9.8904133"><ele>72.80000000000001</ele><time>2026-05-01T14:33:20.728Z</time></trkpt><trkpt lat="45.4016367" lon="9.89038"><ele>73.4</ele><time>2026-05-01T14:33:22.728Z</time></trkpt><trkpt lat="45.40152" lon="9.8903683"><ele>74.0</ele><time>2026-05-01T14:33:24.728Z</time></trkpt><trkpt lat="45.401405" lon="9.8903717"><ele>74.0</ele><time>2026-05-01T14:33:26.728Z</time></trkpt><trkpt lat="45.401295" lon="9.89041"><ele>74.0</ele><time>2026-05-01T14:33:28.728Z</time></trkpt><trkpt lat="45.4011717" lon="9.8904117"><ele>74.0</ele><time>2026-05-01T14:33:30.728Z</time></trkpt><trkpt lat="45.4010533" lon="9.8903933"><ele>74.0</ele><time>2026-05-01T14:33:32.728Z</time></trkpt><trkpt lat="45.40093" lon="9.89039"><ele>74.0</ele><time>2026-05-01T14:33:34.728Z</time></trkpt><trkpt lat="45.400865" lon="9.8903933"><ele>74.0</ele><time>2026-05-01T14:33:35.728Z</time></trkpt><trkpt lat="45.4007917" lon="9.890415"><ele>74.0</ele><time>2026-05-01T14:33:36.728Z</time></trkpt><trkpt lat="45.4007233" lon="9.8904383"><ele>74.0</ele><time>2026-05-01T14:33:37.728Z</time></trkpt><trkpt lat="45.40066" lon="9.8904617"><ele>74.0</ele><time>2026-05-01T14:33:38.728Z</time></trkpt><trkpt lat="45.4005333" lon="9.89048"><ele>74.0</ele><time>2026-05-01T14:33:40.728Z</time></trkpt><trkpt lat="45.4004117" lon="9.8904967"><ele>73.4</ele><time>2026-05-01T14:33:42.728Z</time></trkpt><trkpt lat="45.4002917" lon="9.89053"><ele>72.80000000000001</ele><time>2026-05-01T14:33:44.728Z</time></trkpt><trkpt lat="45.4002317" lon="9.8905583"><ele>72.19999999999999</ele><time>2026-05-01T14:33:45.728Z</time></trkpt><trkpt lat="45.400135" lon="9.890665"><ele>71.6</ele><time>2026-05-01T14:33:47.728Z</time></trkpt><trkpt lat="45.4000317" lon="9.8907483"><ele>71.0</ele><time>2026-05-01T14:33:49.728Z</time></trkpt><trkpt lat="45.3999667" lon="9.8907717"><ele>71.0</ele><time>2026-05-01T14:33:50.729Z</time></trkpt><trkpt lat="45.3998517" lon="9.8907933"><ele>71.0</ele><time>2026-05-01T14:33:52.728Z</time></trkpt><trkpt lat="45.3997333" lon="9.8908067"><ele>71.0</ele><time>2026-05-01T14:33:54.727Z</time></trkpt><trkpt lat="45.3996367" lon="9.8908067"><ele>71.0</ele><time>2026-05-01T14:33:56.727Z</time></trkpt><trkpt lat="45.3995817" lon="9.890865"><ele>71.0</ele><time>2026-05-01T14:33:58.727Z</time></trkpt><trkpt lat="45.3995567" lon="9.89098"><ele>70.83333333333334</ele><time>2026-05-01T14:34:01.727Z</time></trkpt><trkpt lat="45.3995133" lon="9.891065"><ele>70.66666666666667</ele><time>2026-05-01T14:34:04.727Z</time></trkpt><trkpt lat="45.3994567" lon="9.8911317"><ele>70.5</ele><time>2026-05-01T14:34:07.727Z</time></trkpt><trkpt lat="45.3993233" lon="9.8911583"><ele>70.33333333333333</ele><time>2026-05-01T14:34:31.727Z</time></trkpt><trkpt lat="45.3993" lon="9.8910533"><ele>70.16666666666666</ele><time>2026-05-01T14:34:41.727Z</time></trkpt><trkpt lat="45.3992833" lon="9.8909617"><ele>70.0</ele><time>2026-05-01T14:34:44.727Z</time></trkpt><trkpt lat="45.3992583" lon="9.89086"><ele>69.66666666666666</ele><time>2026-05-01T14:34:47.727Z</time></trkpt><trkpt lat="45.3992383" lon="9.8907633"><ele>69.33333333333333</ele><time>2026-05-01T14:34:50.727Z</time></trkpt><trkpt lat="45.3992117" lon="9.8906633"><ele>69.0</ele><time>2026-05-01T14:34:53.727Z</time></trkpt><trkpt lat="45.3991867" lon="9.8905617"><ele>68.66666666666667</ele><time>2026-05-01T14:34:56.727Z</time></trkpt><trkpt lat="45.3991667" lon="9.8904483"><ele>68.33333333333334</ele><time>2026-05-01T14:35:09.727Z</time></trkpt><trkpt lat="45.3991467" lon="9.8903383"><ele>68.0</ele><time>2026-05-01T14:35:12.728Z</time></trkpt><trkpt lat="45.3991167" lon="9.8902167"><ele>68.0</ele><time>2026-05-01T14:35:15.727Z</time></trkpt><trkpt lat="45.3990883" lon="9.89011"><ele>68.0</ele><time>2026-05-01T14:35:19.234Z</time></trkpt><trkpt lat="45.39908" lon="9.89002"><ele>68.0</ele><time>2026-05-01T14:35:20.734Z</time></trkpt><trkpt lat="45.3990583" lon="9.8899267"><ele>68.0</ele><time>2026-05-01T14:35:23.734Z</time></trkpt><trkpt lat="45.39901" lon="9.8897767"><ele>68.0</ele><time>2026-05-01T14:35:28.734Z</time></trkpt><trkpt lat="45.3990067" lon="9.889645"><ele>68.0</ele><time>2026-05-01T14:35:31.734Z</time></trkpt><trkpt lat="45.3989833" lon="9.8895517"><ele>69.0</ele><time>2026-05-01T14:35:33.734Z</time></trkpt><trkpt lat="45.3989633" lon="9.8894583"><ele>69.0</ele><time>2026-05-01T14:35:35.734Z</time></trkpt><trkpt lat="45.398945" lon="9.8893583"><ele>69.0</ele><time>2026-05-01T14:35:37.734Z</time></trkpt><trkpt lat="45.3989433" lon="9.8892517"><ele>69.0</ele><time>2026-05-01T14:35:39.734Z</time></trkpt><trkpt lat="45.3989217" lon="9.8891517"><ele>69.0</ele><time>2026-05-01T14:35:41.734Z</time></trkpt><trkpt lat="45.3988967" lon="9.8890583"><ele>69.0</ele><time>2026-05-01T14:35:44.734Z</time></trkpt></trkseg></trk></gpx>